[[{"header":{"parameterUnit":"m.s-1","parameterCategory":1,"la1":30.6,"la2":28.766,"lo1":-90.7593,"lo2":-88.6598,"dx":0.0162,"dy":0.0183,"nx":116,"ny":114,"refTime":"2022-11-10T06:00:00:Z","depth":0,"parameterNumber":2,"parameterNumberName":"U-component_of_WINDS"},"data":[0.0,0.0,0.0,0.0,0.0,0.0,0.0,0.0,0.0,0.0,0.0,0.0,0.0,0.0,0.0,0.0,0.0,0.0,0.0,0.0,0.0,0.0,0.0,0.0,0.0,0.0,0.0,0.0,0.0,0.0,0.0,0.0,0.0,0.0,0.0,0.0,0.0,0.0,0.0,0.0,0.0,0.0,0.0,0.0,0.0,0.0,0.0,0.0,0.0,0.0,0.0,0.0,0.0,0.0,0.0,0.0,0.0,0.0,0.0,0.0,0.0,0.0,0.0,0.0,0.0,0.0,0.0,0.0,0.0,0.0,0.0,0.0,0.0,0.0,0.0,0.0,0.0,0.0,0.0,0.0,0.0,0.0,0.0,0.0,0.0,0.0,0.0,0.0,0.0,0.0,0.0,0.0,0.0,0.0,0.0,0.0,0.0,0.0,0.0,0.0,0.0,0.0,0.0,0.0,0.0,0.0,0.0,0.0,0.0,0.0,0.0,0.0,0.0,0.0,0.0,0.0,0.0,0.0,0.0,0.0,0.0,0.0,0.0,0.0,0.0,0.0,0.0,0.0,0.0,0.0,0.0,0.0,0.0,0.0,0.0,0.0,0.0,0.0,0.0,0.0,0.0,0.0,0.0,0.0,0.0,0.0,0.0,0.0,0.0,0.0,0.0,0.0,0.0,0.0,0.0,0.0,0.0,0.0,0.0,0.0,0.0,0.0,0.0,0.0,0.0,0.0,0.0,0.0,0.0,0.0,0.0,0.0,0.0,0.0,0.0,0.0,0.0,0.0,0.0,0.0,0.0,0.0,0.0,0.0,0.0,0.0,0.0,0.0,0.0,0.0,0.0,0.0,0.0,0.0,0.0,0.0,0.0,0.0,0.0,0.0,0.0,0.0,0.0,0.0,0.0,0.0,0.0,0.0,0.0,0.0,0.0,0.0,0.0,0.0,0.0,0.0,0.0,0.0,0.0,0.0,0.0,0.0,0.0,0.0,0.0,0.0,0.0,0.0,0.0,0.0,0.0,0.0,0.0,0.0,0.0,0.0,0.0,0.0,0.0,0.0,0.0,0.0,0.0,0.0,0.0,0.0,0.0,0.0,0.0,0.0,0.0,0.0,0.0,0.0,0.0,0.0,0.0,0.0,0.0,0.0,0.0,0.0,0.0,0.0,0.0,0.0,0.0,0.0,0.0,0.0,0.0,0.0,0.0,0.0,0.0,0.0,0.0,0.0,0.0,0.0,0.0,0.0,0.0,0.0,0.0,0.0,0.0,0.0,0.0,0.0,0.0,0.0,0.0,0.0,0.0,0.0,0.0,0.0,0.0,0.0,0.0,0.0,0.0,0.0,0.0,0.0,0.0,0.0,0.0,0.0,0.0,0.0,0.0,0.0,0.0,0.0,0.0,0.0,0.0,0.0,0.0,0.0,0.0,0.0,0.0,0.0,0.0,0.0,0.0,0.0,0.0,0.0,0.0,0.0,0.0,0.0,0.0,0.0,0.0,0.0,0.0,0.0,0.0,0.0,0.0,0.0,0.0,0.0,0.0,0.0,0.0,0.0,0.0,0.0,0.0,0.0,0.0,0.0,0.0,0.0,0.0,0.0,0.0,0.0,0.0,0.0,0.0,0.0,0.0,0.0,0.0,0.0,0.0,0.0,0.0,0.0,0.0,0.0,0.0,0.0,0.0,0.0,0.0,0.0,0.0,0.0,0.0,0.0,0.0,0.0,0.0,0.0,0.0,0.0,0.0,0.0,0.0,0.0,0.0,0.0,0.0,0.0,0.0,0.0,0.0,0.0,0.0,0.0,0.0,0.0,0.0,0.0,0.0,0.0,0.0,0.0,0.0,0.0,0.0,0.0,0.0,0.0,0.0,0.0,0.0,0.0,0.0,0.0,0.0,0.0,0.0,0.0,0.0,0.0,0.0,0.0,0.0,0.0,0.0,0.0,0.0,0.0,0.0,0.0,0.0,0.0,0.0,0.0,0.0,0.0,0.0,0.0,0.0,0.0,0.0,0.0,0.0,0.0,0.0,0.0,0.0,0.0,0.0,0.0,0.0,0.0,0.0,0.0,0.0,0.0,0.0,0.0,0.0,0.0,0.0,0.0,0.0,0.0,0.0,0.0,0.0,0.0,0.0,0.0,0.0,0.0,0.0,0.0,0.0,0.0,0.0,0.0,0.0,0.0,0.0,0.0,0.0,0.0,0.0,0.0,0.0,0.0,0.0,0.0,0.0,0.0,0.0,0.0,0.0,0.0,0.0,0.0,0.0,0.0,0.0,0.0,0.0,0.0,0.0,0.0,0.0,0.0,0.0,0.0,0.0,0.0,0.0,0.0,0.0,0.0,0.0,0.0,0.0,0.0,0.0,0.0,0.0,0.0,0.0,0.0,0.0,0.0,0.0,0.0,0.0,0.0,0.0,0.0,0.0,0.0,0.0,0.0,0.0,0.0,0.0,0.0,0.0,0.0,0.0,0.0,0.0,0.0,0.0,0.0,0.0,0.0,0.0,0.0,0.0,0.0,0.0,0.0,0.0,0.0,0.0,0.0,0.0,0.0,0.0,0.0,0.0,0.0,0.0,0.0,0.0,0.0,0.0,0.0,0.0,0.0,0.0,0.0,0.0,0.0,0.0,0.0,0.0,0.0,0.0,0.0,0.0,0.0,0.0,0.0,0.0,0.0,0.0,0.0,0.0,0.0,0.0,0.0,0.0,0.0,0.0,0.0,0.0,0.0,0.0,0.0,0.0,0.0,0.0,0.0,0.0,0.0,0.0,0.0,0.0,0.0,0.0,0.0,0.0,0.0,0.0,0.0,0.0,0.0,0.0,0.0,0.0,0.0,0.0,0.0,0.0,0.0,0.0,0.0,0.0,0.0,0.0,0.0,0.0,0.0,0.0,0.0,0.0,0.0,0.0,0.0,0.0,0.0,0.0,0.0,0.0,0.0,0.0,0.0,0.0,0.0,0.0,0.0,0.0,0.0,0.0,0.0,0.0,0.0,0.0,0.0,0.0,0.0,0.0,0.0,0.0,0.0,0.0,0.0,0.0,0.0,0.0,0.0,0.0,0.0,0.0,0.0,0.0,0.0,0.0,0.0,0.0,0.0,0.0,0.0,0.0,0.0,0.0,0.0,0.0,0.0,0.0,0.0,0.0,0.0,0.0,0.0,0.0,0.0,0.0,0.0,0.0,0.0,0.0,0.0,0.0,0.0,0.0,0.0,0.0,0.0,0.0,0.0,0.0,0.0,0.0,0.0,0.0,0.0,0.0,0.0,0.0,0.0,0.0,0.0,0.0,0.0,0.0,0.0,0.0,0.0,0.0,0.0,0.0,0.0,0.0,0.0,0.0,0.0,0.0,0.0,0.0,0.0,0.0,0.0,0.0,0.0,0.0,0.0,0.0,0.0,0.0,0.0,0.0,0.0,0.0,0.0,0.0,0.0,0.0,0.0,0.0,0.0,0.0,0.0,0.0,0.0,0.0,0.0,0.0,0.0,0.0,0.0,0.0,0.0,0.0,0.0,0.0,0.0,0.0,0.0,0.0,0.0,0.0,0.0,0.0,0.0,0.0,0.0,0.0,0.0,0.0,0.0,0.0,0.0,0.0,0.0,0.0,0.0,0.0,0.0,0.0,0.0,0.0,0.0,0.0,0.0,0.0,0.0,0.0,0.0,0.0,0.0,0.0,0.0,0.0,0.0,0.0,0.0,0.0,0.0,0.0,0.0,0.0,0.0,0.0,0.0,0.0,0.0,0.0,0.0,0.0,0.0,0.0,0.0,0.0,0.0,0.0,0.0,0.0,0.0,0.0,0.0,0.0,0.0,0.0,0.0,0.0,0.0,0.0,0.0,0.0,0.0,0.0,0.0,0.0,0.0,0.0,0.0,0.0,0.0,0.0,0.0,0.0,0.0,0.0,0.0,0.0,0.0,0.0,0.0,0.0,0.0,0.0,0.0,0.0,0.0,0.0,0.0,0.0,0.0,0.0,0.0,0.0,0.0,0.0,0.0,0.0,0.0,0.0,0.0,0.0,0.0,0.0,0.0,0.0,0.0,0.0,0.0,0.0,0.0,0.0,0.0,0.0,0.0,0.0,0.0,0.0,0.0,0.0,0.0,0.0,0.0,0.0,0.0,0.0,0.0,0.0,0.0,0.0,0.0,0.0,0.0,0.0,0.0,0.0,0.0,0.0,0.0,0.0,0.0,0.0,0.0,0.0,0.0,0.0,0.0,0.0,0.0,0.0,0.0,0.0,0.0,0.0,0.0,0.0,0.0,0.0,0.0,0.0,0.0,0.0,0.0,0.0,0.0,0.0,0.0,0.0,0.0,0.0,0.0,0.0,0.0,0.0,0.0,0.0,0.0,0.0,0.0,0.0,0.0,0.0,0.0,0.0,0.0,0.0,0.0,0.0,0.0,0.0,0.0,0.0,0.0,0.0,0.0,0.0,0.0,0.0,0.0,0.0,0.0,0.0,0.0,0.0,0.0,0.0,0.0,0.0,0.0,0.0,0.0,0.0,0.0,0.0,0.0,0.0,0.0,0.0,0.0,0.0,0.0,0.0,0.0,0.0,0.0,0.0,0.0,0.0,0.0,0.0,0.0,0.0,0.0,0.0,0.0,0.0,0.0,0.0,0.0,0.0,0.0,0.0,0.0,0.0,0.0,0.0,0.0,0.0,0.0,0.0,0.0,0.0,0.0,0.0,0.0,0.0,0.0,0.0,0.0,0.0,0.0,0.0,0.0,0.0,0.0,0.0,0.0,0.0,0.0,0.0,0.0,0.0,0.0,0.0,0.0,0.0,0.0,0.0,0.0,0.0,0.0,0.0,0.0,0.0,0.0,0.0,0.0,0.0,0.0,0.0,0.0,0.0,0.0,0.0,0.0,0.0,0.0,0.0,0.0,0.0,0.0,0.0,0.0,0.0,0.0,0.0,0.0,0.0,0.0,0.0,0.0,0.0,0.0,0.0,0.0,0.0,0.0,0.0,0.0,0.0,0.0,0.0,0.0,0.0,0.0,0.0,0.0,0.0,0.0,0.0,0.0,0.0,0.0,0.0,0.0,0.0,0.0,0.0,0.0,0.0,0.0,0.0,0.0,0.0,0.0,0.0,0.0,0.0,0.0,0.0,0.0,0.0,0.0,0.0,0.0,0.0,0.0,0.0,0.0,0.0,0.0,0.0,0.0,0.0,0.0,0.0,0.0,0.0,0.0,0.0,0.0,0.0,0.0,0.0,0.0,0.0,0.0,0.0,0.0,0.0,0.0,0.0,0.0,0.0,0.0,0.0,0.0,0.0,0.0,0.0,0.0,0.0,0.0,0.0,0.0,0.0,0.0,0.0,0.0,0.0,0.0,0.0,0.0,0.0,0.0,0.0,0.0,0.0,0.0,0.0,0.0,0.0,0.0,0.0,0.0,0.0,0.0,0.0,0.0,0.0,0.0,0.0,0.0,0.0,0.0,0.0,0.0,0.0,0.0,0.0,0.0,0.0,0.0,0.0,0.0,0.0,0.0,0.0,0.0,0.0,0.0,0.0,0.0,0.0,0.0,0.0,0.0,0.0,0.0,0.0,0.0,0.0,0.0,0.0,0.0,0.0,0.0,0.0,0.0,0.0,0.0,0.0,0.0,0.0,0.0,0.0,0.0,0.0,0.0,0.0,0.0,0.0,0.0,0.0,0.0,0.0,0.0,0.0,0.0,0.0,0.0,0.0,0.0,0.0,0.0,0.0,0.0,0.0,0.0,0.0,0.0,0.0,0.0,0.0,0.0,0.0,0.0,0.0,0.0,0.0,0.0,0.0,0.0,0.0,0.0,0.0,0.0,0.0,0.0,0.0,0.0,0.0,0.0,0.0,0.0,0.0,0.0,0.0,0.0,0.0,0.0,0.0,0.0,0.0,0.0,0.0,0.0,0.0,0.0,0.0,0.0,0.0,0.0,0.0,0.0,0.0,0.0,0.0,0.0,0.0,0.0,0.0,0.0,0.0,0.0,0.0,0.0,0.0,0.0,0.0,0.0,0.0,0.0,0.0,0.0,0.0,0.0,0.0,0.0,0.0,0.0,0.0,0.0,0.0,0.0,0.0,0.0,0.0,0.0,0.0,0.0,5.6405,5.0701,0.0,0.0,0.0,0.0,0.0,0.0,0.0,0.0,0.0,0.0,0.0,0.0,0.0,0.0,0.0,0.0,0.0,0.0,0.0,0.0,0.0,0.0,0.0,3.3506,3.3699,3.4122,3.416,0.0,0.0,0.0,0.0,0.0,0.0,0.0,3.6622,3.7892,3.8969,3.9815,4.1994,4.5969,5.1447,4.8277,4.5906,4.4152,0.0,0.0,0.0,0.0,0.0,0.0,0.0,0.0,0.0,0.0,0.0,0.0,0.0,0.0,0.0,0.0,0.0,0.0,0.0,0.0,0.0,0.0,0.0,0.0,0.0,0.0,0.0,0.0,0.0,0.0,0.0,0.0,0.0,0.0,0.0,0.0,0.0,0.0,0.0,0.0,0.0,0.0,0.0,0.0,0.0,0.0,0.0,0.0,0.0,0.0,0.0,0.0,0.0,0.0,0.0,0.0,0.0,0.0,0.0,0.0,0.0,0.0,0.0,0.0,0.0,0.0,0.0,0.0,0.0,0.0,6.0079,5.6667,0.0,0.0,0.0,0.0,0.0,0.0,0.0,0.0,0.0,0.0,0.0,0.0,0.0,0.0,0.0,0.0,0.0,0.0,0.0,0.0,0.0,3.3737,3.4737,3.4853,3.5199,3.6084,3.6161,3.6238,3.6353,3.6392,0.0,0.0,3.82,3.9008,3.97,4.0546,4.1755,4.3387,4.8044,5.2834,5.7683,5.7961,5.5703,5.1172,4.642,0.0,0.0,0.0,0.0,0.0,0.0,0.0,0.0,0.0,0.0,0.0,0.0,0.0,0.0,0.0,0.0,0.0,0.0,0.0,0.0,0.0,0.0,0.0,0.0,0.0,0.0,0.0,0.0,0.0,0.0,0.0,0.0,0.0,0.0,0.0,0.0,0.0,0.0,0.0,0.0,0.0,0.0,0.0,0.0,0.0,0.0,0.0,0.0,0.0,0.0,0.0,0.0,0.0,0.0,0.0,0.0,0.0,0.0,0.0,0.0,0.0,0.0,0.0,6.7911,6.8375,6.8375,6.8378,6.8436,6.8297,6.3969,6.36,6.5623,5.984,0.0,0.0,0.0,0.0,0.0,0.0,0.0,0.0,0.0,0.0,0.0,0.0,0.0,0.0,0.0,0.0,0.0,0.0,0.0,3.5776,3.7315,3.7507,3.7853,3.87,3.8815,3.9084,3.9777,3.9854,3.9892,3.9969,4.0816,4.1354,4.147,4.2316,4.5038,4.9688,5.8618,6.3003,6.3091,6.4626,6.4555,6.2891,5.7035,5.2735,4.977,0.0,0.0,0.0,0.0,0.0,0.0,0.0,0.0,0.0,0.0,0.0,0.0,0.0,0.0,0.0,0.0,0.0,0.0,0.0,0.0,0.0,0.0,0.0,0.0,0.0,0.0,0.0,0.0,0.0,0.0,0.0,0.0,0.0,0.0,0.0,0.0,0.0,0.0,0.0,0.0,0.0,5.0971,5.6626,0.0,0.0,0.0,0.0,0.0,0.0,0.0,0.0,0.0,0.0,0.0,0.0,0.0,6.6367,6.9061,7.0152,7.1897,7.4247,7.5296,7.5778,7.5778,7.5787,7.5807,7.5605,7.1997,0.0,6.8672,6.8507,0.0,0.0,0.0,0.0,0.0,0.0,0.0,0.0,0.0,0.0,0.0,0.0,0.0,0.0,0.0,0.0,0.0,0.0,0.0,0.0,0.0,4.1123,4.2624,4.3508,4.4893,4.524,4.4162,4.4085,4.347,4.2008,4.2777,4.3431,4.3932,4.6733,5.1752,5.9043,6.38,6.7226,6.9278,7.0068,7.047,7.0419,6.7264,6.2238,5.6071,5.4866,0.0,0.0,0.0,0.0,0.0,0.0,0.0,0.0,0.0,0.0,0.0,0.0,0.0,0.0,0.0,0.0,0.0,0.0,0.0,0.0,0.0,0.0,0.0,0.0,0.0,0.0,0.0,0.0,0.0,0.0,0.0,0.0,0.0,0.0,0.0,0.0,0.0,0.0,0.0,5.024,5.428,5.9781,5.8088,5.6626,0.0,0.0,0.0,0.0,0.0,0.0,0.0,0.0,0.0,6.8621,6.9576,7.1765,7.5386,7.5839,7.6943,7.867,7.9594,8.0078,8.0078,8.0066,8.0074,7.9986,7.8456,7.7307,7.625,7.2187,7.0362,6.9963,0.0,0.0,0.0,0.0,6.3735,6.386,0.0,0.0,0.0,0.0,0.0,0.0,0.0,0.0,0.0,0.0,0.0,0.0,4.2047,4.5163,4.7471,4.8125,4.9894,5.0125,4.8009,4.7855,4.6817,4.447,4.4932,4.5663,4.6547,5.226,5.8878,6.6394,6.8394,7.1083,7.4301,7.4549,7.4844,7.5234,7.4579,6.9777,6.2116,6.1257,5.8006,5.3384,0.0,0.0,0.0,0.0,0.0,0.0,0.0,0.0,0.0,0.0,0.0,0.0,0.0,0.0,0.0,0.0,0.0,0.0,0.0,0.0,0.0,0.0,0.0,0.0,0.0,0.0,0.0,0.0,0.0,0.0,0.0,0.0,0.0,0.0,0.0,0.0,0.0,5.4741,5.8088,6.3397,6.2358,6.1396,0.0,0.0,0.0,0.0,0.0,0.0,6.7859,6.9078,7.124,7.448,7.5222,7.7053,8.0119,7.9925,8.0309,8.1328,8.1758,8.207,8.2304,8.2304,8.2304,8.2304,8.2304,8.2304,8.1836,7.5937,7.4023,7.4648,7.3392,7.2017,7.0688,7.0222,7.008,7.016,0.0,0.0,0.0,0.0,0.0,0.0,0.0,0.0,0.0,0.0,0.0,4.5624,4.6471,4.9586,5.1625,5.1664,5.1779,5.1471,5.0548,5.051,4.9702,4.7932,4.7894,4.8317,4.9202,5.8467,6.5205,6.9106,7.42,7.6796,7.703,7.7851,7.7812,7.707,7.7031,7.3554,6.7734,6.6875,6.3906,5.9531,5.621,0.0,0.0,0.0,0.0,0.0,0.0,0.0,0.0,0.0,0.0,0.0,0.0,0.0,0.0,0.0,0.0,0.0,0.0,0.0,0.0,0.0,0.0,0.0,0.0,0.0,0.0,0.0,0.0,0.0,0.0,0.0,0.0,0.0,0.0,0.0,0.0,0.0,0.0,6.8629,7.1321,0.0,0.0,0.0,0.0,6.809,6.8167,6.9783,7.3234,7.5143,7.7427,8.019,8.2108,8.2772,8.2145,8.1325,8.1365,8.2226,8.1445,8.1484,8.2304,8.2304,8.2304,8.2304,8.2304,8.2304,8.2265,8.1875,8.0781,7.918,7.7343,7.6171,7.5613,7.6221,7.656,7.7069,0.0,0.0,0.0,3.116,3.1929,3.2968,3.4353,3.6507,3.8469,3.9892,4.4239,4.7317,4.7625,5.2164,5.5164,5.5164,5.7203,5.7665,5.5703,5.5088,5.3741,5.1471,5.0356,5.2589,5.8588,6.604,7.1602,7.5222,7.761,7.8828,7.8789,7.8594,7.832,7.8008,7.7461,7.6015,7.3906,7.2461,6.9023,6.4492,6.3711,5.9637,0.0,0.0,0.0,0.0,0.0,0.0,0.0,0.0,0.0,0.0,0.0,0.0,0.0,0.0,0.0,0.0,0.0,0.0,0.0,0.0,0.0,0.0,0.0,0.0,0.0,0.0,0.0,0.0,0.0,0.0,0.0,0.0,0.0,0.0,0.0,0.0,0.0,7.0016,7.208,0.0,7.3226,7.3437,7.3696,7.4091,7.613,7.79,7.9169,8.0029,8.0996,8.2123,8.2445,8.2734,8.3125,8.2812,8.2812,8.3125,8.3398,8.3672,8.3984,8.3984,8.4297,8.4765,8.4219,8.3984,8.3945,8.3359,8.2773,8.2148,8.1484,8.1406,8.164,8.1317,8.091,8.0547,0.0,0.0,0.0,3.1583,3.2852,3.416,3.5315,3.7892,4.0431,4.2393,4.6855,5.0279,5.1433,5.5818,5.8704,5.8704,6.0781,6.1012,5.8473,5.8011,5.6588,5.378,5.4282,5.851,6.6826,7.1571,7.5729,7.9336,8.0156,8.0742,8.1015,8.0469,8.0078,7.9765,7.918,7.8437,7.7578,7.6406,7.3594,6.9883,6.9492,6.4844,5.8006,0.0,0.0,0.0,0.0,0.0,0.0,0.0,0.0,0.0,0.0,0.0,0.0,0.0,0.0,0.0,0.0,0.0,0.0,0.0,0.0,0.0,0.0,0.0,0.0,0.0,0.0,0.0,0.0,0.0,0.0,0.0,0.0,0.0,0.0,6.4309,6.8043,7.1649,7.4229,7.5721,7.5802,7.6823,7.7776,7.8515,8.09,8.2285,8.2285,8.2817,8.3123,8.2997,8.2709,8.289,8.3594,8.3594,8.3906,8.4492,8.5078,8.5508,8.5781,8.5781,8.6094,8.6601,8.6015,8.5781,8.5742,8.5156,8.4726,8.4375,8.3164,8.3086,8.3554,8.3281,8.2812,8.2226,0.0,0.0,3.1698,3.1737,3.3814,3.5545,3.5584,3.8392,4.2085,4.6355,5.0587,5.4511,5.7896,6.055,6.2089,6.2089,6.2166,6.1127,5.8627,5.9204,5.8165,5.4934,5.9952,6.6067,7.3045,7.4925,7.7545,8.1054,8.1875,8.2695,8.3554,8.3515,8.3086,8.2265,8.2226,8.0859,7.8555,7.8555,7.7539,7.5742,7.3203,6.9023,6.3945,0.0,0.0,0.0,0.0,0.0,0.0,0.0,0.0,0.0,0.0,0.0,0.0,0.0,0.0,0.0,0.0,0.0,0.0,0.0,0.0,0.0,0.0,0.0,0.0,0.0,0.0,0.0,0.0,0.0,0.0,0.0,0.0,0.0,6.6144,7.018,7.3195,7.3974,7.8418,8.1073,8.0008,8.1362,8.2016,8.1208,8.19,8.2324,8.2285,8.3503,8.3849,8.3079,8.3465,8.3671,8.3711,8.3672,8.4531,8.625,8.6211,8.664,8.75,8.75,8.7539,8.7578,8.7539,8.7539,8.7578,8.7539,8.6992,8.5859,8.2461,8.1133,8.1211,8.207,8.2383,8.2383,3.0379,3.1121,3.1891,3.2468,3.4199,3.593,3.7123,3.9662,4.2777,4.6432,5.0587,5.428,5.7049,6.0204,6.2089,6.2089,6.3782,6.4012,6.205,6.2127,6.1905,6.1147,6.8116,7.2982,7.4943,7.7958,8.0332,8.1953,8.1562,8.1797,8.2656,8.1992,8.1601,8.1328,8.0703,8.0039,7.9375,7.9375,7.875,7.7656,7.6328,7.3008,6.8789,0.0,0.0,0.0,0.0,0.0,0.0,0.0,0.0,0.0,0.0,0.0,0.0,0.0,0.0,0.0,0.0,0.0,0.0,0.0,0.0,0.0,0.0,0.0,0.0,0.0,0.0,0.0,0.0,0.0,0.0,0.0,6.9115,7.2287,7.2803,7.4538,7.6784,7.9428,8.1666,8.2815,8.2407,8.2747,8.2855,8.2509,8.3233,8.3163,8.1919,8.3368,8.4202,8.415,8.4895,8.5642,8.6406,8.5781,8.6054,8.7148,8.6484,8.664,8.75,8.75,8.8164,8.9297,8.8633,8.8711,8.9258,8.8633,8.75,8.6094,8.5156,8.4375,8.3867,8.4101,8.4179,8.4101,3.1468,3.216,3.2891,3.3353,3.5161,3.6892,3.7853,4.0469,4.4085,4.8933,5.1702,5.4857,5.9165,6.1089,6.2243,6.2551,6.3974,6.4243,6.2897,6.3522,6.5543,6.9038,7.3712,7.673,7.791,8.0289,8.1601,8.1758,8.1601,8.1992,8.2812,8.2344,8.1875,8.1523,8.1015,8.0195,7.9219,7.957,7.9258,7.8476,7.832,7.543,7.1289,7.1562,6.9336,6.5898,6.4774,6.4107,6.3364,6.073,0.0,0.0,0.0,0.0,0.0,0.0,0.0,0.0,0.0,0.0,0.0,0.0,0.0,0.0,0.0,0.0,0.0,0.0,0.0,0.0,0.0,0.0,0.0,0.0,7.3519,7.731,7.8631,7.9034,7.9987,8.2297,8.3406,8.364,8.2703,8.2973,8.2805,8.1954,8.2675,8.2883,8.229,8.3256,8.3907,8.4048,8.4266,8.4857,8.5859,8.6094,8.664,8.75,8.7695,8.8047,8.8554,8.8554,8.9062,8.9961,8.9453,8.9531,8.9961,8.9453,8.8476,8.7187,0.0,0.0,0.0,0.0,8.4883,8.4844,3.2929,3.3583,3.4199,3.4199,3.6315,3.8007,3.8007,4.0893,4.5509,5.2202,5.3126,5.5742,6.2435,6.2589,6.2512,6.3243,6.3474,6.3358,6.2882,6.5003,6.944,7.6591,7.7207,7.8557,8.1093,8.1719,8.1719,8.1133,8.1836,8.2617,8.3476,8.3554,8.3203,8.2461,8.2461,8.1133,7.8984,7.9609,7.9336,7.8555,7.9297,7.6836,7.2812,7.3594,7.1445,6.8047,6.793,6.7383,6.6678,6.6258,0.0,0.0,0.0,0.0,0.0,0.0,0.0,0.0,0.0,0.0,0.0,0.0,0.0,0.0,0.0,0.0,0.0,0.0,0.0,0.0,0.0,0.0,0.0,0.0,7.6245,8.0221,8.3051,8.2853,8.2656,8.3242,8.4101,8.3968,8.2208,8.2674,8.2387,8.0727,8.1441,8.2182,8.2727,8.3111,0.0,0.0,0.0,8.3281,8.4179,8.5703,8.6914,8.7812,8.9179,8.9883,9.0,9.0,9.0039,9.0156,9.0156,9.0195,9.0273,9.0273,8.9844,8.8945,8.707,8.5859,8.5195,8.5195,8.5234,8.5312,3.3199,3.3583,3.4199,3.4199,3.6315,3.8007,3.8007,4.0893,4.5278,5.1356,5.2779,5.5549,6.1666,6.2781,6.3128,6.3281,6.4589,6.5961,6.7345,7.1912,7.5276,7.6846,7.901,8.0769,8.2031,8.0859,8.082,8.2031,8.1523,8.1719,8.2578,8.3281,8.3515,8.3359,8.3359,8.2695,8.1523,8.0976,7.9883,7.8515,7.8672,7.8125,7.7265,7.7422,7.6523,7.5195,7.5195,7.5078,7.457,7.2341,7.0419,6.8596,6.6429,6.4103,0.0,0.0,0.0,0.0,0.0,0.0,0.0,0.0,0.0,0.0,0.0,0.0,0.0,0.0,0.0,0.0,0.0,0.0,0.0,7.5724,8.0273,8.3413,8.2657,8.3001,8.3398,8.3515,8.4297,8.4686,8.4326,8.3815,8.3034,8.2019,8.2722,8.2683,8.1433,8.2779,8.3855,8.4558,8.5815,8.6875,8.7695,8.8047,8.8633,8.9492,8.914,0.0,9.0,9.0,9.039,9.1054,9.1054,9.1445,9.2109,9.2109,9.1992,9.1523,8.8437,8.7148,8.6992,8.6992,8.7422,8.7969,3.4391,3.4545,3.4968,3.5391,3.6853,3.8161,3.8584,4.1162,4.4778,4.9394,5.0779,5.3241,5.8319,5.9242,5.9858,6.0742,6.3638,6.673,6.9962,7.3988,7.7234,7.9493,8.0914,8.164,8.164,8.1211,8.1211,8.164,8.164,8.1875,8.2304,8.3203,8.3359,8.2969,8.2969,8.2226,8.0976,8.0547,7.9648,7.8555,7.8945,7.8867,7.8437,7.8008,7.7851,7.789,7.832,7.8203,7.7773,7.7226,7.6172,7.4882,7.3529,7.0977,6.7741,0.0,0.0,0.0,0.0,0.0,0.0,0.0,0.0,0.0,0.0,0.0,0.0,0.0,0.0,6.9515,7.0831,0.0,7.7334,7.8141,8.1647,8.4101,8.3672,8.3984,8.4258,8.4258,8.4258,8.4258,8.4258,8.3476,8.2578,8.1719,8.2461,8.2773,8.2304,8.3945,8.5117,8.5547,8.6836,8.7695,8.8086,8.8945,8.957,9.0,9.0429,9.0898,9.1289,9.1289,9.1523,9.1953,9.1953,9.2187,9.2617,9.2617,9.2617,9.2422,9.0703,8.9804,8.9414,8.9414,8.9375,8.9336,3.5493,3.5493,3.5738,3.6584,3.743,3.8277,3.9161,4.147,4.4316,4.7663,4.8856,5.0933,5.5011,5.5588,5.6395,5.8165,6.2991,6.7482,7.1108,7.4678,7.8326,8.2148,8.2148,8.1719,8.1015,8.1679,8.1719,8.1015,8.1875,8.2304,8.2304,8.3203,8.3242,8.2539,8.2539,8.1679,8.0195,7.9844,7.9258,7.8555,7.9023,7.8945,7.8398,7.7344,7.7383,7.8086,7.8711,7.8203,7.7617,7.9961,7.9844,7.8867,7.9687,7.6912,7.2705,6.9205,6.518,0.0,0.0,0.0,0.0,0.0,0.0,0.0,0.0,6.75,6.8043,7.1828,7.2718,7.3079,7.3917,7.6622,7.914,8.0508,8.2773,8.4414,8.4609,8.4804,8.4883,8.4883,8.414,8.3594,8.3594,8.2969,8.2265,8.1562,8.2461,8.3359,8.4062,8.5586,8.6523,8.6679,8.7539,8.8086,8.8242,8.9765,9.0508,9.0508,9.1914,9.2617,9.2617,9.2617,9.2617,9.2617,9.2617,9.2617,9.2617,9.2617,9.2617,9.2617,9.2617,9.2187,9.1562,9.1562,9.1094,9.0508,3.5493,3.5493,3.5738,3.6584,3.743,3.8277,3.9161,4.147,4.4316,4.7663,4.8856,5.0741,5.4241,5.528,5.6395,5.8165,6.5288,6.9902,7.0395,7.6705,8.0972,8.2226,8.1562,8.1094,8.1015,8.1094,8.1094,8.1015,8.1875,8.2304,8.2304,8.3203,8.3554,8.3437,8.3437,8.2929,8.1914,8.0351,7.9258,7.8437,7.7773,7.789,7.832,7.668,7.6094,7.6211,7.6289,7.4765,7.3476,7.8242,7.7773,7.5859,7.9648,7.7898,7.3698,6.9967,6.6387,6.2793,5.8932,6.0564,6.3274,6.3102,6.4908,6.792,0.0,7.352,7.4817,7.9903,8.0972,8.1243,8.21,8.324,8.4101,8.4297,8.5859,8.6289,8.4062,8.4414,8.4883,8.4883,8.414,8.3594,8.3594,8.3515,8.3398,8.332,8.4844,8.582,8.5898,8.6836,8.7695,8.8398,8.9258,9.0078,9.0859,9.1836,9.2304,9.2304,9.25,9.2617,9.2617,9.2617,9.2617,9.2617,9.2617,9.2617,9.2617,9.2617,9.2617,9.2617,9.2617,9.2539,9.2461,9.2461,9.2383,9.2304,3.5493,3.5892,3.6469,3.7315,3.7777,3.843,3.9777,4.1316,4.3047,4.4932,4.5932,4.7355,4.9817,5.1702,5.3472,5.5164,6.269,6.8162,7.0161,7.6536,8.0859,8.2226,8.1953,8.1523,8.1015,8.1015,8.1015,8.1015,8.1367,8.1797,8.2304,8.3203,8.332,8.2851,8.2851,8.207,8.0703,7.9492,7.8515,7.7695,7.7344,7.7109,7.6914,7.6172,7.5586,7.5078,7.457,7.3672,0.0,7.6406,7.6523,7.5937,7.9219,7.7987,7.4634,7.0931,6.7793,6.547,6.5418,6.4643,6.5299,7.1174,7.1767,7.2245,7.7187,7.7898,7.8409,8.1639,8.2695,8.3164,8.3515,8.4297,8.5078,8.5586,8.5859,8.5781,8.5195,8.5,8.5078,8.5586,8.5312,8.5312,8.582,8.5859,8.5859,8.5859,8.6992,8.7656,8.7656,8.8945,8.9883,9.0195,9.1054,9.1679,9.2031,9.2422,9.2617,9.2617,9.2617,9.2617,9.2617,9.2617,9.2617,9.2617,9.2617,9.2617,9.2617,9.2617,9.2617,9.2617,9.2617,9.2617,9.2617,9.2617,9.2617,9.2617,3.6199,3.6661,3.7315,3.82,3.8354,3.8854,4.0277,4.1239,4.2124,4.3008,4.3816,4.497,4.6701,4.8971,5.0933,5.2395,5.9395,6.5314,6.9005,7.4896,7.9336,8.1836,8.2187,8.1875,8.1015,8.1015,8.0898,8.0625,8.0898,8.1328,8.1953,8.2812,8.2773,8.1953,8.1953,8.1094,7.9648,7.8828,7.8008,7.7187,7.6953,7.6445,7.5859,7.5625,7.4844,7.3789,7.3164,7.245,7.206,7.3864,7.3942,7.3771,7.6633,7.556,7.2791,7.0351,6.7826,6.6352,6.9007,6.821,6.8546,7.6639,7.7031,7.6328,7.9844,8.0547,8.0781,8.2031,8.3164,8.4023,8.4258,8.5039,8.582,8.6445,8.6211,8.6015,8.6172,8.5859,8.5859,8.6484,8.6953,8.7578,8.8476,8.8125,8.7812,8.7812,8.8828,8.9414,8.9414,9.0859,9.164,9.164,9.2265,9.2617,9.2617,9.2617,9.2617,9.2617,9.2617,9.2617,9.2617,9.2617,9.2617,9.2617,9.2617,9.2617,9.2617,9.2617,9.2617,9.2617,9.2617,9.2617,9.2617,9.2617,9.2617,9.2617,3.793,3.793,3.8238,3.9123,3.9238,3.9546,4.0354,4.1239,4.2124,4.3008,4.3816,4.497,4.6701,4.8432,4.9779,5.0702,5.6403,6.1852,6.6329,7.1616,7.6484,8.0859,8.1836,8.1875,8.1015,8.1015,8.0586,7.9726,8.0586,8.1015,8.1054,8.1914,8.1875,8.1054,8.1054,8.0547,7.9648,7.8828,7.8008,7.7148,7.6289,7.5937,7.582,7.4961,7.3555,7.207,7.2031,7.0328,6.8354,7.0236,6.8986,6.7321,7.0911,6.9553,6.6775,6.736,6.5688,6.4316,6.7031,7.0274,7.3355,7.5486,7.8398,8.0586,7.9883,8.1015,8.2226,8.2304,8.3672,8.5117,8.5976,8.6836,8.7422,8.7461,8.8086,8.8047,8.6406,8.6914,8.7422,8.7461,8.8906,9.0234,9.1094,8.9648,8.8672,8.8672,9.0234,9.1211,9.1211,9.207,9.2578,9.2578,9.2578,9.2617,9.2617,9.2617,9.2617,9.2617,9.2617,9.2617,9.2617,9.2617,9.2617,9.2617,9.2617,9.2617,9.2617,9.2617,9.2617,9.2617,9.2617,9.2617,9.2617,9.2617,9.2617,9.2617,3.8007,3.8469,3.8969,3.9238,3.9738,4.02,4.0469,4.0739,4.1239,4.2124,4.3431,0.0,0.0,0.0,0.0,0.0,5.4419,5.8858,6.2662,6.9036,7.4101,7.7344,8.0039,8.1289,8.1015,8.1015,8.0859,8.0547,8.0859,8.1289,8.1875,8.2148,8.1523,8.0156,8.0156,7.9687,7.8867,7.8008,7.8125,7.8789,7.7969,7.625,7.4219,7.4492,7.2461,6.9336,0.0,6.6712,6.555,6.6799,6.645,6.605,6.903,6.8287,6.6668,6.8058,6.7331,6.7123,7.1703,7.3837,7.5372,7.779,8.0156,8.1797,8.1484,8.2344,8.3008,8.2422,8.414,8.5859,8.6133,8.7812,8.8984,8.8398,8.8515,8.832,8.7226,8.7773,8.8515,8.9101,9.0156,9.1211,9.207,9.164,9.1289,9.1289,9.1836,9.2148,9.2148,9.2422,9.2617,9.2617,9.2617,9.2617,9.2617,9.2617,9.2617,9.2617,9.2617,9.2617,9.2617,9.2617,9.2617,9.2617,9.3203,9.3476,9.3515,9.4101,9.4336,9.4336,9.4336,9.4336,9.4336,9.4336,9.4336,9.414,3.8892,3.9354,3.9738,3.9738,4.0162,0.0,0.0,0.0,0.0,0.0,0.0,0.0,0.0,0.0,0.0,0.0,0.0,5.5596,5.9048,6.4753,6.9309,7.2284,7.5486,7.7215,7.7265,7.7265,7.7265,7.7305,7.8555,7.9453,8.0039,8.1562,8.1523,8.0156,7.9844,7.9414,7.8867,7.8008,7.8281,7.9101,7.7344,7.5312,7.3242,7.2578,7.0195,0.0,6.6015,6.4559,6.3238,6.3839,6.3883,6.4261,6.7145,6.7918,6.8101,6.9847,6.9692,7.0155,7.5514,7.6827,7.7365,8.0342,8.1719,8.2304,8.2304,8.3203,8.3828,8.2929,8.5078,8.6992,8.6719,8.8476,8.9804,8.9258,8.9414,8.9336,8.8515,8.9375,9.0195,9.0429,9.1211,9.1992,9.2539,9.2617,9.2617,9.2617,9.2617,9.2617,9.2617,9.2617,9.2617,9.2617,9.2617,9.2617,9.2617,9.2617,9.2617,9.2617,9.2929,9.3047,9.3086,9.3398,9.3515,9.3554,9.4101,9.4375,9.4414,9.4961,9.5195,9.5195,9.5195,9.5195,9.5195,9.5195,9.5195,9.5039,4.0508,4.0508,4.0508,0.0,0.0,0.0,0.0,0.0,0.0,0.0,0.0,0.0,0.0,0.0,0.0,0.0,0.0,0.0,5.5499,5.8932,6.2451,6.6073,6.8733,7.0199,7.0427,7.0468,7.0547,7.0703,7.4062,7.5703,7.5781,7.9883,8.1328,8.0429,7.9609,7.9258,7.918,7.8398,7.8086,7.7851,7.4531,7.3086,7.2617,6.9375,6.6992,6.539,6.539,6.3721,6.1511,6.152,6.152,6.2182,6.5589,6.8351,7.0691,7.2583,7.2712,7.3291,7.8346,7.9259,7.9531,8.2773,8.3008,8.2422,8.2422,8.3633,8.4531,8.3633,8.6015,8.8008,8.7226,8.8594,8.9804,8.9765,9.0547,9.0898,9.0039,9.1406,9.2187,9.1406,9.207,9.2617,9.2617,9.2617,9.2617,9.2617,9.2617,9.2617,9.2617,9.2617,9.2617,9.2617,9.2617,9.2617,9.2617,9.2656,9.2695,9.2734,9.3554,9.3984,9.3984,9.4804,9.5195,9.5195,9.5234,9.5273,9.5273,9.5312,9.5312,9.5312,9.5312,9.5312,9.5312,9.5312,9.5312,9.5312,0.0,0.0,0.0,0.0,0.0,0.0,0.0,0.0,0.0,0.0,0.0,0.0,0.0,0.0,0.0,0.0,0.0,0.0,5.1857,5.5364,5.8858,6.2336,6.5683,6.8082,6.9334,7.0108,7.0508,7.0547,7.2187,7.3008,7.3008,7.4101,7.414,7.332,7.3086,7.3008,7.293,7.207,7.2461,7.3515,7.1992,7.0234,6.8437,6.7578,6.5351,6.2695,6.2695,6.2253,6.1619,6.1544,6.3071,6.5708,6.9119,7.1077,7.2896,7.6692,7.7653,7.827,8.1636,8.2448,8.25,8.3398,8.3906,8.4258,8.4258,8.3594,8.2734,8.1836,8.1836,8.1914,8.1719,8.4687,8.6953,8.6328,8.7969,8.9297,8.9062,8.9961,9.082,9.125,9.207,9.2617,9.2617,9.2617,9.2617,9.2617,9.2617,9.2617,9.2617,9.2617,9.2617,9.2617,9.2617,9.2617,9.2617,9.3242,9.3906,9.4531,9.4765,9.4883,9.4883,9.5117,9.5195,9.5234,9.5898,9.6172,9.6211,9.6836,9.707,9.707,9.707,9.707,9.707,9.707,9.707,9.707,0.0,0.0,0.0,0.0,0.0,0.0,0.0,0.0,0.0,0.0,0.0,0.0,0.0,0.0,0.0,0.0,0.0,0.0,0.0,5.1953,5.4535,5.6442,5.9549,6.1885,6.3274,6.4245,6.5166,6.5976,6.7734,6.9023,6.9805,7.0898,7.1367,7.125,7.0859,7.0898,7.1211,7.0351,7.0547,0.0,0.0,6.7383,6.5586,6.4101,6.2305,6.0664,6.1015,6.1367,6.2027,6.4247,6.6694,6.9321,7.247,7.4545,7.656,8.0221,8.0479,8.035,8.3782,8.4179,8.3789,8.4531,8.4804,8.4609,8.3437,8.2734,8.1758,7.9726,7.9844,8.0625,8.1758,8.4297,8.664,8.8047,8.914,8.9961,9.0351,9.082,9.1328,9.1797,9.2304,9.2617,9.2617,9.2617,9.2617,9.2617,9.2617,9.2617,9.2617,9.2617,9.2773,9.3164,9.3164,9.3359,9.375,9.4219,9.4726,9.5195,9.5586,9.5781,9.5781,9.6133,9.6289,9.6328,9.6797,9.7031,9.707,9.75,9.7695,9.7695,9.7695,9.7695,9.7695,9.7695,9.7929,9.8281,0.0,0.0,0.0,0.0,0.0,0.0,0.0,0.0,0.0,4.447,4.447,4.4739,0.0,0.0,0.0,0.0,0.0,0.0,0.0,0.0,5.0356,5.0702,5.2818,5.4511,5.5626,5.6566,5.7947,5.9712,6.2225,6.4297,6.5937,6.8125,6.957,7.0273,6.9492,6.9609,7.0234,6.9492,6.918,6.8906,6.5937,6.4297,6.3281,0.0,5.9219,5.9297,6.0117,6.0898,6.2344,6.7695,7.0463,7.2189,7.5404,7.8008,8.0351,8.2851,8.207,8.125,8.5156,8.5117,8.4336,8.5976,8.5703,8.4414,8.1914,8.164,8.1015,7.7695,7.8515,8.0625,8.3359,8.4414,8.625,9.0547,9.0508,9.0429,9.1875,9.1992,9.2148,9.2695,9.2656,9.2617,9.2617,9.2617,9.2617,9.2617,9.2695,9.2773,9.2773,9.2773,9.3164,9.4062,9.4062,9.4492,9.5351,9.5351,9.5429,9.5547,9.6289,9.664,9.6679,9.7383,9.7695,9.7695,9.7695,9.7695,9.7695,9.7695,9.7695,9.7695,9.7695,9.7695,9.7695,9.7812,9.8359,9.9023,0.0,0.0,0.0,0.0,0.0,0.0,0.0,0.0,0.0,0.0,4.5355,4.5432,0.0,0.0,0.0,0.0,0.0,0.0,0.0,0.0,0.0,5.0587,5.1125,5.2125,5.3818,5.4836,5.5902,5.7039,5.8376,5.9531,6.0547,6.0976,6.1289,6.1406,6.125,6.1289,6.1406,6.125,6.1172,6.1133,6.0547,6.0234,6.0039,5.9414,0.0,0.0,6.0117,6.0508,6.1523,6.75,7.0113,7.1858,7.7304,7.9844,8.1133,8.3047,8.3789,8.4336,8.5781,8.5976,8.5976,8.7031,8.6601,8.5469,8.3594,8.1601,7.9375,7.668,7.4765,7.457,7.793,7.8086,7.9101,8.3398,8.3359,8.4336,8.875,8.8789,8.9687,9.3242,9.3047,9.2617,9.2617,9.2617,9.2617,9.2617,9.3281,9.3672,9.3672,9.3672,9.4062,9.4961,9.4961,9.539,9.6289,9.6289,9.6601,9.7265,9.7422,9.75,9.75,9.7656,9.7695,9.7695,9.7695,9.7695,9.7695,9.7695,9.7695,9.7695,9.7695,9.7695,9.7773,9.8515,9.8867,9.9101,0.0,0.0,0.0,0.0,0.0,0.0,0.0,4.5316,4.5586,4.5586,4.5586,4.5586,4.5586,4.5586,4.5586,0.0,0.0,0.0,0.0,0.0,0.0,4.8663,4.9125,5.0202,5.2049,5.2636,5.3834,5.5703,0.0,5.6562,5.7851,5.7383,5.7656,5.8515,5.8047,5.8086,5.8476,5.8047,5.7578,5.7187,5.7187,5.6914,5.6523,5.6992,0.0,0.0,5.9453,6.0039,6.1133,6.5859,6.7734,6.9414,7.7226,8.0312,8.1094,8.1445,8.2812,8.4219,8.4179,8.5156,8.6406,8.7265,8.7187,8.5937,8.2383,8.0234,7.789,7.3984,7.1836,7.1836,7.5781,7.6172,7.7461,8.2226,8.3398,8.5039,8.8828,8.9844,9.1094,9.3594,9.3515,9.3086,9.2656,9.2617,9.2773,9.3242,9.3672,9.3906,9.3906,9.4765,9.5429,9.5859,9.6289,9.6719,9.7109,9.7109,9.7304,9.7695,9.7695,9.7695,9.7695,9.7695,9.7695,9.7695,9.7695,9.7695,9.7695,9.7695,9.7695,9.7734,9.8203,9.8398,9.8476,9.9375,9.9961,10.039,0.0,0.0,0.0,0.0,0.0,0.0,4.547,4.5586,4.5586,4.5586,4.5586,4.5586,4.5586,4.5586,4.5586,0.0,0.0,0.0,0.0,0.0,0.0,0.0,4.7509,4.8625,5.0375,0.0,0.0,5.4293,5.3928,0.0,0.0,0.0,0.0,0.0,5.6367,5.6406,5.7031,5.6328,5.5664,0.0,0.0,5.4609,5.4101,0.0,0.0,0.0,0.0,5.9609,6.0703,6.4375,6.5586,6.707,7.543,7.8515,7.914,7.957,8.1133,8.2812,8.3086,8.4648,8.6406,8.7265,8.7617,8.6289,8.0703,7.9062,7.7109,7.1562,6.9883,7.0664,7.4844,7.5156,7.6406,8.1406,8.3047,8.5,8.8672,9.0351,9.1953,9.3945,9.4023,9.3554,9.2695,9.2617,9.2969,9.3828,9.4258,9.4453,9.4453,9.5937,9.6758,9.6758,9.7383,9.7695,9.7695,9.7695,9.7695,9.7695,9.7695,9.7695,9.7695,9.7695,9.7695,9.7695,9.7695,9.7695,9.7695,9.7695,9.7812,9.8047,9.8711,9.9101,9.9375,10.0312,10.1015,10.1601,0.0,0.0,0.0,0.0,0.0,0.0,4.547,4.5586,4.5586,4.5586,4.5586,4.5586,4.5586,4.5586,4.5586,0.0,0.0,0.0,0.0,0.0,0.0,0.0,0.0,0.0,0.0,0.0,0.0,5.175,5.246,0.0,0.0,0.0,0.0,0.0,0.0,5.4297,5.4336,5.4258,0.0,0.0,0.0,0.0,0.0,0.0,0.0,0.0,0.0,5.9258,5.9961,6.418,6.5586,6.6445,7.1211,7.2773,7.3711,7.8359,7.9883,8.0898,8.4804,8.6015,8.6406,8.7265,8.8047,8.6836,8.0156,7.9101,7.7695,7.0976,6.9492,7.0508,7.4062,7.2773,7.2617,7.707,7.6601,7.8203,8.5508,8.6679,8.8867,9.4414,9.4375,9.3554,9.2695,9.2617,9.2969,9.3828,9.5351,9.625,9.625,9.7109,9.7578,9.7578,9.7656,9.7695,9.7695,9.7695,9.7695,9.7695,9.7695,9.7695,9.7695,9.7695,9.7695,9.7695,9.7695,9.7695,9.7695,9.7695,9.8164,9.8906,9.8984,9.9492,10.0312,10.1211,10.1484,10.1719,0.0,0.0,0.0,0.0,0.0,0.0,4.5547,4.5586,4.5586,4.5586,4.5586,4.5586,4.5586,4.5586,4.5586,4.5586,0.0,0.0,0.0,0.0,0.0,0.0,0.0,0.0,0.0,0.0,4.9568,5.0664,5.1523,0.0,0.0,0.0,0.0,0.0,0.0,5.2734,5.3164,5.2656,0.0,0.0,0.0,0.0,0.0,0.0,0.0,0.0,0.0,0.0,5.9531,6.1719,6.2812,6.3633,6.5898,6.6953,6.8281,7.293,7.7226,8.039,8.0078,8.3437,8.6953,8.6758,8.7344,8.6328,7.9961,7.8359,7.6406,7.0039,6.8281,6.8476,7.039,7.0312,7.0898,7.3633,7.5703,7.9297,8.6054,8.8281,9.0937,9.5469,9.5195,9.3711,9.1289,9.2461,9.3945,9.5351,9.6562,9.7226,9.7226,9.7539,9.7695,9.7695,9.7695,9.7695,9.7695,9.7695,9.7695,9.7695,9.7695,9.7695,9.7695,9.7695,9.7695,9.7734,9.8242,9.8476,9.8515,9.9062,9.9453,9.9844,10.039,10.0781,10.1211,10.2109,10.2383,10.2383,0.0,0.0,0.0,0.0,0.0,4.5586,4.5586,4.5586,4.5586,4.5586,4.5586,4.5586,4.5586,4.5586,4.5586,4.5586,4.5586,0.0,0.0,0.0,0.0,0.0,0.0,0.0,0.0,0.0,4.9067,5.0195,5.1016,5.1406,0.0,0.0,5.1719,5.2305,0.0,0.0,0.0,0.0,0.0,0.0,0.0,0.0,0.0,0.0,0.0,0.0,0.0,0.0,0.0,0.0,0.0,6.1523,6.2656,6.3437,6.4765,6.9062,7.3945,7.7851,7.75,8.1406,8.5742,8.6406,8.6445,8.4883,7.9375,7.7031,7.4492,6.8945,6.7344,6.7109,6.7695,6.8711,6.9844,7.1055,7.4687,7.9531,8.5859,8.8711,9.1445,9.4922,9.4804,9.3242,9.0273,9.2617,9.4883,9.6406,9.7265,9.7695,9.7695,9.7695,9.7695,9.7695,9.7695,9.7695,9.7695,9.7695,9.7695,9.7695,9.7695,9.7695,9.7695,9.7695,9.7695,9.7734,9.8633,9.8984,9.9062,9.9922,10.0508,10.0703,10.1406,10.1797,10.2109,10.2695,10.289,10.289,0.0,0.0,0.0,0.0,0.0,0.0,4.5586,4.5586,4.5586,4.5586,4.5586,4.5586,4.5586,4.5586,4.5586,4.5586,4.5586,0.0,0.0,0.0,0.0,0.0,0.0,0.0,0.0,0.0,4.9067,5.0195,5.1016,5.1406,5.1406,5.1406,5.1406,5.1406,0.0,0.0,0.0,0.0,0.0,0.0,0.0,0.0,5.1523,0.0,0.0,0.0,0.0,0.0,0.0,0.0,0.0,0.0,0.0,6.3008,6.3867,6.8164,7.0078,7.2305,7.9101,8.1015,8.2109,8.6406,8.5547,8.25,7.8203,7.5195,7.2109,6.7812,6.6914,6.6914,6.6914,6.8281,6.9414,6.9492,7.2383,7.7031,8.3945,8.6445,8.8828,9.2226,9.2617,9.1953,9.0156,9.3164,9.5547,9.6445,9.7265,9.7695,9.7695,9.7695,9.7695,9.7695,9.7695,9.7695,9.7695,9.7695,9.7695,9.7695,9.7695,9.7695,9.7695,9.7695,9.7695,9.7734,9.8633,9.8984,9.9062,9.9922,10.0781,10.1601,10.1601,10.2109,10.289,10.289,10.289,10.289,0.0,0.0,0.0,0.0,0.0,0.0,4.5586,4.5586,4.5586,4.5586,4.5586,4.5586,4.5586,4.5586,4.5586,4.5586,4.5586,0.0,0.0,0.0,0.0,0.0,0.0,0.0,0.0,4.806,4.9067,5.0195,5.1016,5.1406,5.1406,5.1406,5.1406,5.1406,5.1406,5.1406,0.0,0.0,0.0,0.0,0.0,5.1406,5.1484,0.0,0.0,0.0,0.0,0.0,0.0,0.0,0.0,0.0,0.0,0.0,0.0,6.4648,6.7734,7.1172,7.3359,7.6133,7.8594,7.9375,7.9414,7.8242,7.4492,7.3008,7.1367,6.7656,6.6914,6.6914,6.6914,6.8281,6.9414,6.9492,7.2383,7.7226,8.4726,8.6797,8.9414,9.4648,9.2656,9.1523,9.3398,9.3476,9.4492,9.7109,9.7578,9.7695,9.7695,9.7695,9.7695,9.7695,9.7695,9.7695,9.7695,9.8281,9.8281,9.7695,9.8906,9.914,9.8594,9.9219,9.9492,9.9531,10.039,10.0781,10.0781,10.1719,10.2187,10.25,10.25,10.2695,10.289,10.289,10.289,10.289,0.0,0.0,0.0,0.0,0.0,0.0,4.5586,4.5586,4.5586,4.5586,4.5586,4.5586,4.5586,4.5586,4.5586,4.5586,4.5586,0.0,0.0,0.0,0.0,0.0,0.0,0.0,4.7658,4.8526,4.9535,5.0664,5.1133,5.1406,5.1406,5.1406,5.1406,5.1406,5.1406,5.1406,0.0,0.0,0.0,0.0,5.1055,5.1133,5.1445,0.0,0.0,0.0,0.0,0.0,0.0,0.0,0.0,0.0,0.0,0.0,0.0,0.0,6.5273,6.8203,7.0156,7.293,7.543,7.6211,7.582,7.4687,7.25,7.1015,6.9453,6.7344,6.6914,6.6914,6.6914,6.8281,6.9961,7.164,7.3437,7.7422,8.5547,8.6328,8.789,9.2969,9.1758,9.1484,9.3984,9.414,9.5078,9.7539,9.7695,9.7695,9.7695,9.7695,9.7695,9.7695,9.7695,9.7695,9.7695,9.8242,9.8242,9.7734,9.914,9.9531,9.9023,9.9883,10.0312,10.0312,10.1211,10.1601,0.0,10.25,10.289,10.289,10.289,10.289,10.289,10.289,10.289,10.289,0.0,0.0,0.0,0.0,0.0,0.0,0.0,4.5586,4.5586,4.5586,4.5586,4.5586,4.5586,4.5586,4.5586,4.5586,4.5586,0.0,0.0,0.0,0.0,0.0,0.0,0.0,4.8484,4.9392,5.0438,5.1484,5.1562,5.1562,5.1562,5.1562,5.1562,5.1562,5.1523,5.1445,5.1367,5.0586,5.0703,5.1328,5.0586,5.0742,0.0,0.0,0.0,0.0,0.0,0.0,0.0,0.0,0.0,0.0,0.0,0.0,0.0,0.0,0.0,0.0,0.0,7.082,7.2305,7.5586,7.3984,7.164,7.164,6.918,0.0,6.6914,6.6914,6.6914,6.6992,6.8515,7.1055,7.4961,7.5312,7.789,8.5976,8.539,8.5351,8.8672,9.0508,9.1875,9.2851,9.5117,9.6836,9.7656,9.7695,9.7695,9.7695,9.7695,9.7695,9.7695,9.7695,9.7695,9.7695,9.7773,9.7773,9.7812,9.875,9.9179,9.9219,10.0117,10.0508,10.0508,10.1289,10.1719,10.1797,10.2617,10.289,10.289,10.289,10.289,10.289,10.289,10.289,10.289,0.0,0.0,0.0,0.0,0.0,0.0,0.0,0.0,0.0,0.0,4.5586,4.5586,4.5586,4.5586,4.5586,0.0,0.0,0.0,0.0,0.0,0.0,0.0,0.0,0.0,4.8469,5.0013,5.1336,5.2383,5.3047,5.3398,5.3398,5.3398,5.3398,5.3359,5.2695,5.2031,5.1406,5.1211,5.1211,5.1367,5.1172,5.1211,0.0,0.0,0.0,0.0,5.3672,5.457,0.0,0.0,0.0,0.0,0.0,0.0,0.0,0.0,6.2461,6.3242,6.4492,0.0,6.7305,6.8125,6.8203,6.8086,0.0,6.7461,6.6914,6.6914,6.6914,6.7109,6.7773,7.0898,7.3281,7.2969,7.6601,8.0429,8.3125,8.6953,9.0273,9.2422,9.3047,9.414,9.6289,9.6484,9.6836,9.7656,9.7695,9.7695,9.7695,9.7695,9.7695,9.7695,9.7695,9.7695,9.7695,9.8359,9.8672,9.8711,10.0312,10.1015,10.1015,10.1914,10.2304,10.2304,10.25,10.2617,10.2617,10.2812,10.289,10.289,10.289,10.289,10.289,10.289,10.289,10.289,0.0,0.0,0.0,0.0,0.0,0.0,0.0,0.0,0.0,0.0,4.5586,4.5586,4.5586,4.5586,4.5586,0.0,0.0,0.0,0.0,0.0,0.0,0.0,0.0,4.8143,4.9663,5.0972,5.2188,5.3281,5.3789,5.3984,5.3984,5.3984,5.3984,5.3945,5.3086,5.2226,5.1367,5.1016,5.1055,5.1367,5.1016,0.0,0.0,0.0,0.0,0.0,5.3086,5.3945,0.0,5.5703,5.6836,5.7969,0.0,0.0,0.0,0.0,6.1719,6.2383,6.2383,6.3672,6.5117,6.5508,6.5937,6.6406,6.6797,6.6914,6.6992,6.7422,6.75,6.7734,6.8594,7.1289,7.4258,7.6914,7.9375,8.2148,8.539,9.0039,9.3281,9.3828,9.4922,9.6054,9.7031,9.7109,9.7226,9.7656,9.7695,9.7695,9.7695,9.7695,9.7695,9.7695,9.7695,9.7695,9.7695,9.8164,9.8398,9.8437,10.0195,10.1015,10.1015,10.2304,10.289,10.289,10.289,10.289,10.289,10.289,10.289,10.289,10.289,10.289,10.289,10.289,10.289,10.289,0.0,0.0,0.0,0.0,0.0,0.0,0.0,0.0,0.0,0.0,0.0,0.0,0.0,0.0,0.0,0.0,0.0,0.0,0.0,0.0,0.0,0.0,4.774,4.9028,5.1048,5.2007,5.3078,5.4219,5.4336,5.4414,5.4414,5.4414,5.4336,5.4141,5.3281,5.2422,5.1562,5.0742,5.0781,5.1328,5.0664,0.0,0.0,0.0,0.0,0.0,0.0,0.0,0.0,5.4961,5.6289,5.7539,5.7812,0.0,0.0,0.0,0.0,0.0,6.1719,6.289,6.4453,6.582,6.5898,6.5976,6.7344,6.7383,6.7305,6.8047,6.8711,6.9414,7.0234,7.2578,7.6484,8.2969,8.3086,8.414,8.9297,9.2773,9.4648,9.414,9.6133,9.7344,9.6914,9.7383,9.7695,9.7695,9.7695,9.7695,9.7695,9.7695,9.7695,9.7695,9.7695,9.7695,9.7695,9.7695,9.7812,9.8125,9.9609,10.039,10.0703,10.2187,10.289,10.289,10.289,10.289,10.289,10.289,10.289,10.289,10.289,10.289,10.289,10.289,10.289,10.289,0.0,0.0,0.0,0.0,0.0,0.0,0.0,0.0,0.0,0.0,0.0,0.0,0.0,0.0,0.0,0.0,0.0,0.0,0.0,0.0,0.0,4.7855,4.8048,4.9028,5.1048,5.2602,5.3975,5.5117,5.5859,5.6211,5.6211,5.6211,5.582,5.5078,5.418,5.332,5.2422,5.1562,5.1289,5.1406,5.1289,0.0,0.0,0.0,0.0,0.0,0.0,0.0,0.0,5.4765,5.5469,5.5976,5.7422,0.0,0.0,0.0,0.0,0.0,6.1719,6.2422,6.4101,6.789,6.7187,6.6601,7.0351,6.9531,6.8047,6.8164,7.1094,7.3867,7.4726,8.0508,8.5273,8.5742,8.7383,8.8945,8.9883,9.1719,9.3515,9.4844,9.6015,9.7187,9.8476,9.8047,9.7695,9.7695,9.7695,9.7695,9.7695,9.7695,9.7695,9.7695,9.7695,9.7695,9.7695,9.7695,9.8437,9.9883,10.0195,10.1094,10.25,10.2812,10.289,10.289,10.289,10.289,10.289,10.289,10.289,10.289,10.289,10.289,10.289,10.289,10.289,10.289,0.0,0.0,0.0,0.0,0.0,0.0,0.0,0.0,0.0,0.0,0.0,0.0,0.0,0.0,0.0,0.0,0.0,0.0,0.0,0.0,4.6355,4.8048,4.8086,4.9452,5.2396,5.3223,5.4411,5.6015,5.6406,5.6601,5.6601,5.6601,5.6133,5.5273,5.4375,5.3516,5.2656,5.1758,5.1406,5.1406,0.0,0.0,0.0,0.0,0.0,0.0,0.0,0.0,0.0,0.0,5.4922,5.5508,5.6797,0.0,0.0,0.0,0.0,0.0,6.1719,6.2344,6.4492,7.0664,7.0625,6.9687,7.2148,7.3594,7.3633,7.082,7.332,7.6289,7.7148,8.0976,8.5234,8.9023,9.2578,9.4844,9.4844,9.5547,9.6367,9.7148,9.7187,9.7461,9.8203,9.7929,9.7695,9.7695,9.7695,9.7695,9.7695,9.7695,9.7695,9.7695,9.7695,9.7695,9.7695,9.8164,9.8789,9.9609,10.0586,10.1406,10.2187,10.2695,10.289,10.289,10.289,10.289,10.289,10.289,10.289,10.289,10.289,10.289,10.289,10.289,10.289,10.289,0.0,0.0,0.0,0.0,0.0,0.0,0.0,0.0,0.0,0.0,0.0,0.0,0.0,0.0,0.0,0.0,0.0,0.0,0.0,4.5586,4.6355,4.8048,4.8125,4.9855,5.3533,5.3612,5.4606,5.6601,5.6601,5.6601,5.6601,5.6601,5.625,5.5586,5.4687,5.3828,5.2969,5.207,5.1601,5.1406,0.0,0.0,0.0,0.0,0.0,0.0,0.0,0.0,0.0,0.0,0.0,0.0,0.0,0.0,0.0,5.9219,6.1094,6.3047,6.2226,6.3359,6.6289,7.2461,7.3008,7.2656,7.5156,7.8086,7.918,7.5234,7.7344,8.0234,8.1289,8.3047,8.6211,9.1953,9.582,9.8164,9.8398,9.8594,9.8633,9.8437,9.8008,9.7695,9.7695,9.7695,9.7695,9.7695,9.7695,9.7695,9.7695,9.7695,9.7695,9.7695,9.7695,9.7695,9.7695,9.8789,9.9297,9.9336,10.0898,10.1719,10.1914,10.2617,10.289,10.289,10.289,10.289,10.289,10.289,10.289,10.289,10.289,10.289,10.289,10.289,10.289,10.289,0.0,0.0,0.0,0.0,0.0,0.0,0.0,0.0,0.0,0.0,0.0,0.0,0.0,0.0,0.0,0.0,0.0,0.0,0.0,4.5586,4.6355,4.8048,4.822,4.9951,5.3533,5.3612,5.4606,5.6601,5.6601,5.6601,5.6601,5.6601,5.6562,5.6484,5.5586,5.4726,5.3867,5.2969,5.2148,5.1406,5.1406,0.0,0.0,0.0,0.0,0.0,0.0,0.0,0.0,0.0,0.0,0.0,0.0,0.0,5.9219,5.9219,6.3242,6.7031,6.3789,6.6445,7.0469,7.1836,7.2109,7.3906,8.1211,8.2461,8.1992,8.164,8.4922,8.8398,9.0078,9.2461,9.4101,9.3867,9.4726,9.5742,9.6562,9.7304,9.7539,9.6758,9.7265,9.7695,9.7695,9.7695,9.7695,9.7695,9.7695,9.7695,9.7695,9.7695,9.7695,9.7695,9.7695,9.7695,9.7695,9.9375,10.0195,10.0195,10.1211,10.1992,10.2812,10.289,10.289,10.289,10.289,10.289,10.289,10.289,10.289,10.289,10.289,10.289,10.289,10.289,10.289,10.289,0.0,0.0,0.0,0.0,0.0,0.0,0.0,0.0,0.0,0.0,0.0,0.0,0.0,0.0,0.0,0.0,0.0,0.0,0.0,4.5586,4.6355,4.8048,4.822,4.9688,5.2718,5.3383,5.4391,5.5781,5.6328,5.6601,5.6601,5.6601,5.6601,5.6562,5.5703,5.4805,5.3945,5.3086,5.2187,5.1406,5.1406,5.1406,0.0,0.0,0.0,0.0,0.0,0.0,0.0,0.0,5.3281,5.4141,5.5039,5.7109,5.9219,5.9219,6.1562,6.3984,6.3203,6.6406,7.0781,7.4336,7.6406,7.8515,8.1992,8.6719,8.9414,8.6211,8.8086,9.0664,9.1875,9.2929,9.4179,9.5976,9.5195,9.4883,9.6289,9.6758,9.6836,9.6523,9.6758,9.7148,9.7656,9.7695,9.7695,9.7695,9.7695,9.7695,9.7695,9.7695,9.7695,9.7695,9.8242,9.8515,9.8515,10.0195,10.1094,10.1094,10.1992,10.2617,10.289,10.289,10.289,10.289,10.289,10.289,10.289,10.289,10.289,10.289,10.289,10.289,10.289,10.289,10.289,10.289,0.0,0.0,0.0,0.0,0.0,0.0,0.0,0.0,0.0,0.0,0.0,0.0,0.0,0.0,0.0,0.0,0.0,0.0,4.5586,4.5586,4.6355,4.8048,4.8259,4.9482,5.1872,5.3204,5.4324,5.5312,5.6172,5.6601,5.6601,5.6601,5.6601,5.6562,5.5976,5.5234,5.4336,5.3476,5.2617,5.1797,5.1523,5.1406,0.0,0.0,0.0,0.0,0.0,0.0,0.0,0.0,5.3047,5.4101,5.4687,5.6875,5.9219,5.9219,6.1367,6.3711,6.3476,6.7578,7.2656,7.5625,7.9922,8.3672,8.4531,8.8672,9.164,8.9219,9.1367,9.3515,9.2734,9.3047,9.4101,9.6172,9.4804,9.4179,9.6211,9.6484,9.6484,9.6484,9.6719,9.7109,9.7656,9.7695,9.7695,9.7695,9.7695,9.7695,9.7695,9.7695,9.7695,9.7695,9.8554,9.8984,9.8984,10.0703,10.1601,10.1601,10.25,10.289,10.289,10.289,10.289,10.289,10.289,10.289,10.289,10.289,10.289,10.289,10.289,10.289,10.289,10.289,10.289,10.289,0.0,0.0,0.0,0.0,0.0,0.0,0.0,0.0,0.0,0.0,0.0,0.0,0.0,0.0,0.0,0.0,0.0,0.0,4.5586,4.5586,4.6355,4.8009,4.8355,4.9312,5.1045,5.3011,5.444,5.5312,5.6172,5.6601,5.6601,5.6601,5.6601,5.6601,5.6601,5.6133,5.5234,5.4375,5.3516,5.2617,5.1758,5.1406,5.1406,0.0,0.0,0.0,0.0,0.0,0.0,0.0,5.2578,5.3984,5.3984,5.6406,5.9219,5.9258,6.3515,6.7656,6.5117,7.0703,7.6836,7.5117,8.1758,8.8945,8.9804,8.8086,8.7226,9.0586,9.539,9.7695,9.3398,9.4023,9.4922,9.4062,9.3203,9.3515,9.6133,9.6523,9.6523,9.6484,9.7226,9.7695,9.7695,9.7695,9.7695,9.7695,9.7695,9.7695,9.7695,9.7695,9.7695,9.7695,9.8554,9.8984,9.9023,10.0703,10.1601,10.1601,10.25,10.289,10.289,10.289,10.289,10.289,10.289,10.289,10.289,10.289,10.289,10.289,10.289,10.289,10.289,10.289,10.289,10.289,0.0,0.0,0.0,0.0,0.0,0.0,0.0,0.0,0.0,0.0,0.0,0.0,0.0,0.0,0.0,0.0,0.0,0.0,4.5586,4.5586,4.6124,4.7278,4.8086,4.9083,5.0284,5.2748,5.4736,5.6211,5.6484,5.6601,5.6601,5.6601,5.6601,5.6601,5.6601,5.6133,5.5234,5.4375,5.3516,5.2617,5.1758,5.1406,5.1406,0.0,0.0,0.0,0.0,0.0,0.0,0.0,0.0,0.0,5.3984,5.6406,5.9805,6.2812,6.5859,6.8828,7.168,7.6523,8.0976,8.1679,8.5312,8.8945,8.9804,9.0859,9.1367,9.0547,9.4961,9.789,9.4179,9.3945,9.4804,9.6328,9.4844,9.4219,9.6211,9.6992,9.7148,9.6562,9.7226,9.7695,9.7695,9.7695,9.7695,9.7695,9.7695,9.7695,9.7695,9.7695,9.7695,9.7695,9.8554,9.9297,9.9922,10.1015,10.1914,10.25,10.2812,10.289,10.289,10.289,10.289,10.289,10.289,10.289,10.289,10.289,10.289,10.289,10.289,10.289,10.289,10.289,10.289,10.289,0.0,0.0,0.0,0.0,0.0,0.0,0.0,0.0,0.0,0.0,4.5586,4.5586,0.0,0.0,0.0,0.0,0.0,0.0,4.5586,4.5586,4.6009,4.6971,4.7603,4.8773,5.053,5.2468,5.4336,5.6094,5.6445,5.6601,5.6601,5.6601,5.6601,5.6601,5.6601,5.6328,5.5742,5.4531,5.3711,5.3125,5.1875,5.1406,5.1406,0.0,0.0,0.0,0.0,0.0,0.0,0.0,0.0,0.0,5.3906,5.7344,6.1484,6.2695,6.6719,7.1172,7.3281,7.8242,8.3242,8.4961,8.8359,9.1328,9.1523,9.25,9.2929,9.1367,9.5,9.7851,9.5781,9.539,9.5898,9.7461,9.6406,9.5781,9.6836,9.7383,9.7539,9.7031,9.7383,9.7695,9.7695,9.7695,9.7695,9.7695,9.7695,9.7695,9.7695,9.8047,9.8203,9.8203,9.9414,10.0312,10.0781,10.1719,10.2383,10.289,10.289,10.289,10.289,10.289,10.289,10.289,10.289,10.289,10.289,10.289,10.289,10.289,10.289,10.289,10.289,10.289,10.289,10.289,0.0,0.0,0.0,0.0,0.0,0.0,0.0,0.0,0.0,4.5586,4.5586,4.5586,0.0,0.0,0.0,4.5586,4.5586,4.5586,4.5586,4.5586,4.6009,4.6855,4.7129,4.8488,5.1211,5.2148,5.3398,5.5078,5.6015,5.6523,5.6601,5.6601,5.6601,5.6601,5.6601,5.6601,5.6484,5.4805,5.4101,5.3984,5.2226,5.1523,5.1523,5.1445,0.0,0.0,0.0,0.0,0.0,0.0,0.0,0.0,5.3711,5.8476,6.3203,6.0547,6.6523,7.3672,7.207,7.75,8.4062,8.6054,9.0859,9.4922,9.4297,9.3515,9.2851,9.2461,9.5195,9.7617,9.7383,9.7539,9.7734,9.7812,9.7734,9.7773,9.789,9.7812,9.7734,9.7812,9.7812,9.7773,9.7695,9.7773,9.7773,9.7695,9.7773,9.7812,9.7812,9.8633,9.9101,9.9101,10.0703,10.1484,10.1601,10.2383,10.2812,10.289,10.289,10.289,10.289,10.289,10.289,10.289,10.289,10.289,10.289,10.289,10.289,10.289,10.289,10.289,10.289,10.289,10.289,10.289,0.0,0.0,0.0,0.0,0.0,0.0,0.0,0.0,4.5586,4.5586,4.5586,4.5586,4.5586,4.568,0.0,4.5586,4.5719,4.5719,4.5586,4.5719,4.5873,4.6142,4.7026,4.8433,5.043,5.125,5.2187,5.3242,5.4805,5.5937,5.6601,5.6601,5.6601,5.6601,5.6601,5.6601,5.6523,5.5469,5.5039,5.4883,5.3125,5.2422,5.2344,5.1641,5.1406,0.0,0.0,0.0,0.0,0.0,0.0,0.0,5.3711,5.6445,5.9922,6.3242,6.6758,7.0937,7.7109,8.1133,8.4492,8.8242,9.1719,9.4492,9.5664,9.5781,9.4687,9.125,9.4375,9.7109,9.5078,9.6367,9.7929,9.8594,9.8164,9.8164,9.9531,9.8554,9.7969,9.8633,9.8711,9.8437,9.7773,9.832,9.8437,9.7734,9.832,9.8711,9.8711,9.9531,10.0,10.0,10.039,10.0898,10.1601,10.1797,10.2187,10.289,10.289,10.289,10.289,10.289,10.289,10.289,10.289,10.289,10.289,10.289,10.289,10.289,10.289,10.289,10.289,10.289,10.289,10.289,0.0,0.0,0.0,0.0,0.0,0.0,0.0,0.0,4.568,4.5586,4.5663,4.568,4.5586,4.5719,0.0,0.0,4.5796,4.5834,4.5757,4.5796,4.5911,4.5988,4.7021,4.8047,4.8945,5.0195,5.125,5.207,5.3398,5.4726,5.5976,5.6406,5.6601,5.6601,5.6601,5.6601,5.6523,5.5664,5.5312,5.5195,5.3867,5.332,5.3281,5.2812,5.2656,5.2656,5.2656,0.0,0.0,0.0,0.0,0.0,0.0,0.0,6.1172,6.2226,6.668,7.2344,7.7226,8.0703,8.4297,8.9844,9.2265,9.3828,9.6015,9.6172,9.5469,9.3984,9.582,9.7304,9.5976,9.6797,9.8008,9.8867,9.8633,9.8633,9.9531,9.8906,9.8359,9.8359,9.8398,9.8203,9.7734,9.8125,9.8359,9.832,9.875,9.9179,9.9609,10.039,10.0898,10.0898,10.1289,10.1797,10.2187,10.2187,10.25,10.289,10.289,10.289,10.289,10.289,10.289,10.289,10.289,10.289,10.289,10.289,10.289,10.289,10.289,10.289,10.289,10.289,10.289,10.289,0.0,0.0,0.0,0.0,0.0,0.0,0.0,0.0,0.0,4.5586,4.5719,4.5757,4.5624,4.5757,4.583,0.0,0.0,0.0,4.5912,4.5907,4.5979,4.6119,4.6933,4.7461,4.7617,4.9023,5.0234,5.1172,5.2031,5.3281,5.4883,5.5898,5.6367,5.6367,5.6523,5.6601,5.6562,5.582,5.5508,5.5469,5.457,5.4219,5.4219,5.4062,5.3984,5.3984,5.3984,5.3984,5.3906,5.3164,0.0,0.0,0.0,0.0,6.2656,6.0,6.5469,7.2695,7.418,7.8476,8.414,9.0898,9.2617,9.3281,9.5898,9.582,9.5664,9.7344,9.7695,9.7695,9.7695,9.7695,9.8047,9.9062,9.8984,9.8945,9.9375,9.9062,9.8554,9.8008,9.7929,9.7929,9.7929,9.8047,9.8437,9.9179,9.9375,9.9765,10.0508,10.1406,10.1797,10.1797,10.25,10.289,10.289,10.289,10.289,10.289,10.289,10.289,10.289,10.289,10.289,10.289,10.289,10.289,10.289,10.289,10.289,10.289,10.289,10.289,10.289,10.2695,10.2695,10.2695,0.0,0.0,0.0,0.0,0.0,0.0,0.0,0.0,0.0,0.0,4.5719,4.5796,4.5796,4.595,4.602,4.589,4.5988,4.6027,4.5911,0.0,0.0,4.627,4.6404,4.6836,4.7578,4.7812,4.875,5.0351,5.1172,5.207,5.3086,5.4726,5.5469,5.5508,5.625,5.6601,5.6601,5.6484,5.6445,5.6367,5.5469,5.5117,5.5039,5.4297,5.3984,5.3984,5.3984,5.3984,5.3984,5.3867,5.3906,0.0,0.0,0.0,5.8828,5.9101,6.1211,6.4258,6.8164,7.6172,8.4883,9.1054,9.2617,9.3281,9.5898,9.582,9.5664,9.7344,9.7695,9.7695,9.7695,9.7695,9.8242,9.9844,9.8867,9.8672,10.0898,9.9297,9.8125,9.875,9.8828,9.8828,9.8828,9.9492,10.0,10.0117,10.0781,10.1289,10.1406,10.2304,10.2695,10.2695,10.2812,10.289,10.289,10.289,10.289,10.289,10.289,10.289,10.289,10.289,10.289,10.289,10.289,10.289,10.289,10.289,10.289,10.289,10.289,10.289,10.2812,10.2109,10.1797,10.1719,0.0,0.0,0.0,0.0,0.0,0.0,0.0,0.0,0.0,0.0,0.0,4.5935,4.5867,4.602,4.6073,4.6007,4.6115,4.6179,4.614,4.6164,4.6226,4.6289,4.6289,4.6484,4.6875,4.7344,4.8203,4.9453,5.0312,5.1133,5.1992,5.3242,5.4375,5.5312,5.5703,5.6133,5.664,5.7109,5.7344,5.7344,5.7422,5.75,5.7422,5.707,5.6914,5.6914,5.6914,5.6914,5.6758,5.5781,5.5781,5.6094,5.5508,0.0,0.0,0.0,6.039,6.2773,6.7617,7.6094,8.4336,8.75,9.0469,9.3047,9.4687,9.5117,9.5547,9.6758,9.7383,9.7695,9.7695,9.7695,9.8125,9.9375,9.8945,9.8984,10.0586,9.9453,9.8554,9.8945,9.8984,9.8984,9.8984,9.9804,10.0508,10.1015,10.1406,10.1797,10.2304,10.2695,10.289,10.289,10.289,10.289,10.289,10.289,10.289,10.289,10.289,10.289,10.289,10.289,10.289,10.289,10.289,10.289,10.289,10.289,10.289,10.289,10.2383,10.2187,10.2109,10.1211,10.0898,10.0781,0.0,0.0,0.0,0.0,0.0,0.0,0.0,0.0,0.0,0.0,0.0,4.6082,4.5953,0.0,0.0,0.0,4.6231,4.6289,4.6289,4.6289,4.6289,4.6289,4.6289,4.6289,4.6289,4.6953,4.7695,4.8555,4.9453,5.0273,5.1094,5.1953,5.3164,5.4648,5.5117,5.5781,5.664,5.7539,5.8047,5.8281,5.8945,5.9219,5.9219,5.9219,5.9219,5.9219,5.9219,5.9219,5.8984,5.7695,5.7695,5.8008,5.6719,5.7773,0.0,0.0,0.0,6.2851,6.8086,7.4805,8.1094,8.4414,8.8281,9.1836,9.3789,9.4883,9.5703,9.6367,9.7148,9.7695,9.7695,9.7695,9.8008,9.8867,9.8828,9.9062,10.0117,9.9531,9.9062,9.9297,9.9336,9.9414,9.9648,10.0195,10.1015,10.1914,10.1914,10.2187,10.289,10.289,10.289,10.289,10.289,10.289,10.289,10.289,10.289,10.289,10.289,10.289,10.289,10.289,10.289,10.289,10.289,10.289,10.289,10.2695,10.2617,10.25,10.1601,10.1289,10.1211,10.0312,9.9961,9.9922,0.0,0.0,0.0,0.0,0.0,0.0,0.0,0.0,0.0,0.0,0.0,4.6121,4.61,4.6208,4.6287,4.6287,4.6289,4.6289,4.6289,4.6289,4.6289,4.6289,4.6289,0.0,4.6289,4.6328,4.6797,4.7656,4.8555,4.9414,5.0273,5.1094,5.1953,5.2891,5.457,5.5781,5.664,5.7539,5.8398,5.914,5.918,5.9219,5.9219,5.9219,5.9219,5.9219,5.9219,5.9219,5.918,5.9101,5.9101,5.9101,5.9023,5.9609,6.0351,0.0,0.0,0.0,6.8086,7.043,7.375,8.3672,8.6953,8.9062,9.4023,9.582,9.6445,9.6484,9.7148,9.7695,9.7695,9.7695,9.8008,9.8867,9.832,9.8359,10.0117,9.9531,9.9297,10.0117,10.0195,10.0586,10.1406,10.1484,10.1914,10.2812,10.2812,10.289,10.289,10.289,10.289,10.289,10.289,10.289,10.289,10.289,10.289,10.289,10.289,10.289,10.289,10.289,10.289,10.289,10.289,10.289,10.2812,10.1992,10.1719,10.1601,10.0703,10.039,10.0312,9.9375,9.9062,9.8945,0.0,0.0,0.0,0.0,0.0,0.0,0.0,0.0,0.0,0.0,0.0,0.0,0.0,4.6276,4.6289,4.6289,4.6289,4.6289,4.6289,4.6289,4.6289,4.6289,4.6289,4.6289,4.6289,4.6289,4.6719,4.7617,4.8476,4.9336,5.0234,5.1016,5.1562,5.1953,5.3672,5.5273,5.668,5.8125,5.9219,6.0273,6.3633,6.4648,6.4219,6.4765,6.4648,6.4219,6.4765,6.4961,6.5312,6.75,6.6406,6.4023,6.3476,6.1953,6.0508,6.1055,6.1445,6.2226,6.4687,6.7969,7.1875,7.6719,8.0664,8.4101,8.707,8.9687,9.1797,9.2929,9.5156,9.7109,9.7617,9.7695,9.7812,9.8125,9.8359,9.875,9.9375,9.9219,9.9336,10.0195,10.0312,10.0586,10.1484,10.2109,10.2617,10.289,10.289,10.289,10.289,10.289,10.289,10.289,10.289,10.289,10.289,10.289,10.289,10.289,10.289,10.289,10.289,10.289,10.289,10.289,10.2304,10.2109,10.1992,10.1719,10.1289,10.0703,9.9804,9.9453,9.9375,9.8476,9.8164,9.8125,0.0,0.0,0.0,4.6289,0.0,4.6289,4.6289,4.6289,4.6406,4.6719,0.0,0.0,0.0,0.0,4.6601,4.6328,4.6289,4.6289,4.6289,4.6289,4.6289,4.6289,4.6289,4.6289,4.6289,4.6289,4.6562,4.7148,4.832,4.9219,4.9805,5.0898,5.1406,5.1484,5.3203,5.4961,5.6719,5.8476,5.9844,6.1133,6.4609,6.5859,6.5781,6.7539,6.8203,6.8359,6.9844,7.0703,7.1523,7.3515,7.1484,6.8047,6.7187,6.4101,6.0937,6.1523,6.1719,6.1875,6.2773,6.5703,6.9258,7.2148,7.6094,7.9883,8.2187,8.6289,8.9804,9.0703,9.4062,9.707,9.7617,9.7695,9.7695,9.7695,9.8203,9.8672,9.8945,9.8984,9.9336,10.0195,10.0312,10.0508,10.1094,10.1992,10.25,10.25,10.2695,10.289,10.289,10.289,10.289,10.289,10.289,10.289,10.289,10.289,10.289,10.289,10.289,10.289,10.289,10.289,10.289,10.289,10.1992,10.1601,10.1601,10.1015,10.039,9.9765,9.8906,9.8554,9.8476,9.789,9.7695,9.7734,4.6289,4.6289,4.6289,4.6289,4.6328,4.6328,4.6328,4.6367,4.668,4.7539,0.0,0.0,0.0,0.0,0.0,4.6445,4.6367,4.6367,4.6328,4.6328,4.6328,4.6289,4.6289,4.6289,4.6289,4.6289,4.6289,4.6289,4.8047,4.8906,4.8945,5.0625,5.1406,5.1523,5.3242,5.4961,5.6758,5.8476,6.0156,6.1719,6.1992,6.2578,6.3672,6.7226,6.957,7.1289,7.3867,7.5898,7.7187,7.6484,7.3828,7.0664,6.9648,6.582,6.1719,6.1719,6.1719,6.1875,0.0,0.0,0.0,7.0547,7.3789,7.6601,8.0117,8.6094,9.0742,9.0156,9.4023,9.7539,9.7695,9.7695,9.7695,9.7695,9.7695,9.8008,9.8828,9.8945,9.9297,10.0195,10.0312,10.0312,10.0312,10.1094,10.1601,10.1601,10.2304,10.2812,10.2812,10.2812,10.289,10.289,10.289,10.289,10.289,10.289,10.289,10.289,10.289,10.289,10.289,10.289,10.289,10.2812,10.1914,10.1484,10.1406,9.9687,9.8984,9.8867,9.8047,9.7695,9.7695,9.7695,9.7695,9.7812,4.6289,4.6289,4.6289,4.6289,4.6836,4.7226,4.7226,4.7773,4.8281,0.0,0.0,0.0,4.8555,4.8555,4.8437,4.8203,4.8164,4.7891,4.7266,4.7226,4.6953,4.6328,4.6289,4.6289,4.6289,4.6289,4.6289,4.6289,4.8047,4.8906,4.8945,5.0625,5.1758,5.2383,5.3516,5.5312,5.7617,5.8711,6.0156,6.2265,6.8515,7.0781,7.0976,7.5664,7.7344,7.7383,7.875,7.9531,8.039,8.332,7.9922,7.332,6.6836,6.3828,6.2539,6.1875,6.1719,6.1758,6.1992,0.0,0.0,0.0,0.0,0.0,7.7187,8.0234,8.3711,8.9726,9.207,9.4023,9.7148,9.7695,9.7695,9.7695,9.7695,9.7773,9.8047,9.8047,9.8398,9.9258,9.9375,9.9609,10.0195,10.0508,10.0703,10.0703,10.0898,10.1015,10.1015,10.1601,10.2187,10.289,10.289,10.289,10.289,10.289,10.289,10.289,10.289,10.289,10.289,10.289,10.2617,10.1914,10.1015,10.0312,9.9687,9.9219,9.8633,9.8047,9.7773,9.7695,9.7695,9.7695,9.7695,9.7734,4.6289,4.6289,4.6406,4.6797,4.7266,4.7734,4.8086,4.8867,4.957,0.0,0.0,0.0,5.0508,5.0156,4.9922,4.9922,4.9648,4.9219,4.8711,4.8359,4.7734,4.6875,4.6836,4.668,4.6328,4.6289,4.6289,4.6289,4.8047,4.8906,4.8945,5.0625,5.1875,5.2734,5.3984,5.5781,5.7969,5.918,6.1523,6.4726,6.832,7.0976,7.3242,7.7734,7.9765,8.0625,8.3672,8.5469,8.664,8.8476,8.4648,7.7422,6.7695,6.5117,6.5234,6.293,6.2226,6.2148,6.1797,6.2969,6.4414,6.4922,0.0,0.0,7.3164,7.6015,8.0,8.7148,8.8906,9.0469,9.4765,9.4414,9.3906,9.5351,9.5586,9.6054,9.75,9.7695,9.789,9.8398,9.8476,9.8672,9.9179,9.9531,9.9765,9.9765,10.0117,10.0312,10.0312,10.0781,10.1484,10.2304,10.2383,10.25,10.289,10.289,10.289,10.289,10.289,10.289,10.289,10.289,10.2383,10.1601,10.0703,9.9804,9.8984,9.8594,9.8164,9.7695,9.7695,9.7695,9.7695,9.7695,9.7695,9.7812,0.0,4.6367,4.668,4.7461,4.7773,4.8164,4.9062,4.9922,5.0781,0.0,5.2461,5.3047,5.3125,5.2344,5.1836,5.1836,5.1094,5.0586,5.0469,4.9648,4.8789,4.793,4.7812,4.7344,4.6445,4.6445,4.6445,4.6445,4.8086,4.8945,4.9062,5.0664,5.1914,5.293,5.457,5.6328,5.8164,5.9844,6.3555,6.8086,6.5508,6.7851,7.3398,7.707,7.9883,8.2578,8.7929,9.1406,9.3125,9.0898,8.7304,8.1875,7.1133,6.875,6.9101,6.5039,6.3594,6.3086,6.2226,6.3203,6.4453,6.4453,6.6328,0.0,6.957,7.3359,7.8125,8.3515,8.5078,8.6758,9.0976,8.9336,8.8359,9.1406,9.2304,9.3711,9.6836,9.7265,9.7265,9.7265,9.7265,9.7383,9.7656,9.8398,9.8867,9.8867,9.957,10.0117,10.0195,10.0195,10.0586,10.1406,10.1484,10.1914,10.2695,10.2812,10.2812,10.289,10.289,10.289,10.289,10.289,10.2383,10.1406,10.0586,9.9765,9.8789,9.8008,9.7695,9.7695,9.7695,9.7695,9.7695,9.7695,9.7773,9.8086,4.6289,4.6875,4.7383,4.7578,4.875,4.9961,5.0781,5.1641,5.2539,5.3398,5.4258,5.5078,5.5742,5.5078,5.4531,5.4531,5.375,5.2969,5.2266,5.1406,5.0547,4.9726,4.9023,4.8242,4.7383,4.7344,4.7344,4.7344,4.8398,4.9258,4.9961,5.0937,5.2226,5.3789,5.4844,5.664,5.9062,6.0742,6.4414,6.9414,7.2226,7.5742,7.9765,8.4609,8.6758,8.7344,8.8515,8.9726,8.9961,8.4765,8.375,8.3281,7.5547,7.2851,7.2109,6.9844,6.7265,6.4883,6.4023,6.4531,6.5351,6.5351,6.6797,0.0,7.1875,7.2773,7.4883,8.1445,8.1836,8.207,8.5742,8.6445,8.6679,8.7344,9.0351,9.3086,9.4453,9.4648,9.4648,9.4648,9.4648,9.5469,9.75,9.7851,9.7969,9.7969,9.8125,9.8515,9.9219,9.9258,9.9648,10.0508,10.0586,10.1015,10.1797,10.1914,10.2187,10.289,10.289,10.289,10.289,10.289,10.1992,10.0508,10.039,9.9414,9.7929,9.7773,9.7695,9.7695,9.7695,9.7695,9.7695,9.7695,9.8125,9.8789,4.6875,4.7305,4.7851,4.875,4.9961,5.1094,5.1914,5.3516,5.4805,5.5234,5.6445,5.7422,5.7851,5.75,5.7265,5.7265,5.6445,5.5742,5.5312,5.4062,5.2969,5.2148,5.0859,4.9766,4.8906,4.8476,4.8242,4.8242,4.9101,4.9766,5.0234,5.1484,5.2969,5.4726,5.6015,5.7773,6.0039,6.3906,6.8555,7.3281,7.3281,7.5898,8.0273,8.5,8.707,8.7734,8.9883,9.0937,9.0625,8.6289,8.5429,8.5195,7.957,7.6328,7.4258,7.25,6.9258,6.6055,6.5195,6.5273,6.5586,6.5586,6.6562,0.0,0.0,7.043,7.1836,7.7851,7.7031,7.6523,8.0898,8.0625,8.0469,8.2617,8.4765,8.6484,8.7344,9.2265,9.5781,9.5781,9.5781,9.6289,9.7578,9.7695,9.7695,9.7695,9.7695,9.789,9.832,9.8359,9.875,9.9609,9.9648,10.0117,10.0898,10.1406,10.1797,10.2304,10.2695,10.289,10.289,10.289,10.2187,10.0898,10.0508,9.957,9.832,9.789,9.7695,9.7695,9.7695,9.7969,9.8359,9.8359,9.8906,9.9726,4.7695,4.8008,4.8594,5.0156,5.1094,5.207,5.3281,5.5234,5.6797,5.7265,5.8555,5.9687,6.0351,5.9844,5.9648,6.0156,5.8945,5.8164,5.8164,5.668,5.5508,5.4765,5.3086,5.1758,5.0937,4.9922,4.9375,4.9375,4.9922,5.0351,5.0703,5.207,5.3711,5.5625,5.7187,5.9297,6.1992,6.7383,7.2578,7.6992,7.4453,7.6172,8.0703,8.5,8.664,8.7265,9.1562,9.3086,9.2734,9.0273,8.9336,8.8437,8.3906,8.0351,7.7422,7.5195,7.1367,6.7695,6.6836,6.6445,6.6289,6.6133,6.664,6.7305,0.0,0.0,0.0,7.3555,7.2305,7.1758,7.5976,7.4609,7.3828,7.6953,7.8594,7.9609,7.9961,8.8789,9.5117,9.4765,9.4883,9.5429,9.6601,9.7773,9.832,9.7969,9.8242,9.8242,9.7734,9.7695,9.8008,9.8711,9.875,9.9179,10.0,10.0703,10.1289,10.1601,10.2304,10.2695,10.289,10.289,10.2383,10.1601,10.0703,9.9804,9.8945,9.8047,9.7695,9.7695,9.7695,9.8242,9.8984,9.8984,9.9648,10.0703,4.8711,4.9375,5.0195,5.1094,5.1992,5.3359,5.5781,5.6406,5.7422,5.9687,6.0156,6.1445,6.4531,6.2109,6.1211,6.3515,6.0859,5.9062,5.9062,5.8125,5.7578,5.7461,5.5781,5.4453,5.3594,5.1953,5.1133,5.1133,5.0508,5.0976,5.2422,5.2617,5.4023,5.6484,5.7461,6.0976,6.6367,6.9297,7.3125,7.7578,8.164,8.457,8.6953,9.125,9.1015,8.8984,9.3359,9.4883,9.4609,9.2773,9.3633,9.457,8.9453,8.6523,8.4219,8.0156,7.539,7.1211,7.0351,6.957,6.8789,6.8086,6.7969,6.789,6.7187,0.0,6.8359,6.8945,0.0,6.9805,7.039,0.0,0.0,6.9687,7.4648,7.8125,7.668,8.2187,8.5781,8.4219,8.4726,8.7304,9.2656,9.8008,10.0508,9.8984,10.0312,10.0117,9.7812,9.7695,9.7734,9.7851,9.7851,9.8281,9.914,9.9258,10.0117,10.1601,10.1719,10.2187,10.289,10.289,10.2383,10.1601,10.0703,9.9804,9.8945,9.8047,9.7695,9.7695,9.7695,9.8242,9.8984,9.8984,10.0,10.1484,4.9922,5.0312,5.1172,5.1992,5.3711,5.5312,5.6445,5.8281,6.0117,6.1719,6.2344,6.3984,6.7461,6.4765,6.4726,6.9844,6.7109,6.5976,6.8008,6.5,6.4023,6.6015,6.0117,5.7344,5.8437,5.5312,5.3437,5.2891,5.2578,5.2773,5.3476,5.3984,5.5312,5.75,6.0859,6.4336,6.8125,7.5195,7.8672,7.9922,8.6133,8.8164,8.7734,9.0039,9.0273,8.9883,9.3242,9.4101,9.3711,9.4023,9.3828,9.3359,9.2695,8.8906,8.4531,8.3711,7.875,7.3867,7.5469,7.4961,7.3711,7.289,7.2656,7.1914,6.9023,6.8672,6.8828,6.8281,0.0,0.0,0.0,0.0,0.0,0.0,7.1367,7.2969,7.2265,7.4765,7.8437,8.3242,8.414,8.6328,9.1367,9.3203,9.4648,9.5937,9.6719,9.664,9.5547,9.6914,9.7695,9.7695,9.7695,9.789,9.8242,9.875,9.9609,10.0898,10.1406,10.2109,10.289,10.289,10.2695,10.2304,10.1406,10.0586,9.9687,9.8828,9.8164,9.7695,9.7695,9.8242,9.8984,9.8984,9.9765,10.0781,5.1601,5.1719,5.2461,5.3594,5.5351,5.6836,5.7539,6.0156,6.2383,6.3242,6.4101,6.625,7.043,6.7383,6.789,7.5039,7.2031,7.1133,7.4375,7.0195,6.9023,7.2226,6.4648,6.1133,6.2734,5.9258,5.664,5.5078,5.4609,5.4609,5.5078,5.5469,5.6719,5.875,6.25,6.6328,7.0469,7.8476,8.2617,8.4297,8.9531,9.0273,8.8281,8.9101,8.9961,9.1015,9.3398,9.3554,9.289,9.4883,9.4453,9.3242,9.4453,9.0976,8.6484,8.6797,8.2578,7.832,8.082,7.9726,7.7969,7.8281,7.6562,7.4258,7.2031,7.0469,6.9258,6.8398,6.8203,0.0,0.0,0.0,6.789,6.8047,0.0,6.8555,6.8125,6.8984,7.2461,8.0117,8.2265,8.4648,8.8476,8.8984,9.0,9.2304,9.3125,9.3554,9.3554,9.5508,9.6992,9.7695,9.7695,9.7695,9.7695,9.832,9.9219,10.0312,10.0898,10.1797,10.289,10.289,10.289,10.289,10.1992,10.1094,10.0195,9.9375,9.8476,9.7695,9.7695,9.8086,9.8672,9.8906,9.9531,10.0312,5.3906,5.3906,5.4453,5.6172,5.6523,5.7422,5.9883,6.1797,6.3281,6.414,6.5039,6.7812,7.3789,6.9883,6.9922,7.7695,7.3633,7.1797,7.4414,7.1367,7.0586,7.3164,6.8984,6.625,6.5508,6.3672,6.1133,5.7773,5.6094,5.6133,5.7773,5.6953,5.789,6.0312,6.0508,6.5703,7.4531,7.6562,8.2656,9.1054,9.2148,9.1484,9.0,9.0898,9.1758,9.2734,9.4531,9.4062,9.3008,9.5586,9.6914,9.707,9.4687,9.3789,9.2929,8.9609,8.7304,8.5859,8.5976,8.2851,8.0429,8.3789,7.832,7.2969,7.6211,7.3086,6.9258,6.8398,6.8203,6.793,6.7109,6.6953,6.6406,6.4726,6.5898,0.0,0.0,6.5937,6.8047,7.082,7.5625,7.9726,8.2344,8.707,8.9648,8.8906,9.1211,9.2656,9.2656,9.3515,9.5156,9.7617,9.7695,9.7695,9.7695,9.7734,9.8594,10.0312,10.0312,10.1211,10.289,10.289,10.289,10.289,10.1992,10.1094,10.0195,9.9375,9.8476,9.7695,9.7695,9.7734,9.7851,9.8672,9.9531,10.0312,5.7344,5.6992,5.6562,5.6601,5.8008,5.9805,6.1797,6.3594,6.5625,6.8203,6.9805,7.3008,7.9023,7.664,7.7226,8.3867,8.125,8.0351,8.2969,7.9883,7.914,8.1719,7.6055,7.1914,6.9883,6.7031,6.3359,5.875,5.8164,5.8164,5.875,5.8476,5.9062,6.0547,6.4023,6.9258,7.5742,8.0351,8.4804,8.8906,9.0312,9.0195,8.9414,9.2031,9.2148,9.1172,9.3515,9.3594,9.289,9.4961,9.582,9.5898,9.5039,9.3984,9.2812,9.164,8.9297,8.7695,9.0508,8.9804,8.8398,8.8984,8.5234,8.0937,7.9258,7.5312,7.1758,7.0898,7.0273,7.0117,7.0976,6.9297,6.8125,6.9219,6.75,6.582,0.0,6.5156,6.5937,6.7969,7.1211,7.4805,7.8555,7.9961,8.1719,8.4258,8.6367,8.8476,9.0742,9.3359,9.6172,9.9336,9.8867,9.8554,9.8554,9.8008,9.8281,9.9453,10.0,10.0898,10.2109,10.2617,10.289,10.289,10.2617,10.1601,10.0312,9.9961,9.9023,9.7695,9.7695,9.7695,9.7734,9.8047,9.832,9.8594,5.9101,5.8984,5.8594,5.8047,5.9805,6.2109,6.4492,6.6328,6.8555,7.168,7.4101,7.7305,8.1797,8.082,8.2148,8.789,8.6015,8.5898,8.9101,8.5195,8.4336,8.7851,8.1679,7.7226,7.5234,7.1562,6.7265,6.2383,6.0547,5.9805,6.0078,5.9765,6.0078,6.1015,6.4726,6.9219,7.4414,8.0195,8.3984,8.6328,8.8594,8.9375,8.9453,9.1992,9.1523,8.9922,9.2851,9.3125,9.2461,9.4492,9.5195,9.5195,9.5195,9.4414,9.3515,9.3515,9.1953,9.0898,9.3984,9.3515,9.2422,9.3711,9.0078,8.6015,8.5351,8.1172,7.7344,7.7109,7.4883,7.3242,7.4062,7.0937,6.875,7.039,6.7812,6.539,0.0,6.4453,6.4609,6.543,6.7773,7.0937,7.4961,7.4844,7.6055,7.9765,8.1367,8.4336,8.9258,9.1953,9.5508,10.0195,9.9453,9.8984,9.8984,9.8125,9.8125,9.9023,9.9883,10.0781,10.1601,10.25,10.289,10.289,10.289,10.1914,10.0312,10.0312,9.9258,9.7695,9.7695,9.7695,9.7695,9.7695,9.7695,9.7695,5.9336,5.9961,6.0547,6.0586,6.2109,6.4453,6.7851,6.9844,7.1914,7.457,7.7734,8.0469,8.2304,8.2617,8.4648,8.957,8.7812,8.8164,9.2265,8.7187,8.6172,9.1094,8.5742,8.2187,8.1133,7.6875,7.2578,6.8242,6.3086,6.0937,6.168,6.0859,6.0937,6.1797,6.2695,6.5976,7.1211,7.625,8.0508,8.4219,8.7617,8.9414,9.0156,9.1094,9.0351,8.9258,9.2695,9.2851,9.1875,9.4375,9.5195,9.5195,9.5195,9.5195,9.5195,9.5195,9.5195,9.539,9.6211,9.4062,9.2734,9.7656,9.2656,8.8008,9.375,8.9844,8.5195,8.6015,8.1601,7.7383,7.664,7.2226,6.8672,6.8828,6.7031,6.5039,6.3242,6.3711,6.3945,6.3086,6.5273,0.0,0.0,7.1875,7.3008,7.5586,7.664,8.0508,8.8125,8.9492,9.3164,9.9961,9.9336,9.8867,9.8867,9.7969,9.7929,9.875,9.9765,10.0703,10.1601,10.2383,10.289,10.289,10.289,10.1914,10.0312,10.0312,9.9219,9.7695,9.7695,9.7695,9.7695,9.7695,9.7695,9.7695,6.0937,6.1758,6.2539,6.3203,6.5781,6.8515,7.0703,7.3047,7.5703,7.8945,8.0117,8.1836,8.4883,8.6875,8.8554,8.9883,9.0,9.0469,9.1562,9.0195,8.9922,9.125,8.9219,8.6445,8.3008,7.8086,7.3437,6.9101,6.4531,6.2109,6.1719,6.1484,6.1836,6.2695,6.3594,6.7539,7.3711,7.5703,8.1133,8.8594,9.1445,9.1914,9.1133,9.2656,9.2148,9.0937,9.3125,9.4023,9.4297,9.4961,9.5195,9.5195,9.5195,9.5195,9.5195,9.5195,9.5195,9.5234,9.5469,9.5351,9.5469,9.6797,9.4023,9.1367,9.289,8.9414,8.5937,8.6133,8.4453,8.3437,8.5117,7.9648,7.5508,7.7422,7.1445,6.5742,6.3359,6.3203,6.3242,6.3047,6.4726,6.6523,6.8047,6.9922,7.1836,7.3828,7.5976,7.9726,8.5547,8.9101,9.3242,9.8203,9.7578,9.7148,9.7148,9.5625,9.5,9.5234,9.8008,9.9804,10.0703,10.1484,10.2304,10.289,10.2187,10.1289,10.0195,9.9609,9.8672,9.7695,9.7695,9.7695,9.7695,9.7695,9.7695,9.7695,6.2734,6.3555,6.4414,6.5273,6.9219,7.2812,7.457,7.832,8.1914,8.4609,8.625,8.7539,8.8359,9.039,9.1562,9.1172,9.1601,9.2187,9.2969,9.1914,9.1992,9.3515,9.164,8.9609,8.7578,8.2461,7.7539,7.2812,6.8476,6.5156,6.2851,6.2851,6.3086,6.3633,6.4883,6.8008,7.2578,7.6484,8.2304,8.9023,9.0508,9.1172,0.0,9.2383,9.3086,9.3711,9.4687,9.5351,9.582,9.6172,9.6054,9.5781,9.5781,9.5508,9.5195,9.5195,9.5195,9.5195,9.5195,9.5547,9.5937,9.5937,9.5117,9.4492,9.5234,9.3242,9.1445,9.2226,8.9883,8.8125,8.957,8.3203,7.75,7.664,7.1758,6.7265,6.5039,6.4687,0.0,0.0,6.4765,6.5781,6.6289,6.8984,7.125,7.2617,7.4453,7.8594,8.5664,8.7226,9.0781,9.6992,9.6758,9.5781,9.4258,9.5508,9.539,9.3945,9.7383,9.9453,10.0312,10.1211,10.2109,10.289,10.1992,10.1094,10.0195,9.9375,9.8476,9.7695,9.7695,9.7695,9.7695,9.7695,9.7695,9.7695,6.4648,6.543,6.6367,6.7265,7.2383,7.7031,7.8867,8.3711,8.7773,8.9453,9.2304,9.3359,9.1211,9.2539,9.3281,9.2656,9.2617,9.3281,9.4922,9.2812,9.2851,9.6015,9.3164,9.1836,9.2578,8.7656,8.2578,7.7539,7.3164,6.8828,6.4648,6.4648,6.4687,6.4883,6.6523,6.8555,7.125,7.8672,8.414,8.7851,8.832,8.9765,9.164,9.1758,9.375,9.6523,9.6601,9.664,9.6758,9.7461,9.7226,9.664,9.664,9.6133,9.5508,9.539,9.5351,9.5351,9.5234,9.5273,9.5351,9.5234,9.5859,9.6836,9.8203,9.8008,9.7969,9.9492,9.5734,9.2122,9.2083,8.519,7.7812,7.2851,7.0781,6.9219,6.7461,6.7617,0.0,0.0,0.0,0.0,6.5664,6.8594,7.0898,7.1758,7.2734,7.707,8.5703,8.4531,8.7148,9.4922,9.5586,9.4414,9.1484,9.6015,9.6914,9.4101,9.7304,9.9336,10.0312,10.1094,10.1914,10.2695,10.1797,10.0898,10.0117,9.9179,9.8398,9.7695,9.7695,9.7695,9.7695,9.7695,9.7695,9.7734,6.6445,6.7734,6.9062,6.9883,7.5039,7.9844,8.2344,8.4219,8.5976,8.7695,8.8476,8.8945,8.914,9.0703,9.1992,9.2539,9.2617,9.3047,9.4062,9.3047,9.2969,9.4297,9.3086,9.2422,9.2617,8.8242,8.3789,7.9258,7.4961,7.0664,6.6445,6.6445,6.6836,6.7578,6.8594,7.2344,7.8281,8.3945,8.7617,8.9804,9.2695,9.3672,9.3515,9.4258,9.5351,9.6601,9.7265,9.75,9.75,9.7656,9.7617,9.75,9.75,9.7383,9.7148,9.6484,9.6289,9.6133,9.539,9.5703,9.6094,9.539,9.5859,9.6406,9.5976,9.6289,9.6797,9.7109,9.6865,9.6529,9.6375,8.9858,8.3359,7.9765,7.4883,7.0937,6.9219,7.1445,0.0,0.0,0.0,7.1055,0.0,0.0,0.0,7.0859,7.2383,7.4961,7.8789,8.1914,8.4961,8.789,9.0742,9.2265,9.2383,9.3984,9.4844,9.5,9.6992,9.875,10.0312,10.0508,10.1015,10.1797,10.0898,10.0,9.914,9.8281,9.7851,9.7695,9.7695,9.7695,9.7695,9.7695,9.7695,9.7812,6.9531,7.0937,7.2265,7.2656,7.6953,8.1094,8.3281,8.5469,8.7969,9.1094,9.1875,9.2148,9.207,9.2422,9.2656,9.2617,9.2617,9.2773,9.3203,9.2812,9.3008,9.3867,9.3086,9.3008,9.3945,9.1484,8.7422,8.1719,7.9648,7.5508,6.9531,6.9062,6.9336,7.0312,7.3398,7.7109,8.1406,8.707,8.9922,9.0937,9.3984,9.4961,9.4687,9.5547,9.6406,9.7187,9.7578,9.7695,9.7695,9.7695,9.7695,9.7695,9.7695,9.7695,9.7617,9.7226,9.7109,9.6953,9.6094,9.6172,9.6289,9.5429,9.5859,9.6289,9.539,9.5859,9.6367,9.5937,9.6488,9.6634,9.5174,9.2494,8.8984,8.4453,8.0508,7.7109,7.4492,7.5547,7.539,0.0,0.0,0.0,0.0,0.0,0.0,0.0,0.0,7.4531,7.8945,7.9883,8.2695,8.8008,9.0195,9.0859,8.9961,9.4336,9.5195,9.2539,9.6015,9.8398,9.9648,9.9648,10.0117,10.0898,10.0,9.9375,9.8945,9.8047,9.7695,9.7695,9.7695,9.7695,9.7734,9.8203,9.8086,9.7773,7.457,7.5742,7.668,7.664,7.9609,8.2617,8.4336,8.7109,9.0273,9.3906,9.5117,9.5469,9.4961,9.4297,9.3711,9.3203,9.3164,9.3164,9.3164,9.2969,9.3164,9.3867,9.3242,9.3437,9.4609,9.4336,9.1054,8.4687,8.414,8.0078,7.2812,7.2851,7.375,7.5469,7.9531,8.2422,8.4531,8.9297,9.1523,9.2031,9.4297,9.5195,9.5312,9.6172,9.6992,9.7695,9.7695,9.7812,9.7969,9.7969,9.7851,9.7695,9.7695,9.7695,9.7695,9.7695,9.7695,9.7578,9.6914,9.6758,9.6562,9.5703,9.5976,9.6289,9.539,9.5742,9.6015,9.5351,9.5868,9.5919,9.421,9.4073,9.2691,8.7968,8.4844,8.1914,7.8672,7.9492,7.9687,0.0,0.0,0.0,7.6289,7.2851,7.0937,0.0,0.0,7.4844,8.0703,7.875,8.1094,8.8945,8.9844,8.9609,8.832,9.4687,9.5898,9.1953,9.5859,9.8164,9.8984,9.8984,9.9375,10.0,9.9297,9.8906,9.8672,9.7969,9.7695,9.7695,9.7695,9.7812,9.8047,9.8554,9.8398,9.7969,8.289,8.3476,8.3515,8.332,8.4453,8.5937,8.7695,8.9062,9.0312,9.1523,9.2422,9.3242,9.3945,9.3945,9.4179,9.4883,9.4961,9.4961,9.4961,9.4219,9.3828,9.3906,9.3828,9.3476,9.2851,9.4297,9.2812,8.8203,8.5898,8.1601,7.5586,7.8633,8.2187,8.6054,8.6562,8.8125,9.0508,9.1054,9.2226,9.375,9.4765,9.5195,9.5312,9.6172,9.6992,9.7695,9.7695,9.8203,9.8867,9.8867,9.8359,9.7695,9.7695,9.7695,9.7695,9.7695,9.7695,9.7695,9.7617,9.7578,9.7383,9.6562,9.6445,9.6289,9.539,9.5273,9.5312,9.5234,9.5699,9.6558,9.7871,9.501,9.2018,9.0689,8.5273,8.0312,7.7695,8.2695,8.4609,7.9023,0.0,0.0,7.7539,7.3203,7.168,7.4062,7.3594,7.5469,8.0703,7.9336,8.0898,8.6367,8.664,8.8047,9.0937,9.3242,9.5664,9.8164,9.7851,9.8164,9.8984,9.8984,9.9023,9.9101,9.9023,9.8554,9.7812,9.7734,9.7695,9.7695,9.7695,9.8164,9.8789,9.8086,9.8281,9.8867,8.4101,8.4935,8.5303,8.5385,8.6998,8.839,8.8549,9.0703,9.2109,9.1406,9.25,9.3711,9.4609,9.4687,9.4609,9.4414,9.4883,9.4765,9.3711,9.4297,9.4453,9.3906,9.3906,9.3984,9.414,9.4336,9.2812,8.9492,8.7461,8.5234,8.2851,8.2109,8.3281,8.6054,8.8633,9.0078,9.0625,9.2187,9.3554,9.4726,9.5078,9.5508,9.6054,9.6914,9.7422,9.7769,9.8099,9.8566,9.9062,9.9414,9.9414,9.9258,9.9258,9.9258,9.914,9.8633,9.8476,9.8359,9.7851,9.7695,9.7617,9.7304,9.7132,9.681,9.5933,9.5642,9.5327,9.482,9.4907,9.5519,9.6856,9.6942,9.5845,9.2951,9.125,8.832,8.2617,8.7304,8.8906,8.2344,0.0,8.5429,8.2851,7.6797,7.4336,7.7422,7.4961,7.4883,7.8515,8.0547,8.4179,8.9844,8.9531,9.1406,9.5898,9.457,9.4609,9.5937,9.7148,9.789,9.8203,9.8203,9.8203,9.8203,9.8203,9.8008,9.7695,9.7695,9.7695,9.7695,9.7695,9.789,9.8242,9.8437,9.8359,9.8359,8.6902,8.7623,8.79,8.8054,8.959,9.0635,8.9992,9.2265,9.3594,9.2383,9.3515,9.4531,9.4804,9.4804,9.4687,9.4297,9.476,9.4568,9.332,9.4396,9.4762,9.4069,9.4129,9.4324,9.4616,9.423,9.3015,9.0945,8.8993,8.7665,8.6845,8.4653,8.526,8.832,9.1367,9.2148,9.1289,9.3398,9.4492,9.4844,9.539,9.5937,9.6601,9.7383,9.7828,9.8032,9.8444,9.8995,9.9611,10.0111,10.0502,10.0791,10.0388,10.0312,10.0195,9.957,9.9219,9.8867,9.8242,9.7862,9.7611,9.7611,9.7437,9.7137,9.6515,9.6027,9.5452,9.4676,9.4524,9.4807,9.5803,9.7504,9.7595,9.3973,9.4408,9.2812,8.5859,9.0117,9.1445,8.4765,8.6289,8.7695,8.7344,8.0976,7.8086,8.1015,7.8203,7.7148,7.8984,8.1211,8.5117,9.0937,8.9492,9.1133,9.6289,9.3945,9.3515,9.5039,9.6836,9.7695,9.7695,9.7695,9.7695,9.7695,9.7695,9.7695,9.7695,9.7695,9.7695,9.7695,9.7695,9.7851,9.8125,9.8476,9.8398,9.8242,9.3547,9.3305,9.2656,9.2461,9.2617,9.2773,9.2734,9.3672,9.4375,9.4375,9.5117,9.5234,9.4023,9.3906,9.4258,9.5117,9.4967,9.4814,9.4776,9.4771,9.4694,9.4423,9.4674,9.4304,9.3255,9.4012,9.4012,9.3138,9.0552,8.8006,8.5538,8.6355,9.005,9.5976,9.6015,9.5234,9.3906,9.4804,9.4687,9.4062,9.5781,9.6484,9.6601,9.7383,9.8089,9.8596,9.8596,9.9558,10.0775,10.1094,10.1601,10.189,10.0688,10.0312,10.0312,10.0312,9.9687,9.8984,9.8984,9.8216,9.74,9.74,9.7197,9.7027,9.6964,9.6326,9.5557,9.4905,9.4773,9.4981,9.5603,9.5922,9.5489,9.3434,9.2624,9.0547,8.5586,9.0117,9.164,8.5586,8.7148,8.9023,8.9883,8.5273,8.2929,8.4687,8.3984,8.3476,8.3515,8.1133,8.2148,8.7383,8.4219,8.4883,9.0078,9.0078,9.2617,9.7656,9.7695,9.7695,9.7695,9.7695,9.7695,9.7695,9.7695,9.7695,9.7695,9.7695,9.7695,9.7695,9.7695,9.8242,9.8867,9.8047,9.8242,9.8984,9.2784,9.3466,9.3706,9.3783,9.3371,9.2843,9.2289,9.3452,9.3788,9.2057,9.3541,9.4225,9.2677,9.4109,9.4755,9.3926,9.429,9.4098,9.2896,9.3939,9.4302,9.3627,9.418,9.4394,9.4003,9.4257,9.4017,9.3205,9.1204,8.9754,8.9021,9.1707,9.3358,9.4156,9.4723,9.4394,9.3497,9.4316,9.4823,9.5173,9.5719,9.6304,9.6863,9.7136,9.7692,9.8452,9.8857,9.9788,10.0904,10.14,10.1822,10.1992,10.1608,10.1486,10.1386,10.0788,10.0398,9.9969,9.8812,9.8276,9.7871,9.7277,9.696,9.6745,9.6707,9.6403,9.598,9.5481,9.5413,9.5303,9.4907,9.5525,9.5206,9.2441,9.4134,9.3984,8.8906,9.1992,9.3203,8.8906,8.9609,9.1289,9.3359,8.9922,8.7773,8.8359,8.9219,8.8203,8.4687,8.5898,8.9101,9.4297,9.2265,9.3281,9.7851,9.4414,9.4375,9.7695,9.7695,9.7695,9.7695,9.7695,9.7695,9.7695,9.7695,9.7695,9.7695,9.7695,9.7695,9.7695,9.7695,9.7851,9.8086,9.7812,9.789,9.8125,9.2903,9.3557,9.4016,9.4131,9.4016,9.3595,9.2713,9.4018,9.4289,9.2026,9.371,9.4475,9.2751,9.4285,9.4673,9.2857,9.3139,9.2921,9.1818,9.3054,9.3592,9.2959,9.41,9.4559,9.4136,9.4441,9.4247,9.34,9.2287,9.1787,9.1825,9.4013,9.4475,9.3551,9.4055,9.4059,9.3724,9.4563,9.5183,9.5726,9.6036,9.6527,9.7031,9.738,9.7975,9.8735,9.9396,10.0173,10.1096,10.1481,10.1688,10.1797,10.1863,10.1915,10.1685,10.1414,10.0793,10.0095,9.9048,9.8234,9.7507,9.7007,9.6673,9.648,9.648,9.6403,9.6249,9.6095,9.588,9.5593,9.5258,9.5618,9.5403,9.3714,9.5568,9.5817,9.1717,9.4023,9.4609,9.0508,9.1367,9.3047,9.5,9.3242,9.2109,9.2422,9.2226,9.1289,8.9375,9.0351,9.2304,9.5195,9.3945,9.5,9.8672,9.5508,9.5195,9.7695,9.7695,9.7695,9.7695,9.7695,9.7695,9.7695,9.7695,9.7695,9.7695,9.7695,9.7695,9.7695,9.7695,9.7695,9.7695,9.7695,9.7695,9.7695,9.3791,9.383,9.3868,9.3868,9.4483,9.4749,9.39,9.5164,9.5627,9.3906,9.517,9.555,9.3897,9.4398,9.4128,9.2172,9.1748,9.1556,9.1556,9.2322,9.2707,9.2518,9.4287,9.4788,9.371,9.4557,9.4595,9.3787,9.371,9.371,9.371,9.371,9.3826,9.4093,9.4131,9.4287,9.452,9.5366,9.5712,9.5826,9.6596,9.698,9.7096,9.7942,9.8673,9.9365,10.0096,10.0788,10.1289,10.1597,10.1481,10.1289,10.1597,10.1481,10.1289,10.1904,10.0904,9.9634,9.9557,9.8096,9.6634,9.6596,9.6442,9.6288,9.6288,9.6288,9.6365,9.6557,9.6134,9.5926,9.6429,9.6094,9.5901,9.6403,9.6749,9.6183,9.3806,9.5742,9.5664,9.0937,9.25,9.4414,9.5469,9.5547,9.5781,9.6367,9.375,9.3281,9.5976,9.4297,9.2812,9.1875,9.0976,9.1719,9.414,9.414,9.5351,9.7695,9.7695,9.7695,9.7695,9.7695,9.7695,9.7695,9.7695,9.7695,9.7695,9.7695,9.7695,9.7695,9.7695,9.7695,9.7695,9.7695,9.7695,9.7695,9.4712,9.5212,9.5674,9.5674,9.5289,9.4943,9.4712,9.5052,9.4937,9.383,9.4635,9.4903,9.3828,9.3866,9.3828,9.3291,9.2672,9.2284,9.2249,9.2441,9.2556,9.2479,9.3518,9.398,9.371,9.4557,9.4903,9.4672,9.4018,9.371,9.371,9.371,9.371,9.3826,9.448,9.4788,9.4941,9.5788,9.6172,9.6172,9.6365,9.6826,9.7403,9.7596,9.8596,9.9904,10.0096,10.0712,10.1289,10.1404,10.1404,10.1289,10.1404,10.0904,10.0481,10.1289,10.0789,9.9827,9.9173,9.8173,9.7134,9.6519,9.6326,9.6288,9.6288,9.6288,9.6365,9.6557,9.6506,9.6261,9.5784,9.6094,9.6134,9.548,9.6288,9.6088,9.3561,9.4103,9.4609,9.4023,9.4531,9.6015,9.8828,9.9101,9.8086,9.5703,9.8398,9.7929,9.2812,9.6953,9.8789,9.7226,9.6328,9.6172,9.6797,9.6797,9.7109,9.7695,9.7695,9.7695,9.7695,9.7695,9.7695,9.7695,9.7695,9.7695,9.7695,9.7695,9.7695,9.7695,9.7695,9.7695,9.7695,9.7695,9.7695,9.7695,9.5597,9.598,9.6288,9.6288,9.5942,9.5443,9.5058,9.5326,9.5286,9.4443,9.5058,9.5405,9.4943,9.4905,9.4905,9.4905,9.3749,9.3018,9.3056,9.3056,9.3056,9.3056,9.3826,9.4287,9.4287,9.5134,9.5595,9.5595,9.5134,9.4903,9.4903,9.4903,9.4903,9.4903,9.5365,9.5595,9.5634,9.6095,9.6288,9.6326,9.6711,9.7096,9.7596,9.8404,9.9288,10.0096,10.0481,10.0904,10.1289,10.1289,10.1289,10.1212,10.0904,10.0481,10.0096,10.0096,9.9558,9.8788,9.8327,9.7596,9.6865,9.6403,9.6288,9.6288,9.6288,9.6288,9.6326,9.6442,9.6519,9.6442,9.5903,9.6249,9.648,9.6172,9.5518,9.4782,9.3804,9.3717,9.3984,9.4531,9.5625,9.707,9.8945,9.9101,9.8515,9.7031,9.8086,9.7617,9.4961,9.6875,9.7812,9.7265,9.7539,9.7695,9.7695,9.7695,9.7695,9.7695,9.7695,9.7695,9.7695,9.7695,9.7695,9.7695,9.7695,9.7695,9.7695,9.7695,9.7695,9.7695,9.7695,9.7695,9.7695,9.7695,9.7695,9.7695,9.6288,9.6288,9.6288,9.6288,9.6288,9.6057,9.5289,9.5826,9.6057,9.5289,9.5865,9.6288,9.6288,9.6288,9.6288,9.6288,9.4941,9.4018,9.3903,9.3903,9.3903,9.3903,9.4595,9.498,9.498,9.5711,9.6172,9.6288,9.6288,9.6288,9.6288,9.6288,9.6288,9.6288,9.6288,9.6288,9.6326,9.6442,9.648,9.6557,9.7365,9.7788,9.8057,9.9519,10.0173,10.0404,10.1096,10.1289,10.1289,10.1212,10.1096,10.1019,10.0212,9.9788,9.9558,9.8827,9.798,9.7365,9.748,9.6903,9.6288,9.6288,9.6288,9.6288,9.6288,9.6288,9.6288,9.6288,9.6442,9.648,9.6326,9.6442,9.6634,9.6903,9.4747,9.3213,9.3892,9.3856,9.3828,9.4023,9.6211,9.7695,9.7695,9.7695,9.8008,9.875,9.6094,9.5586,9.8086,9.5859,9.4648,9.5,9.6758,9.7695,9.7695,9.7695,9.7695,9.7695,9.7695,9.7695,9.7695,9.7695,9.7695,9.7695,9.7695,9.7695,9.7695,9.7695,9.7695,9.7695,9.7695,9.7695,9.7695,9.7695,9.7695,9.7695,9.6288,9.6288,9.6288,9.6288,9.6288,9.6249,9.6134,9.6211,9.6249,9.6134,9.6211,9.6288,9.6288,9.6288,9.6288,9.6288,9.6057,9.5595,9.4826,9.4788,9.4788,9.4788,9.4903,9.498,9.498,9.5134,9.5557,9.6288,9.6288,9.6288,9.6288,9.6288,9.6288,9.6288,9.6288,9.6288,9.6326,9.7019,9.7326,9.7403,9.825,9.9019,9.9712,9.9981,10.0481,10.1096,10.1289,10.1289,10.1212,10.0481,10.0289,10.0096,9.925,9.8481,9.7865,9.775,9.7134,9.6634,9.7326,9.6903,9.6288,9.6288,9.6288,9.6288,9.6288,9.6288,9.6288,9.6288,9.6326,9.6326,9.6326,9.6326,9.5903,9.4518,9.4057,9.3438,9.2151,9.3496,9.4648,9.4648,9.6445,9.7695,9.7695,9.7695,9.7773,9.789,9.7422,9.6406,9.4765,9.6211,9.6172,9.4179,9.6445,9.7695,9.7695,9.7695,9.7695,9.7695,9.7695,9.7695,9.7695,9.7695,9.7695,9.7695,9.7695,9.7695,9.7695,9.7695,9.7695,9.7695,9.7695,9.7695,9.7695,9.7695,9.7695,9.7695,9.6288,9.6288,9.6288,9.6288,9.6288,9.6288,9.6288,9.6288,9.6288,9.6288,9.6288,9.6288,9.6288,9.6288,9.6288,9.6288,9.6288,9.6134,9.5711,9.5711,9.5711,9.5711,9.5711,9.5711,9.5711,9.5711,9.5903,9.6288,9.6288,9.6288,9.6288,9.6288,9.6288,9.6326,9.6749,9.6942,9.7019,9.7827,9.8211,9.8288,9.9135,9.975,10.0096,10.0596,10.1019,10.1212,10.0789,10.0712,10.0481,9.9673,9.9404,9.925,9.8365,9.7827,9.7403,9.698,9.6596,9.6365,9.6749,9.6596,9.6288,9.6288,9.6288,9.6288,9.6288,9.6288,9.6288,9.6288,9.6288,9.6288,9.6288,9.6634,9.6403,9.4672,9.4518,9.402,9.2446,9.3981,9.5211,9.4841,9.6914,9.8203,9.7734,9.7695,9.7695,9.7695,9.7695,9.7187,9.6015,9.707,9.7148,9.5976,9.7109,9.7695,9.7695,9.7695,9.7695,9.7695,9.7695,9.7695,9.7695,9.7695,9.7695,9.7695,9.7695,9.7695,9.7695,9.7695,9.7695,9.7695,9.7695,9.7695,9.7695,9.7695,9.7695,9.7695,9.6596,9.6557,9.6519,9.6326,9.6288,9.6288,9.6288,9.6288,9.6288,9.6288,9.6288,9.6288,9.6288,9.6288,9.6288,9.6288,9.6288,9.6288,9.6288,9.6288,9.6288,9.6288,9.6288,9.6288,9.6288,9.6288,9.6288,9.6288,9.6288,9.6288,9.6288,9.6288,9.6288,9.6326,9.7134,9.7519,9.7557,9.8634,9.9096,9.9173,9.9981,10.0404,10.0404,10.0904,10.1019,10.0904,10.0096,9.9788,9.9635,9.8788,9.8481,9.8365,9.748,9.7211,9.7096,9.648,9.6288,9.6288,9.6288,9.6288,9.6288,9.6288,9.6288,9.6288,9.6288,9.6288,9.6288,9.6288,9.6288,9.6288,9.6288,9.698,9.6942,9.5249,9.5172,9.498,9.4022,9.5093,9.6018,9.6198,9.7965,9.8906,9.8086,9.8008,9.7929,9.7734,9.7695,9.7695,9.7695,9.7695,9.7695,9.7695,9.7695,9.7695,9.7695,9.7695,9.7695,9.7695,9.7695,9.7695,9.7695,9.7695,9.7695,9.7695,9.7695,9.7695,9.7695,9.7695,9.7695,9.7695,9.7695,9.7695,9.7695,9.7695,9.7695,9.7695,9.7556,9.7402,9.721,9.6442,9.6288,9.6288,9.6288,9.6288,9.6288,9.6288,9.6288,9.6288,9.6288,9.6288,9.6288,9.6288,9.6288,9.6288,9.6288,9.6288,9.6288,9.6288,9.6288,9.6288,9.6288,9.6288,9.6288,9.6288,9.6288,9.6288,9.6288,9.6288,9.6288,9.6326,9.7134,9.7519,9.7596,9.9288,9.9981,10.0096,10.0904,10.1212,10.1096,10.0404,10.0173,10.0096,9.9211,9.8904,9.875,9.7904,9.7596,9.7442,9.6634,9.6403,9.6365,9.6326,9.6288,9.6288,9.6288,9.6288,9.6288,9.6288,9.6288,9.6288,9.6288,9.6288,9.6288,9.6288,9.6288,9.6288,9.6288,9.698,9.6942,9.5249,9.5672,9.6442,9.7057,9.6788,9.7479,10.0106,9.9985,9.9609,9.8945,9.8906,9.8554,9.7773,9.7695,9.7695,9.7695,9.7695,9.7695,9.7695,9.7695,9.7695,9.7695,9.7695,9.7695,9.7695,9.7695,9.7695,9.7695,9.7695,9.7695,9.7695,9.7695,9.7695,9.7695,9.7695,9.7695,9.7695,9.7695,9.7695,9.7695,9.7695,9.7695,9.7695,9.8366,9.8288,9.821,9.7902,9.7825,9.7825,9.7825,9.7825,9.7825,9.7825,9.7402,9.7056,9.7056,9.6596,9.6288,9.6288,9.6288,9.6288,9.6288,9.6288,9.6288,9.6288,9.6288,9.6288,9.6288,9.6288,9.6288,9.6288,9.6288,9.6288,9.6288,9.6288,9.6288,9.6326,9.7134,9.7519,9.7596,9.8788,9.9288,9.9327,9.9635,9.975,9.9712,9.9404,9.9288,9.9173,9.8288,9.798,9.7865,9.7057,9.6749,9.6711,9.6403,9.6288,9.6288,9.6288,9.6288,9.6288,9.6288,9.6288,9.6288,9.6288,9.6288,9.6288,9.6288,9.6288,9.6288,9.6288,9.6711,9.7057,9.7057,9.8173,9.8404,9.6172,9.7827,9.8981,9.7673,9.8827,10.0015,10.0672,10.0684,10.0508,9.9844,9.9804,9.9453,9.8554,9.8515,9.8281,9.7734,9.7695,9.7695,9.7695,9.7695,9.7695,9.7695,9.7695,9.7695,9.7695,9.7695,9.7695,9.7695,9.7695,9.7695,9.7695,9.7695,9.7695,9.7695,9.7695,9.7695,9.7695,9.7695,9.7695,9.7695,9.7695,9.7695,9.7695,9.925,9.9211,9.9134,9.8865,9.8826,9.8826,9.8826,9.8826,9.8826,9.8826,9.8288,9.7904,9.7902,9.7441,9.6942,9.6673,9.6673,9.6557,9.6326,9.6288,9.6288,9.6288,9.6288,9.6288,9.6288,9.6288,9.6288,9.6288,9.6288,9.6288,9.6288,9.6288,9.6288,9.6326,9.7134,9.7519,9.7557,9.8442,9.8788,9.8788,9.8788,9.8788,9.875,9.8481,9.8404,9.8288,9.7442,9.7134,9.7057,9.648,9.6288,9.6288,9.6288,9.6288,9.6288,9.6288,9.6288,9.6288,9.6288,9.648,9.6634,9.6365,9.6288,9.6288,9.6288,9.6288,9.6365,9.6634,9.7134,9.7596,9.7865,9.9096,9.9519,9.7788,9.9635,10.0712,9.8942,10.0404,10.1481,10.1212,10.1409,10.1308,10.0781,10.0703,10.0195,9.9101,9.8984,9.8633,9.7734,9.7695,9.7695,9.7695,9.7695,9.7695,9.7695,9.7695,9.7695,9.7695,9.7695,9.7695,9.7695,9.7695,9.7695,9.7695,9.7695,9.7695,9.7695,9.7695,9.7695,9.7695,9.7695,9.7695,9.7695,9.7695,9.7695,9.7695,10.0288,10.0096,9.9865,9.898,9.8827,9.8827,9.8827,9.8827,9.8827,9.8827,9.8827,9.8789,9.8825,9.8786,9.844,9.7556,9.7479,9.7171,9.6365,9.6288,9.6288,9.6288,9.6288,9.6288,9.6288,9.6288,9.6288,9.6288,9.6288,9.6288,9.6288,9.6288,9.6288,9.6326,9.7134,9.748,9.7557,9.8404,9.8788,9.8788,9.8788,9.8788,9.8673,9.7827,9.748,9.7403,9.6596,9.6288,9.6288,9.6288,9.6288,9.6288,9.6288,9.6288,9.6288,9.6288,9.6288,9.6326,9.6326,9.6903,9.7326,9.6519,9.6326,9.6326,9.6326,9.6326,9.6557,9.7365,9.7519,9.7788,9.8634,9.9519,10.0096,10.0096,10.0789,10.1289,10.1289,10.1289,10.1481,10.1981,10.2085,10.2022,10.1599,10.1601,10.0898,9.914,9.8984,9.8594,9.7734,9.7695,9.7695,9.7695,9.7695,9.7695,9.7695,9.7695,9.7695,9.7695,9.7695,9.7695,9.7695,9.7695,9.7695,9.7695,9.7695,9.7695,9.7695,9.7695,9.7695,9.7695,9.7695,9.7695,9.7695,9.7695,9.7695,9.7695,10.1019,10.0904,10.0904,10.0596,10.0596,10.0596,10.0596,10.0596,10.0404,9.9788,9.9711,9.925,9.8019,9.7866,9.7558,9.6713,9.6674,9.6557,9.6326,9.6288,9.6288,9.6288,9.6288,9.6288,9.6288,9.6288,9.6288,9.6288,9.6288,9.6288,9.6288,9.6288,9.6288,9.6326,9.6557,9.6673,9.6673,9.6942,9.7057,9.7057,9.7057,9.7057,9.7019,9.6749,9.6673,9.6634,9.6403,9.6288,9.6288,9.6288,9.6288,9.6288,9.6288,9.6288,9.6288,9.6288,9.6711,9.7134,9.7134,9.775,9.8211,9.7365,9.7596,9.8057,9.8057,9.8057,9.8134,9.8365,9.8904,9.9404,9.9635,10.0404,10.0904,10.0904,10.1096,10.1289,10.1289,10.1289,10.1481,10.1981,10.2085,10.2217,10.2498,10.1992,10.1094,10.0,9.8789,9.7969,9.7695,9.7695,9.7695,9.7695,9.7695,9.7695,9.7695,9.7695,9.7695,9.7695,9.7695,9.7695,9.7695,9.7695,9.7695,9.7695,9.7695,9.7695,9.7695,9.7695,9.7695,9.7695,9.7695,9.7695,9.7695,9.7695,9.7695,9.7695,10.1289,10.1289,10.1289,10.1289,10.1289,10.1289,10.1289,10.1019,10.0673,10.0211,9.9827,9.9173,9.8096,9.8019,9.7712,9.6866,9.6481,9.6288,9.6288,9.6288,9.6288,9.6288,9.6288,9.6288,9.6288,9.6288,9.6288,9.6288,9.6288,9.6288,9.6288,9.6288,9.6288,9.6288,9.6288,9.6288,9.6288,9.6288,9.6288,9.6288,9.6288,9.6288,9.6288,9.6288,9.6288,9.6288,9.6288,9.6288,9.6288,9.6288,9.6288,9.6365,9.6673,9.6557,9.6442,9.7096,9.7403,9.7596,9.7904,9.8634,9.9173,9.8673,9.8673,9.8788,9.8788,9.8788,9.8904,9.925,9.9712,10.0173,10.0481,10.1019,10.1289,10.1289,10.1289,10.1289,10.1289,10.1289,10.1481,10.1981,10.2085,10.2217,10.238,10.1914,10.1094,9.9883,9.8476,9.7695,9.7695,9.7695,9.7695,9.7695,9.7695,9.7695,9.7695,9.7695,9.7695,9.7695,9.7695,9.7695,9.7695,9.7695,9.7695,9.7695,9.7695,9.7695,9.7695,9.7695,9.7695,9.7695,9.7695,9.7695,9.7695,9.7695,9.7929,9.8164,10.1289,10.1289,10.1289,10.1289,10.1289,10.1289,10.1212,10.048,9.9942,9.9788,9.9095,9.8518,9.8365,9.8404,9.8133,9.7364,9.6673,9.6288,9.6288,9.6288,9.6288,9.6288,9.6288,9.6288,9.6288,9.6288,9.6288,9.6288,9.6288,9.6288,9.6288,9.6288,9.6288,9.6288,9.6288,9.6288,9.6288,9.6288,9.6288,9.6288,9.6288,9.6288,9.6288,9.6288,9.6288,9.6288,9.6288,9.6288,9.6288,9.6288,9.6365,9.6557,9.7288,9.7057,9.6826,9.8365,9.8288,9.7904,9.8711,9.9558,10.0212,10.0212,9.9596,9.9019,9.9019,9.9019,9.925,9.9981,10.0212,10.0404,10.1212,10.1289,10.1289,10.1289,10.1289,10.1289,10.1289,10.1289,10.1481,10.1904,10.2007,10.1905,10.1482,10.1406,10.0703,9.9023,9.8164,9.7695,9.7695,9.7695,9.7695,9.7695,9.7695,9.7695,9.7695,9.7695,9.7695,9.7695,9.7695,9.7695,9.7695,9.7695,9.7695,9.7695,9.7695,9.7695,9.7695,9.7695,9.7695,9.7695,9.7695,9.7695,9.7695,9.7695,9.8242,9.8906,10.1289,10.1289,10.1289,10.1289,10.1289,10.1096,10.048,9.9634,9.8596,9.7326,9.6942,9.6326,9.4944,9.5405,9.5751,9.5558,9.6019,9.6288,9.6288,9.6288,9.6288,9.6288,9.6288,9.6288,9.6288,9.6288,9.6288,9.6288,9.6288,9.6288,9.6288,9.6288,9.6288,9.6288,9.6288,9.6288,9.6288,9.6288,9.6288,9.6288,9.6288,9.6288,9.6288,9.6288,9.6288,9.6288,9.6288,9.6288,9.6288,9.6288,9.6711,9.7288,9.7442,9.7865,9.8327,9.8673,9.9135,9.9558,9.975,10.0404,10.1019,10.1019,10.0904,10.0789,10.0789,10.0789,10.0789,10.1019,10.1019,10.1096,10.1289,10.1289,10.1289,10.1289,10.1289,10.1289,10.1289,10.1289,10.1212,10.1096,10.1088,10.0994,10.0584,9.9961,9.9101,9.8047,9.7812,9.7695,9.7695,9.7695,9.7695,9.7695,9.7695,9.7695,9.7695,9.7695,9.7695,9.7695,9.7695,9.7695,9.7695,9.7695,9.7695,9.7695,9.7695,9.7695,9.7695,9.7695,9.7695,9.7695,9.7695,9.7695,9.7695,9.7695,9.8242,9.9062,10.0788,10.0404,10.0096,10.0096,9.9788,9.9326,9.8904,9.8135,9.7135,9.5863,9.5324,9.4708,9.3787,9.4095,9.4403,9.4368,9.5174,9.5674,9.5674,9.6095,9.6288,9.6288,9.6288,9.6288,9.6288,9.6288,9.6288,9.6288,9.6288,9.6288,9.6288,9.6288,9.6288,9.6288,9.6288,9.6288,9.6288,9.6288,9.6288,9.6288,9.6288,9.6288,9.6288,9.6288,9.6288,9.6288,9.6288,9.6288,9.6365,9.6749,9.7134,9.7634,9.8481,9.875,9.8942,9.975,9.9981,10.0173,10.0596,10.1019,10.1289,10.1289,10.1289,10.1289,10.1289,10.1289,10.1289,10.1289,10.1289,10.1289,10.1289,10.1289,10.1289,10.1289,10.1289,10.1289,10.1289,10.1019,10.0712,10.0788,10.0507,10.0097,9.9724,9.8906,9.8203,9.7734,9.7695,9.7695,9.7695,9.7695,9.7695,9.7695,9.7695,9.7695,9.7695,9.7695,9.7695,9.7695,9.7695,9.7695,9.7695,9.7695,9.7695,9.7695,9.7695,9.7695,9.7695,9.7695,9.7695,9.7695,9.7695,9.7695,9.7695,9.7695,9.8242,9.9179,9.9788,9.8942,9.8365,9.8366,9.7789,9.7212,9.7097,9.6366,9.5555,9.4667,9.382,9.3281,9.3281,9.3435,9.3477,9.352,9.4289,9.4789,9.4789,9.5597,9.6095,9.6095,9.6211,9.6288,9.6288,9.6288,9.6288,9.6288,9.6288,9.6288,9.6288,9.6288,9.6288,9.6288,9.6288,9.6288,9.6288,9.6288,9.6288,9.6288,9.6288,9.6288,9.6288,9.6288,9.6288,9.6326,9.648,9.6596,9.6826,9.7519,9.7827,9.8211,9.9635,9.9712,9.9481,10.0904,10.0789,10.0481,10.1096,10.1289,10.1289,10.1289,10.1289,10.1289,10.1289,10.1289,10.1289,10.1289,10.1289,10.1289,10.1289,10.1289,10.1289,10.1289,10.1212,10.1096,10.1096,10.0404,9.9981,10.0327,9.972,9.9149,9.8827,9.8125,9.7695,9.7695,9.7695,9.7695,9.7695,9.7695,9.7695,9.7695,9.7695,9.7695,9.7695,9.7695,9.7695,9.7695,9.7695,9.7695,9.7695,9.7695,9.7695,9.7695,9.7695,9.7695,9.7695,9.7695,9.7695,9.7695,9.7695,9.7773,9.7929,9.8086,9.8594,9.9453,9.7865,9.7174,9.6634,9.6628,9.6517,9.6212,9.5481,9.4595,9.3782,9.2938,9.2091,9.1518,9.1518,9.2207,9.2669,9.2669,9.34,9.39,9.3868,9.4712,9.5174,9.5174,9.5903,9.6288,9.6288,9.6288,9.6288,9.6288,9.6288,9.6288,9.6288,9.6288,9.6288,9.6288,9.6288,9.6288,9.6288,9.6288,9.6288,9.6288,9.6288,9.6288,9.6288,9.6288,9.6288,9.6403,9.7096,9.7827,9.8481,9.8596,9.9135,9.9788,9.9981,10.0481,10.1019,10.1212,10.1212,10.1212,10.1289,10.1289,10.1289,10.1289,10.1289,10.1289,10.1289,10.1289,10.1289,10.1289,10.1289,10.1289,10.1289,10.1289,10.1289,10.1289,10.0712,10.0289,10.0289,9.9519,9.8904,9.8673,9.8234,9.7926,9.789,9.7773,9.7695,9.7695,9.7695,9.7695,9.7695,9.7695,9.7695,9.7695,9.7695,9.7695,9.7695,9.7695,9.7695,9.7695,9.7695,9.7695,9.7695,9.7695,9.7695,9.7695,9.7695,9.7695,9.7695,9.7695,9.7695,9.7695,9.7695,9.8164,9.8906,9.9687,10.0,10.0312,9.6288,9.5439,9.4824,9.4856,9.4513,9.4018,9.3672,9.3284,9.2707,9.1864,9.1441,9.121,9.121,9.1518,9.1748,9.1748,9.2553,9.3015,9.3056,9.3787,9.448,9.4982,9.5366,9.5789,9.6288,9.6288,9.6288,9.6288,9.6288,9.6288,9.6288,9.6288,9.6288,9.6288,9.6288,9.6288,9.6288,9.6288,9.6288,9.6288,9.6288,9.6288,9.6288,9.6288,9.6596,9.7096,9.7904,9.8481,9.8865,9.9365,9.9788,10.0173,10.0596,10.1019,10.1289,10.1289,10.1289,10.1289,10.1289,10.1289,10.1289,10.1289,10.1289,10.1289,10.1289,10.1289,10.1289,10.1289,10.1289,10.1289,10.1289,10.1289,10.1212,10.0712,10.0289,9.9904,9.9442,9.8634,9.7932,9.7595,9.7639,9.7695,9.7695,9.7695,9.7695,9.7695,9.7695,9.7695,9.7695,9.7695,9.7695,9.7695,9.7695,9.7695,9.7695,9.7695,9.7695,9.7695,9.7695,9.7695,9.7695,9.7695,9.7695,9.7695,9.7695,9.7695,9.7695,9.7695,9.7695,9.7695,9.7695,9.7929,9.8398,9.9258,9.957,9.9765]},{"header":{"parameterUnit":"m.s-1","parameterCategory":1,"la1":30.6,"la2":28.766,"lo1":-90.7593,"lo2":-88.6598,"dx":0.0162,"dy":0.0183,"nx":116,"ny":114,"refTime":"2022-11-10T06:00:00:Z","depth":0,"parameterNumber":3,"parameterNumberName":"V-component_of_WINDS"},"data":[0.0,0.0,0.0,0.0,0.0,0.0,0.0,0.0,0.0,0.0,0.0,0.0,0.0,0.0,0.0,0.0,0.0,0.0,0.0,0.0,0.0,0.0,0.0,0.0,0.0,0.0,0.0,0.0,0.0,0.0,0.0,0.0,0.0,0.0,0.0,0.0,0.0,0.0,0.0,0.0,0.0,0.0,0.0,0.0,0.0,0.0,0.0,0.0,0.0,0.0,0.0,0.0,0.0,0.0,0.0,0.0,0.0,0.0,0.0,0.0,0.0,0.0,0.0,0.0,0.0,0.0,0.0,0.0,0.0,0.0,0.0,0.0,0.0,0.0,0.0,0.0,0.0,0.0,0.0,0.0,0.0,0.0,0.0,0.0,0.0,0.0,0.0,0.0,0.0,0.0,0.0,0.0,0.0,0.0,0.0,0.0,0.0,0.0,0.0,0.0,0.0,0.0,0.0,0.0,0.0,0.0,0.0,0.0,0.0,0.0,0.0,0.0,0.0,0.0,0.0,0.0,0.0,0.0,0.0,0.0,0.0,0.0,0.0,0.0,0.0,0.0,0.0,0.0,0.0,0.0,0.0,0.0,0.0,0.0,0.0,0.0,0.0,0.0,0.0,0.0,0.0,0.0,0.0,0.0,0.0,0.0,0.0,0.0,0.0,0.0,0.0,0.0,0.0,0.0,0.0,0.0,0.0,0.0,0.0,0.0,0.0,0.0,0.0,0.0,0.0,0.0,0.0,0.0,0.0,0.0,0.0,0.0,0.0,0.0,0.0,0.0,0.0,0.0,0.0,0.0,0.0,0.0,0.0,0.0,0.0,0.0,0.0,0.0,0.0,0.0,0.0,0.0,0.0,0.0,0.0,0.0,0.0,0.0,0.0,0.0,0.0,0.0,0.0,0.0,0.0,0.0,0.0,0.0,0.0,0.0,0.0,0.0,0.0,0.0,0.0,0.0,0.0,0.0,0.0,0.0,0.0,0.0,0.0,0.0,0.0,0.0,0.0,0.0,0.0,0.0,0.0,0.0,0.0,0.0,0.0,0.0,0.0,0.0,0.0,0.0,0.0,0.0,0.0,0.0,0.0,0.0,0.0,0.0,0.0,0.0,0.0,0.0,0.0,0.0,0.0,0.0,0.0,0.0,0.0,0.0,0.0,0.0,0.0,0.0,0.0,0.0,0.0,0.0,0.0,0.0,0.0,0.0,0.0,0.0,0.0,0.0,0.0,0.0,0.0,0.0,0.0,0.0,0.0,0.0,0.0,0.0,0.0,0.0,0.0,0.0,0.0,0.0,0.0,0.0,0.0,0.0,0.0,0.0,0.0,0.0,0.0,0.0,0.0,0.0,0.0,0.0,0.0,0.0,0.0,0.0,0.0,0.0,0.0,0.0,0.0,0.0,0.0,0.0,0.0,0.0,0.0,0.0,0.0,0.0,0.0,0.0,0.0,0.0,0.0,0.0,0.0,0.0,0.0,0.0,0.0,0.0,0.0,0.0,0.0,0.0,0.0,0.0,0.0,0.0,0.0,0.0,0.0,0.0,0.0,0.0,0.0,0.0,0.0,0.0,0.0,0.0,0.0,0.0,0.0,0.0,0.0,0.0,0.0,0.0,0.0,0.0,0.0,0.0,0.0,0.0,0.0,0.0,0.0,0.0,0.0,0.0,0.0,0.0,0.0,0.0,0.0,0.0,0.0,0.0,0.0,0.0,0.0,0.0,0.0,0.0,0.0,0.0,0.0,0.0,0.0,0.0,0.0,0.0,0.0,0.0,0.0,0.0,0.0,0.0,0.0,0.0,0.0,0.0,0.0,0.0,0.0,0.0,0.0,0.0,0.0,0.0,0.0,0.0,0.0,0.0,0.0,0.0,0.0,0.0,0.0,0.0,0.0,0.0,0.0,0.0,0.0,0.0,0.0,0.0,0.0,0.0,0.0,0.0,0.0,0.0,0.0,0.0,0.0,0.0,0.0,0.0,0.0,0.0,0.0,0.0,0.0,0.0,0.0,0.0,0.0,0.0,0.0,0.0,0.0,0.0,0.0,0.0,0.0,0.0,0.0,0.0,0.0,0.0,0.0,0.0,0.0,0.0,0.0,0.0,0.0,0.0,0.0,0.0,0.0,0.0,0.0,0.0,0.0,0.0,0.0,0.0,0.0,0.0,0.0,0.0,0.0,0.0,0.0,0.0,0.0,0.0,0.0,0.0,0.0,0.0,0.0,0.0,0.0,0.0,0.0,0.0,0.0,0.0,0.0,0.0,0.0,0.0,0.0,0.0,0.0,0.0,0.0,0.0,0.0,0.0,0.0,0.0,0.0,0.0,0.0,0.0,0.0,0.0,0.0,0.0,0.0,0.0,0.0,0.0,0.0,0.0,0.0,0.0,0.0,0.0,0.0,0.0,0.0,0.0,0.0,0.0,0.0,0.0,0.0,0.0,0.0,0.0,0.0,0.0,0.0,0.0,0.0,0.0,0.0,0.0,0.0,0.0,0.0,0.0,0.0,0.0,0.0,0.0,0.0,0.0,0.0,0.0,0.0,0.0,0.0,0.0,0.0,0.0,0.0,0.0,0.0,0.0,0.0,0.0,0.0,0.0,0.0,0.0,0.0,0.0,0.0,0.0,0.0,0.0,0.0,0.0,0.0,0.0,0.0,0.0,0.0,0.0,0.0,0.0,0.0,0.0,0.0,0.0,0.0,0.0,0.0,0.0,0.0,0.0,0.0,0.0,0.0,0.0,0.0,0.0,0.0,0.0,0.0,0.0,0.0,0.0,0.0,0.0,0.0,0.0,0.0,0.0,0.0,0.0,0.0,0.0,0.0,0.0,0.0,0.0,0.0,0.0,0.0,0.0,0.0,0.0,0.0,0.0,0.0,0.0,0.0,0.0,0.0,0.0,0.0,0.0,0.0,0.0,0.0,0.0,0.0,0.0,0.0,0.0,0.0,0.0,0.0,0.0,0.0,0.0,0.0,0.0,0.0,0.0,0.0,0.0,0.0,0.0,0.0,0.0,0.0,0.0,0.0,0.0,0.0,0.0,0.0,0.0,0.0,0.0,0.0,0.0,0.0,0.0,0.0,0.0,0.0,0.0,0.0,0.0,0.0,0.0,0.0,0.0,0.0,0.0,0.0,0.0,0.0,0.0,0.0,0.0,0.0,0.0,0.0,0.0,0.0,0.0,0.0,0.0,0.0,0.0,0.0,0.0,0.0,0.0,0.0,0.0,0.0,0.0,0.0,0.0,0.0,0.0,0.0,0.0,0.0,0.0,0.0,0.0,0.0,0.0,0.0,0.0,0.0,0.0,0.0,0.0,0.0,0.0,0.0,0.0,0.0,0.0,0.0,0.0,0.0,0.0,0.0,0.0,0.0,0.0,0.0,0.0,0.0,0.0,0.0,0.0,0.0,0.0,0.0,0.0,0.0,0.0,0.0,0.0,0.0,0.0,0.0,0.0,0.0,0.0,0.0,0.0,0.0,0.0,0.0,0.0,0.0,0.0,0.0,0.0,0.0,0.0,0.0,0.0,0.0,0.0,0.0,0.0,0.0,0.0,0.0,0.0,0.0,0.0,0.0,0.0,0.0,0.0,0.0,0.0,0.0,0.0,0.0,0.0,0.0,0.0,0.0,0.0,0.0,0.0,0.0,0.0,0.0,0.0,0.0,0.0,0.0,0.0,0.0,0.0,0.0,0.0,0.0,0.0,0.0,0.0,0.0,0.0,0.0,0.0,0.0,0.0,0.0,0.0,0.0,0.0,0.0,0.0,0.0,0.0,0.0,0.0,0.0,0.0,0.0,0.0,0.0,0.0,0.0,0.0,0.0,0.0,0.0,0.0,0.0,0.0,0.0,0.0,0.0,0.0,0.0,0.0,0.0,0.0,0.0,0.0,0.0,0.0,0.0,0.0,0.0,0.0,0.0,0.0,0.0,0.0,0.0,0.0,0.0,0.0,0.0,0.0,0.0,0.0,0.0,0.0,0.0,0.0,0.0,0.0,0.0,0.0,0.0,0.0,0.0,0.0,0.0,0.0,0.0,0.0,0.0,0.0,0.0,0.0,0.0,0.0,0.0,0.0,0.0,0.0,0.0,0.0,0.0,0.0,0.0,0.0,0.0,0.0,0.0,0.0,0.0,0.0,0.0,0.0,0.0,0.0,0.0,0.0,0.0,0.0,0.0,0.0,0.0,0.0,0.0,0.0,0.0,0.0,0.0,0.0,0.0,0.0,0.0,0.0,0.0,0.0,0.0,0.0,0.0,0.0,0.0,0.0,0.0,0.0,0.0,0.0,0.0,0.0,0.0,0.0,0.0,0.0,0.0,0.0,0.0,0.0,0.0,0.0,0.0,0.0,0.0,0.0,0.0,0.0,0.0,0.0,0.0,0.0,0.0,0.0,0.0,0.0,0.0,0.0,0.0,0.0,0.0,0.0,0.0,0.0,0.0,0.0,0.0,0.0,0.0,0.0,0.0,0.0,0.0,0.0,0.0,0.0,0.0,0.0,0.0,0.0,0.0,0.0,0.0,0.0,0.0,0.0,0.0,0.0,0.0,0.0,0.0,0.0,0.0,0.0,0.0,0.0,0.0,0.0,0.0,0.0,0.0,0.0,0.0,0.0,0.0,0.0,0.0,0.0,0.0,0.0,0.0,0.0,0.0,0.0,0.0,0.0,0.0,0.0,0.0,0.0,0.0,0.0,0.0,0.0,0.0,0.0,0.0,0.0,0.0,0.0,0.0,0.0,0.0,0.0,0.0,0.0,0.0,0.0,0.0,0.0,0.0,0.0,0.0,0.0,0.0,0.0,0.0,0.0,0.0,0.0,0.0,0.0,0.0,0.0,0.0,0.0,0.0,0.0,0.0,0.0,0.0,0.0,0.0,0.0,0.0,0.0,0.0,0.0,0.0,0.0,0.0,0.0,0.0,0.0,0.0,0.0,0.0,0.0,0.0,0.0,0.0,0.0,0.0,0.0,0.0,0.0,0.0,0.0,0.0,0.0,0.0,0.0,0.0,0.0,0.0,0.0,0.0,0.0,0.0,0.0,0.0,0.0,0.0,0.0,0.0,0.0,0.0,0.0,0.0,0.0,0.0,0.0,0.0,0.0,0.0,0.0,0.0,0.0,0.0,0.0,0.0,0.0,0.0,0.0,0.0,0.0,0.0,0.0,0.0,0.0,0.0,0.0,0.0,0.0,0.0,0.0,0.0,0.0,0.0,0.0,0.0,0.0,0.0,0.0,0.0,0.0,0.0,0.0,0.0,0.0,0.0,0.0,0.0,0.0,0.0,0.0,0.0,0.0,0.0,0.0,0.0,0.0,0.0,0.0,0.0,0.0,0.0,0.0,0.0,0.0,0.0,0.0,0.0,0.0,0.0,0.0,0.0,0.0,0.0,0.0,0.0,0.0,0.0,0.0,0.0,0.0,0.0,0.0,0.0,0.0,0.0,0.0,0.0,0.0,0.0,0.0,0.0,0.0,0.0,0.0,0.0,0.0,0.0,0.0,0.0,0.0,0.0,0.0,0.0,0.0,0.0,0.0,0.0,0.0,0.0,0.0,0.0,0.0,0.0,0.0,0.0,0.0,0.0,0.0,0.0,0.0,0.0,0.0,0.0,0.0,0.0,0.0,0.0,0.0,0.0,0.0,0.0,0.0,0.0,0.0,0.0,0.0,0.0,0.0,0.0,0.0,0.0,0.0,0.0,0.0,0.0,0.0,0.0,0.0,0.0,0.0,0.0,0.0,0.0,0.0,0.0,0.0,0.0,0.0,0.0,0.0,0.0,0.0,0.0,0.0,0.0,0.0,0.0,0.0,0.0,0.0,0.0,0.0,0.0,0.0,0.0,0.0,0.0,0.0,0.0,0.0,0.0,0.0,0.0,0.0,0.0,0.0,0.0,0.0,0.0,0.0,0.0,0.0,0.0,0.0,0.0,0.0,0.0,0.0,0.0,0.0,0.0,0.0,0.0,0.0,0.0,0.0,0.0,0.0,0.0,0.0,0.0,0.0,0.0,0.0,0.0,0.0,0.0,0.0,0.0,0.0,0.0,0.0,0.0,0.0,0.0,0.0,0.0,0.0,0.0,0.0,0.0,0.0,0.0,0.0,0.0,0.0,-0.843,-0.8484,0.0,0.0,0.0,0.0,0.0,0.0,0.0,0.0,0.0,0.0,0.0,0.0,0.0,0.0,0.0,0.0,0.0,0.0,0.0,0.0,0.0,0.0,0.0,-0.5908,-0.5942,-0.6017,-0.6023,0.0,0.0,0.0,0.0,0.0,0.0,0.0,-0.6458,-0.6681,-0.6871,-0.7021,-0.7027,-0.6358,-0.5294,-0.5181,-0.5942,-0.7388,0.0,0.0,0.0,0.0,0.0,0.0,0.0,0.0,0.0,0.0,0.0,0.0,0.0,0.0,0.0,0.0,0.0,0.0,0.0,0.0,0.0,0.0,0.0,0.0,0.0,0.0,0.0,0.0,0.0,0.0,0.0,0.0,0.0,0.0,0.0,0.0,0.0,0.0,0.0,0.0,0.0,0.0,0.0,0.0,0.0,0.0,0.0,0.0,0.0,0.0,0.0,0.0,0.0,0.0,0.0,0.0,0.0,0.0,0.0,0.0,0.0,0.0,0.0,0.0,0.0,0.0,0.0,0.0,0.0,0.0,-0.751,-0.6081,0.0,0.0,0.0,0.0,0.0,0.0,0.0,0.0,0.0,0.0,0.0,0.0,0.0,0.0,0.0,0.0,0.0,0.0,0.0,0.0,0.0,-0.5949,-0.6125,-0.6146,-0.6207,-0.6363,-0.6376,-0.639,-0.641,-0.6417,0.0,0.0,-0.6736,-0.6878,-0.7,-0.7149,-0.7269,-0.7455,-0.7287,-0.6253,-0.4413,-0.3799,-0.5118,-0.7762,-0.756,0.0,0.0,0.0,0.0,0.0,0.0,0.0,0.0,0.0,0.0,0.0,0.0,0.0,0.0,0.0,0.0,0.0,0.0,0.0,0.0,0.0,0.0,0.0,0.0,0.0,0.0,0.0,0.0,0.0,0.0,0.0,0.0,0.0,0.0,0.0,0.0,0.0,0.0,0.0,0.0,0.0,0.0,0.0,0.0,0.0,0.0,0.0,0.0,0.0,0.0,0.0,0.0,0.0,0.0,0.0,0.0,0.0,0.0,0.0,0.0,0.0,0.0,0.0,-0.4302,-0.3733,-0.3733,-0.4332,-0.6138,-0.884,-0.6864,-0.3751,-0.043,-0.6157,0.0,0.0,0.0,0.0,0.0,0.0,0.0,0.0,0.0,0.0,0.0,0.0,0.0,0.0,0.0,0.0,0.0,0.0,0.0,-0.6308,-0.658,-0.6614,-0.6675,-0.6824,-0.6844,-0.6892,-0.7014,-0.7027,-0.7034,-0.7048,-0.7197,-0.7292,-0.7312,-0.7461,-0.7537,-0.7648,-0.7847,-0.7736,-0.7328,-0.4803,-0.5222,-0.8001,-0.7889,-0.7881,-0.7883,0.0,0.0,0.0,0.0,0.0,0.0,0.0,0.0,0.0,0.0,0.0,0.0,0.0,0.0,0.0,0.0,0.0,0.0,0.0,0.0,0.0,0.0,0.0,0.0,0.0,0.0,0.0,0.0,0.0,0.0,0.0,0.0,0.0,0.0,0.0,0.0,0.0,0.0,0.0,0.0,0.0,-0.8988,-0.9985,0.0,0.0,0.0,0.0,0.0,0.0,0.0,0.0,0.0,0.0,0.0,0.0,0.0,-1.0957,-1.0938,-0.9703,-0.9625,-1.06,-0.3781,-0.0661,-0.0661,-0.3309,-0.6133,-0.8948,-0.8521,0.0,-0.0,-0.1046,0.0,0.0,0.0,0.0,0.0,0.0,0.0,0.0,0.0,0.0,0.0,0.0,0.0,0.0,0.0,0.0,0.0,0.0,0.0,0.0,0.0,-0.7251,-0.7516,-0.7672,-0.7916,-0.7977,-0.7787,-0.7773,-0.7665,-0.7407,-0.7543,-0.7658,-0.7746,-0.782,-0.785,-0.7904,-0.7975,-0.7957,-0.7893,-0.3519,-0.2307,-0.3536,-0.5146,-0.5719,-0.577,-0.5646,0.0,0.0,0.0,0.0,0.0,0.0,0.0,0.0,0.0,0.0,0.0,0.0,0.0,0.0,0.0,0.0,0.0,0.0,0.0,0.0,0.0,0.0,0.0,0.0,0.0,0.0,0.0,0.0,0.0,0.0,0.0,0.0,0.0,0.0,0.0,0.0,0.0,0.0,0.0,-0.8859,-0.9571,-1.0541,-1.0243,-0.9985,0.0,0.0,0.0,0.0,0.0,0.0,0.0,0.0,0.0,-1.0715,-0.8697,-0.913,-1.2446,-1.1842,-0.9277,-0.4984,-0.1563,0.0,-0.0,-0.1398,-0.2621,-0.3842,-0.394,-0.2362,0.0,0.0,-0.1996,-0.5199,0.0,0.0,0.0,0.0,-0.6839,-0.7135,0.0,0.0,0.0,0.0,0.0,0.0,0.0,0.0,0.0,0.0,0.0,0.0,-0.7414,-0.7963,-0.837,-0.8486,-0.8798,-0.8838,-0.8465,-0.8438,-0.8255,-0.7841,-0.7923,-0.8052,-0.8208,-0.7345,-0.736,-0.8005,-0.6586,-0.5907,-0.5848,-0.1789,0.0,-0.0164,-0.2116,-0.3047,-0.2984,-0.2942,-0.304,-0.3148,0.0,0.0,0.0,0.0,0.0,0.0,0.0,0.0,0.0,0.0,0.0,0.0,0.0,0.0,0.0,0.0,0.0,0.0,0.0,0.0,0.0,0.0,0.0,0.0,0.0,0.0,0.0,0.0,0.0,0.0,0.0,0.0,0.0,0.0,0.0,0.0,0.0,-0.9652,-1.0243,-1.1179,-1.0995,-1.0826,0.0,0.0,0.0,0.0,0.0,0.0,-1.1965,-1.156,-1.0647,-0.9145,-0.559,-0.5726,-1.0015,-0.9991,-0.6673,0.0,0.0,0.0,0.0,0.0,0.0,0.0,0.0,0.0,0.0,0.0,0.0,-0.0326,-0.3525,-0.5984,-0.7586,-0.6762,-0.5208,-0.3984,0.0,0.0,0.0,0.0,0.0,0.0,0.0,0.0,0.0,0.0,0.0,-0.8045,-0.8194,-0.8743,-0.9103,-0.911,-0.913,-0.9076,-0.8913,-0.8906,-0.8764,-0.8452,-0.8445,-0.852,-0.8676,-0.5758,-0.5418,-0.8026,-0.2915,-0.0335,-0.0336,-0.017,0.0,-0.0,-0.0168,-0.016,-0.0148,-0.0146,-0.0139,-0.026,-0.0368,0.0,0.0,0.0,0.0,0.0,0.0,0.0,0.0,0.0,0.0,0.0,0.0,0.0,0.0,0.0,0.0,0.0,0.0,0.0,0.0,0.0,0.0,0.0,0.0,0.0,0.0,0.0,0.0,0.0,0.0,0.0,0.0,0.0,0.0,0.0,0.0,0.0,0.0,-1.2101,-1.2576,0.0,0.0,0.0,0.0,-1.2006,-1.202,-1.2305,-1.2749,-1.2238,-0.848,-0.0875,-0.0358,-0.0361,-0.0717,-0.071,-0.0533,0.0,0.0,0.0,0.0,0.0,0.0,0.0,0.0,0.0,0.0,0.0,0.0,-0.0,-0.0169,-0.0332,-0.132,-0.8011,-0.6025,-0.0336,0.0,0.0,0.0,-0.5494,-0.563,-0.5813,-0.6057,-0.6437,-0.6783,-0.7034,-0.7801,-0.8343,-0.8397,-0.9198,-0.9727,-0.9727,-1.0086,-1.0168,-0.9822,-0.9713,-0.9476,-0.9076,-0.8879,-0.88,-0.8887,-0.767,-0.5792,-0.2791,-0.1016,0.0,0.0,0.0,0.0,0.0,0.0,0.0,0.0,0.0,0.0,0.0,0.0,-0.1171,0.0,0.0,0.0,0.0,0.0,0.0,0.0,0.0,0.0,0.0,0.0,0.0,0.0,0.0,0.0,0.0,0.0,0.0,0.0,0.0,0.0,0.0,0.0,0.0,0.0,0.0,0.0,0.0,0.0,0.0,0.0,0.0,0.0,0.0,0.0,0.0,0.0,-1.1874,-1.2548,0.0,-1.3241,-1.2949,-1.2829,-1.3064,-1.3424,-1.3736,-1.396,-1.3572,-1.0843,-0.4843,-0.1619,0.0,0.0,0.0,0.0,0.0,0.0,0.0,0.0,0.0,0.0,0.0,0.0,0.0,0.0,0.0,0.0,0.0,0.0,0.0,-0.0356,-0.284,-0.2119,0.0,0.0,0.0,0.0,-0.5569,-0.5793,-0.6023,-0.6227,-0.6681,-0.7129,-0.7475,-0.8262,-0.8866,-0.9069,-0.9842,-1.0351,-1.0351,-1.0717,-1.0758,-1.031,-1.0229,-0.9978,-0.9483,-0.9327,-0.9136,-0.8946,-0.9105,-0.6126,0.0,0.0,0.0,0.0,0.0,0.0,0.0,0.0,0.0,0.0,0.0,0.0,0.0,0.0,0.0,-0.038,0.0,0.0,0.0,0.0,0.0,0.0,0.0,0.0,0.0,0.0,0.0,0.0,0.0,0.0,0.0,0.0,0.0,0.0,0.0,0.0,0.0,0.0,0.0,0.0,0.0,0.0,0.0,0.0,0.0,0.0,0.0,0.0,0.0,0.0,-1.0473,-1.0625,-1.0548,-1.1259,-1.2332,-1.3707,-1.3546,-1.3539,-1.3844,-1.4265,-1.4509,-1.4509,-1.4417,-1.2794,-0.964,-0.325,0.0,0.0,0.0,0.0,0.0,0.0,0.0,0.0,0.0,0.0,0.0,0.0,0.0,0.0,0.0,0.0,0.0,0.0,0.0,0.0,0.0,0.0,0.0,0.0,0.0,-0.5589,-0.5596,-0.5962,-0.6268,-0.6274,-0.677,-0.7421,-0.8174,-0.892,-0.9612,-1.0209,-1.0677,-1.0948,-1.0948,-1.0962,-1.0778,-1.0337,-1.0439,-1.0256,-0.9686,-0.9764,-0.9579,-0.8969,-0.9366,-0.6443,0.0,0.0,0.0,0.0,0.0,0.0,0.0,0.0,0.0,0.0,0.0,0.0,0.0,0.0,0.0,0.0,0.0,0.0,0.0,0.0,0.0,0.0,0.0,0.0,0.0,0.0,0.0,0.0,0.0,0.0,0.0,0.0,0.0,0.0,0.0,0.0,0.0,0.0,0.0,0.0,0.0,0.0,0.0,0.0,0.0,0.0,0.0,0.0,0.0,-1.0624,-1.1115,-1.0776,-0.8428,-0.9108,-1.0854,-1.3928,-1.4346,-1.4462,-1.4319,-1.4441,-1.4516,-1.4509,-1.4348,-1.4408,-1.4276,-0.5288,-0.0365,-0.0,0.0,0.0,0.0,0.0,0.0,0.0,0.0,0.0,0.0,0.0,0.0,0.0,0.0,0.0,0.0,0.0,0.0,0.0,0.0,0.0,0.0,-0.5425,-0.5488,-0.5623,-0.5725,-0.603,-0.6335,-0.6546,-0.6993,-0.7543,-0.8187,-0.892,-0.9571,-1.0059,-1.0616,-1.0948,-1.0948,-1.1246,-1.1287,-1.0941,-1.0955,-1.0637,-0.9958,-0.9876,-0.977,-0.9534,-0.511,-0.1753,0.0,0.0,0.0,0.0,0.0,0.0,0.0,0.0,0.0,0.0,0.0,0.0,0.0,0.0,0.0,0.0,0.0,0.0,0.0,0.0,0.0,0.0,0.0,0.0,0.0,0.0,0.0,0.0,0.0,0.0,0.0,0.0,0.0,0.0,0.0,0.0,0.0,0.0,0.0,0.0,0.0,0.0,0.0,0.0,0.0,0.0,0.0,-1.0329,-0.9356,-0.685,-0.8657,-1.0791,-1.2403,-1.2752,-1.3487,-1.4716,-1.459,-1.4423,-1.4363,-1.4302,-1.4477,-1.4998,-1.4888,-1.4658,-1.4271,-1.1742,-0.7116,-0.0,0.0,0.0,0.0,0.0,0.0,0.0,0.0,0.0,0.0,0.0,0.0,0.0,0.0,0.0,0.0,0.0,0.0,0.0,0.0,0.0,0.0,-0.5549,-0.5671,-0.58,-0.5881,-0.62,-0.6505,-0.6675,-0.7136,-0.7773,-0.8628,-0.9117,-0.9673,-1.0432,-1.0772,-1.0975,-1.1029,-1.128,-1.1328,-1.109,-1.0915,-1.0674,-1.0318,-1.0196,-0.8742,-0.579,-0.1927,0.0,0.0,0.0,0.0,0.0,0.0,0.0,0.0,0.0,0.0,0.0,0.0,0.0,0.0,0.0,0.0,0.0,0.0,0.0,-0.0288,-0.1979,-0.3781,-0.5404,-0.6651,0.0,0.0,0.0,0.0,0.0,0.0,0.0,0.0,0.0,0.0,0.0,0.0,0.0,0.0,0.0,0.0,0.0,0.0,0.0,0.0,0.0,0.0,0.0,0.0,-1.0169,-0.9492,-0.8612,-0.6915,-0.6295,-0.8106,-0.8399,-0.916,-1.1623,-1.1661,-1.1453,-1.1336,-1.1252,-1.1464,-1.1748,-1.3932,-1.4984,-1.4631,-1.0533,-0.5562,-0.0,0.0,0.0,0.0,0.0,0.0,0.0,0.0,0.0,0.0,0.0,0.0,0.0,0.0,0.0,0.0,0.0,0.0,0.0,0.0,0.0,0.0,-0.5806,-0.5922,-0.603,-0.603,-0.6403,-0.6702,-0.6702,-0.721,-0.8024,-0.9205,-0.9367,-0.9829,-1.1009,-1.1036,-1.1023,-1.1151,-1.1192,-1.1172,-1.0946,-1.0586,-1.0533,-1.0764,-0.9993,-0.6528,-0.0177,0.0,0.0,0.0,0.0,0.0,0.0,0.0,0.0,0.0,0.0,0.0,0.0,0.0,0.0,0.0,0.0,0.0,0.0,0.0,0.0,0.0,0.0,0.0,-0.0436,-0.3038,0.0,0.0,0.0,0.0,0.0,0.0,0.0,0.0,0.0,0.0,0.0,0.0,0.0,0.0,0.0,0.0,0.0,0.0,0.0,0.0,0.0,0.0,0.0,0.0,-0.9193,-0.9495,-1.1672,-0.5067,0.0,0.0,0.0,-0.1649,-0.5929,-0.6507,-0.6665,-0.6353,-0.6231,-0.6287,-0.6329,-1.0942,0.0,0.0,0.0,0.0,0.0,0.0,0.0,0.0,0.0,0.0,0.0,0.0,0.0,0.0,0.0,0.0,0.0,0.0,0.0,0.0,0.0,0.0,0.0,0.0,0.0,0.0,-0.5854,-0.5922,-0.603,-0.603,-0.6403,-0.6702,-0.6702,-0.721,-0.7984,-0.9055,-0.9306,-0.9795,-1.0873,-1.107,-1.1131,-1.1158,-1.1389,-1.1482,-1.127,-1.0908,-1.0579,-1.0629,-0.5179,-0.141,-0.0,0.0,0.0,0.0,0.0,0.0,0.0,0.0,0.0,0.0,0.0,0.0,0.0,0.0,0.0,0.0,0.0,0.0,0.0,0.0,0.0,0.0,0.0,0.0,-0.0163,-0.0631,-0.1229,-0.2246,-0.4791,-0.5467,0.0,0.0,0.0,0.0,0.0,0.0,0.0,0.0,0.0,0.0,0.0,0.0,0.0,0.0,0.0,0.0,0.0,0.0,0.0,-1.0474,-0.5613,-0.2002,-0.2525,-0.1087,0.0,0.0,0.0,-0.037,-0.1288,-0.1463,-0.1449,-0.1432,-0.1444,-0.1443,-0.1421,-0.2348,-0.2928,-0.2953,-0.0936,0.0,0.0,0.0,0.0,0.0,0.0,0.0,0.0,0.0,0.0,0.0,0.0,0.0,0.0,0.0,0.0,0.0,0.0,0.0,0.0,0.0,0.0,0.0,-0.6064,-0.6091,-0.6166,-0.624,-0.6498,-0.6729,-0.6803,-0.7258,-0.7896,-0.871,-0.8954,-0.9388,-1.0283,-1.0446,-1.0555,-1.0711,-1.0935,-1.042,-0.8435,-0.9905,-0.9141,-0.5559,-0.1942,0.0,0.0,0.0,0.0,0.0,0.0,0.0,0.0,0.0,0.0,0.0,0.0,0.0,0.0,0.0,0.0,0.0,0.0,0.0,0.0,0.0,0.0,0.0,0.0,0.0,0.0,0.0,0.0,-0.0327,-0.1925,-0.2324,-0.3106,0.0,0.0,0.0,0.0,0.0,0.0,0.0,0.0,0.0,0.0,0.0,0.0,0.0,0.0,-0.9461,-0.807,0.0,-0.5069,-0.5293,-0.2316,0.0,0.0,0.0,0.0,0.0,0.0,0.0,0.0,0.0,0.0,0.0,0.0,0.0,0.0,0.0,0.0,0.0,0.0,0.0,0.0,0.0,0.0,0.0,0.0,0.0,0.0,0.0,0.0,0.0,0.0,0.0,0.0,0.0,0.0,0.0,0.0,0.0,0.0,0.0,0.0,0.0,-0.6338,-0.6338,-0.6302,-0.6451,-0.66,-0.6749,-0.6905,-0.7312,-0.7814,-0.8404,-0.8615,-0.8981,-0.97,-0.9802,-0.9944,-1.0256,-1.0541,-0.9334,-0.5596,-0.7355,-0.5992,-0.0179,0.0,0.0,0.0,0.0,0.0,0.0,0.0,0.0,0.0,0.0,0.0,0.0,0.0,0.0,0.0,0.0,0.0,0.0,0.0,0.0,0.0,0.0,0.0,0.0,0.0,0.0,0.0,0.0,0.0,0.0,0.0,-0.0503,-0.2063,-0.7121,-0.8581,0.0,0.0,0.0,0.0,0.0,0.0,0.0,0.0,-0.65,-0.5206,-0.4236,-0.6042,-0.8003,-0.8585,-0.3848,0.0,0.0,0.0,0.0,0.0,0.0,0.0,0.0,0.0,0.0,0.0,0.0,0.0,0.0,0.0,0.0,0.0,0.0,0.0,0.0,0.0,0.0,0.0,0.0,0.0,0.0,0.0,0.0,0.0,0.0,0.0,0.0,0.0,0.0,0.0,0.0,0.0,0.0,0.0,0.0,0.0,0.0,0.0,0.0,-0.6338,-0.6338,-0.6302,-0.6451,-0.66,-0.6749,-0.6905,-0.7312,-0.7814,-0.8404,-0.8615,-0.8947,-0.9564,-0.9747,-0.9944,-1.0256,-1.0779,-0.9513,-0.5695,-0.2846,-0.0883,-0.0,0.0,0.0,0.0,0.0,0.0,0.0,0.0,0.0,0.0,0.0,0.0,0.0,0.0,0.0,0.0,0.0,0.0,0.0,0.0,0.0,0.0,0.0,0.0,0.0,0.0,0.0,0.0,0.0,0.0,0.0,0.0,-0.221,-0.4992,-0.566,-0.5808,-0.6461,-0.9466,-1.0135,-1.0022,-0.9853,-0.7252,-0.4154,0.0,-0.5302,-0.7534,-0.1743,-0.0883,-0.1064,-0.1254,-0.0545,0.0,0.0,0.0,0.0,0.0,0.0,0.0,0.0,0.0,0.0,0.0,0.0,0.0,0.0,0.0,0.0,0.0,0.0,0.0,0.0,0.0,0.0,0.0,0.0,0.0,0.0,0.0,0.0,0.0,0.0,0.0,0.0,0.0,0.0,0.0,0.0,0.0,0.0,0.0,0.0,0.0,0.0,0.0,0.0,-0.6338,-0.6329,-0.643,-0.658,-0.6661,-0.6776,-0.7014,-0.7285,-0.759,-0.7923,-0.8099,-0.835,-0.8784,-0.9117,-0.9429,-0.9727,-1.021,-0.8974,-0.5676,-0.2004,0.0,0.0,0.0,0.0,0.0,0.0,0.0,0.0,0.0,0.0,0.0,0.0,0.0,0.0,0.0,0.0,0.0,0.0,0.0,0.0,0.0,0.0,0.0,0.0,0.0,0.0,0.0,0.0,0.0,0.0,0.0,0.0,0.0,-0.3917,-0.8503,-0.8552,-0.8474,-0.8765,-1.0215,-0.7508,-0.4137,-0.4042,-0.3133,-0.1734,-0.0337,-0.221,-0.3252,-0.0534,0.0,0.0,0.0,0.0,0.0,0.0,0.0,0.0,0.0,0.0,0.0,0.0,0.0,0.0,0.0,0.0,0.0,0.0,0.0,0.0,0.0,0.0,0.0,0.0,0.0,0.0,0.0,0.0,0.0,0.0,0.0,0.0,0.0,0.0,0.0,0.0,0.0,0.0,0.0,0.0,0.0,0.0,0.0,0.0,0.0,0.0,0.0,0.0,-0.6383,-0.6464,-0.658,-0.6736,-0.6763,-0.6851,-0.7102,-0.7272,-0.7428,-0.7584,-0.7726,-0.7929,-0.8235,-0.8635,-0.8981,-0.9239,-0.954,-0.8454,-0.5431,-0.1961,0.0,0.0,0.0,0.0,0.0,0.0,0.0,0.0,0.0,0.0,0.0,0.0,0.0,0.0,0.0,0.0,0.0,0.0,0.0,0.0,0.0,0.0,0.0,0.0,0.0,0.0,0.0,-0.1265,-0.2674,-0.0645,-0.0645,-0.161,-0.2676,-0.5781,-0.9422,-1.0514,-1.0743,-1.0806,-1.0775,-0.6868,-0.2543,-0.0502,0.0,0.0,0.0,0.0,0.0,0.0,0.0,0.0,0.0,0.0,0.0,0.0,0.0,0.0,0.0,0.0,0.0,0.0,0.0,0.0,0.0,0.0,0.0,0.0,0.0,0.0,0.0,0.0,0.0,0.0,0.0,0.0,0.0,0.0,0.0,0.0,0.0,0.0,0.0,0.0,0.0,0.0,0.0,0.0,0.0,0.0,0.0,0.0,0.0,0.0,0.0,0.0,0.0,0.0,-0.6688,-0.6688,-0.6742,-0.6898,-0.6919,-0.6973,-0.7115,-0.7272,-0.7428,-0.7584,-0.7726,-0.7929,-0.8235,-0.854,-0.8777,-0.894,-0.9439,-0.8418,-0.5075,-0.1875,0.0,0.0,0.0,0.0,0.0,0.0,0.0,0.0,0.0,0.0,0.0,0.0,0.0,0.0,0.0,0.0,0.0,0.0,0.0,0.0,0.0,0.0,0.0,0.0,0.0,0.0,0.0,-0.4455,-0.9303,-0.2299,-0.2258,-0.589,-0.9336,-0.8232,-0.6283,-0.9917,-1.0992,-1.0907,-1.0767,-1.0503,-0.8682,-0.1812,0.0,0.0,0.0,0.0,0.0,0.0,0.0,0.0,0.0,0.0,0.0,0.0,0.0,0.0,0.0,0.0,0.0,0.0,0.0,0.0,0.0,0.0,0.0,0.0,0.0,0.0,0.0,0.0,0.0,0.0,0.0,0.0,0.0,0.0,0.0,0.0,0.0,0.0,0.0,0.0,0.0,0.0,0.0,0.0,0.0,0.0,0.0,0.0,0.0,0.0,0.0,0.0,0.0,0.0,-0.6702,-0.6783,-0.6871,-0.6919,-0.7007,-0.7088,-0.7136,-0.7183,-0.7272,-0.7428,-0.7658,0.0,0.0,0.0,0.0,0.0,-0.8985,-0.8928,-0.825,-0.3014,0.0,0.0,0.0,0.0,0.0,0.0,0.0,0.0,0.0,0.0,0.0,0.0,0.0,0.0,0.0,0.0,0.0,0.0,0.0,0.0,0.0,0.0,0.0,0.0,0.0,0.0,0.0,-0.4665,-1.0382,-0.7906,-0.6398,-0.6069,-0.9548,-1.0053,-0.9518,-1.0779,-1.1116,-1.0932,-1.0716,-1.0706,-0.8921,-0.1867,0.0,0.0,0.0,0.0,0.0,0.0,0.0,0.0,0.0,0.0,0.0,0.0,0.0,0.0,0.0,0.0,0.0,0.0,0.0,0.0,0.0,0.0,0.0,0.0,0.0,0.0,0.0,0.0,0.0,0.0,0.0,0.0,0.0,0.0,0.0,0.0,0.0,0.0,0.0,0.0,0.0,0.0,0.0,0.0,0.0,0.0,0.0,0.0,0.0,0.0,0.0,0.0,0.0,0.0,-0.6858,-0.6939,-0.7007,-0.7007,-0.7082,0.0,0.0,0.0,0.0,0.0,0.0,0.0,0.0,0.0,0.0,0.0,0.0,-0.9054,-0.9484,-0.5665,-0.3026,-0.1735,-0.1812,-0.1348,-0.0,0.0,0.0,0.0,0.0,0.0,0.0,0.0,0.0,0.0,0.0,0.0,0.0,0.0,0.0,0.0,0.0,0.0,0.0,0.0,0.0,0.0,0.0,-0.4656,-1.0724,-1.0683,-0.912,-0.7748,-1.0035,-1.0909,-1.1244,-1.1219,-1.1194,-1.1268,-1.1117,-0.8923,-0.5749,-0.1227,0.0,0.0,0.0,0.0,0.0,0.0,0.0,0.0,0.0,0.0,0.0,0.0,0.0,0.0,0.0,0.0,0.0,0.0,0.0,0.0,0.0,0.0,0.0,0.0,0.0,0.0,0.0,0.0,0.0,0.0,0.0,0.0,0.0,0.0,0.0,0.0,0.0,0.0,0.0,0.0,0.0,0.0,0.0,0.0,0.0,0.0,0.0,0.0,0.0,0.0,0.0,0.0,0.0,0.0,-0.7143,-0.7143,-0.7143,0.0,0.0,0.0,0.0,0.0,0.0,0.0,0.0,0.0,0.0,0.0,0.0,0.0,0.0,0.0,-0.8914,-0.9466,-0.836,-0.5345,-0.5409,-0.3986,-0.0615,-0.0154,0.0,0.0,0.0,0.0,0.0,0.0,0.0,0.0,0.0,0.0,0.0,0.0,0.0,0.0,0.0,0.0,0.0,0.0,0.0,0.0,0.0,-0.4316,-1.0155,-1.0571,-1.0571,-1.0406,-1.0388,-1.0673,-1.088,-1.1172,-1.1354,-1.1444,-1.1185,-0.5542,0.0,0.0,0.0,0.0,0.0,0.0,0.0,0.0,0.0,0.0,0.0,0.0,0.0,0.0,0.0,0.0,0.0,0.0,0.0,0.0,0.0,0.0,0.0,0.0,0.0,0.0,0.0,0.0,0.0,0.0,0.0,0.0,0.0,0.0,0.0,0.0,0.0,0.0,0.0,0.0,0.0,0.0,0.0,0.0,0.0,0.0,0.0,0.0,0.0,0.0,0.0,0.0,0.0,0.0,0.0,0.0,0.0,0.0,0.0,0.0,0.0,0.0,0.0,0.0,0.0,0.0,0.0,0.0,0.0,0.0,0.0,0.0,0.0,0.0,-0.8911,-0.9017,-0.8928,-0.8622,-0.8647,-0.8359,-0.7746,-0.2601,0.0,0.0,0.0,0.0,0.0,0.0,0.0,0.0,0.0,0.0,0.0,0.0,0.0,0.0,0.0,0.0,0.0,0.0,0.0,0.0,0.0,-0.1223,-0.3499,-0.8923,-0.9004,-0.6761,-0.6808,-0.6844,-0.7501,-1.0608,-1.1605,-1.0304,-0.4457,-0.1439,0.0,0.0,0.0,0.0,0.0,0.0,0.0,0.0,0.0,0.0,0.0,0.0,0.0,0.0,0.0,0.0,0.0,0.0,0.0,0.0,0.0,0.0,0.0,0.0,0.0,0.0,0.0,0.0,0.0,0.0,0.0,0.0,0.0,0.0,0.0,0.0,0.0,0.0,0.0,0.0,0.0,0.0,0.0,0.0,0.0,0.0,0.0,0.0,0.0,0.0,0.0,0.0,0.0,0.0,0.0,0.0,0.0,0.0,0.0,0.0,0.0,0.0,0.0,0.0,0.0,0.0,0.0,0.0,0.0,0.0,0.0,0.0,0.0,0.0,0.0,-0.8811,-0.9004,-0.9445,-0.9565,-0.9802,-1.0022,-0.6469,-0.2988,0.0,0.0,0.0,0.0,0.0,0.0,0.0,0.0,0.0,0.0,0.0,0.0,0.0,0.0,0.0,0.0,0.0,0.0,0.0,0.0,0.0,-0.0677,-0.4633,-0.6716,-0.7133,-0.3957,-0.3092,-0.351,-0.5786,-0.6511,-0.5619,-0.1097,0.0,0.0,0.0,0.0,0.0,0.0,0.0,0.0,0.0,0.0,0.0,0.0,0.0,0.0,0.0,0.0,0.0,0.0,0.0,0.0,0.0,0.0,0.0,0.0,0.0,0.0,0.0,0.0,0.0,0.0,0.0,0.0,0.0,0.0,0.0,0.0,0.0,0.0,0.0,0.0,0.0,0.0,0.0,0.0,0.0,0.0,0.0,0.0,0.0,0.0,0.0,0.0,0.0,0.0,0.0,0.0,0.0,0.0,0.0,0.0,0.0,0.0,0.0,0.0,0.0,0.0,-0.7841,-0.7841,-0.7889,0.0,0.0,0.0,0.0,0.0,0.0,0.0,0.0,-0.8879,-0.894,-0.9313,-0.9612,-0.9808,-1.0101,-0.7243,-0.1303,-0.0407,0.0,0.0,0.0,0.0,0.0,0.0,0.0,0.0,0.0,0.0,0.0,0.0,0.0,0.0,0.0,0.0,0.0,0.0,0.0,0.0,0.0,-0.4155,-0.8225,-0.1975,0.0,0.0,0.0,0.0,0.0,0.0,0.0,0.0,0.0,0.0,0.0,0.0,0.0,0.0,0.0,0.0,0.0,0.0,0.0,0.0,0.0,0.0,0.0,0.0,0.0,0.0,0.0,0.0,0.0,0.0,0.0,0.0,0.0,0.0,0.0,0.0,0.0,0.0,0.0,0.0,0.0,0.0,0.0,0.0,0.0,0.0,0.0,0.0,0.0,0.0,0.0,0.0,0.0,0.0,0.0,0.0,0.0,0.0,0.0,0.0,0.0,0.0,0.0,0.0,0.0,0.0,0.0,0.0,0.0,0.0,0.0,0.0,0.0,-0.7997,-0.8011,0.0,0.0,0.0,0.0,0.0,0.0,0.0,0.0,0.0,-0.892,-0.9015,-0.9191,-0.949,-0.9792,-0.9355,-0.8143,-0.2676,0.0,0.0,0.0,0.0,0.0,0.0,0.0,0.0,0.0,0.0,0.0,0.0,0.0,0.0,0.0,0.0,0.0,0.0,0.0,0.0,0.0,-0.0765,-0.1568,-0.0337,0.0,0.0,0.0,0.0,0.0,0.0,0.0,0.0,0.0,0.0,0.0,0.0,0.0,0.0,0.0,0.0,0.0,0.0,0.0,0.0,0.0,0.0,0.0,0.0,0.0,0.0,0.0,0.0,0.0,0.0,0.0,0.0,0.0,0.0,0.0,0.0,0.0,0.0,0.0,0.0,0.0,0.0,0.0,0.0,0.0,0.0,0.0,0.0,0.0,0.0,0.0,0.0,0.0,0.0,0.0,0.0,0.0,0.0,0.0,0.0,0.0,0.0,0.0,0.0,0.0,0.0,0.0,0.0,0.0,0.0,-0.7991,-0.8038,-0.8038,-0.8038,-0.8038,-0.8038,-0.8038,-0.8038,0.0,0.0,0.0,0.0,0.0,0.0,-0.8581,-0.8662,-0.8852,-0.9178,-0.7749,-0.7925,-0.9822,0.0,0.0,0.0,0.0,0.0,0.0,0.0,0.0,0.0,0.0,0.0,0.0,0.0,0.0,0.0,0.0,0.0,0.0,0.0,0.0,0.0,0.0,0.0,0.0,0.0,0.0,0.0,0.0,0.0,0.0,0.0,0.0,0.0,0.0,0.0,0.0,0.0,0.0,0.0,0.0,0.0,0.0,0.0,0.0,0.0,0.0,0.0,0.0,0.0,0.0,0.0,0.0,0.0,0.0,0.0,0.0,0.0,0.0,0.0,0.0,0.0,0.0,0.0,0.0,0.0,0.0,0.0,0.0,0.0,0.0,0.0,0.0,0.0,0.0,0.0,0.0,0.0,0.0,0.0,0.0,0.0,0.0,0.0,0.0,0.0,0.0,0.0,0.0,0.0,0.0,0.0,0.0,0.0,0.0,-0.8018,-0.8038,-0.8038,-0.8038,-0.8038,-0.8038,-0.8038,-0.8038,-0.8038,0.0,0.0,0.0,0.0,0.0,0.0,0.0,-0.8377,-0.8574,-0.8769,0.0,0.0,-0.7751,-0.2472,0.0,0.0,0.0,0.0,0.0,0.0,0.0,0.0,0.0,0.0,0.0,0.0,0.0,0.0,0.0,0.0,0.0,0.0,0.0,0.0,0.0,0.0,0.0,0.0,0.0,0.0,0.0,0.0,0.0,0.0,0.0,0.0,0.0,0.0,0.0,0.0,0.0,0.0,0.0,0.0,0.0,0.0,0.0,0.0,0.0,0.0,0.0,0.0,0.0,0.0,0.0,0.0,0.0,0.0,0.0,0.0,0.0,0.0,0.0,0.0,0.0,0.0,0.0,0.0,0.0,0.0,0.0,0.0,0.0,0.0,0.0,0.0,0.0,0.0,0.0,0.0,0.0,0.0,0.0,0.0,0.0,0.0,0.0,0.0,0.0,0.0,0.0,0.0,0.0,0.0,0.0,0.0,0.0,-0.8018,-0.8038,-0.8038,-0.8038,-0.8038,-0.8038,-0.8038,-0.8038,-0.8038,0.0,0.0,0.0,0.0,0.0,0.0,0.0,0.0,0.0,0.0,0.0,0.0,-0.0903,-0.0343,0.0,0.0,0.0,0.0,0.0,0.0,0.0,0.0,0.0,0.0,0.0,0.0,0.0,0.0,0.0,0.0,0.0,0.0,0.0,0.0,0.0,0.0,0.0,0.0,0.0,0.0,0.0,0.0,0.0,0.0,0.0,0.0,0.0,0.0,0.0,0.0,0.0,0.0,0.0,0.0,0.0,0.0,0.0,0.0,0.0,0.0,0.0,0.0,0.0,0.0,0.0,0.0,0.0,0.0,0.0,0.0,0.0,0.0,0.0,0.0,0.0,0.0,0.0,0.0,0.0,0.0,0.0,0.0,0.0,0.0,0.0,0.0,0.0,0.0,0.0,0.0,0.0,0.0,0.0,0.0,0.0,0.0,0.0,0.0,0.0,0.0,0.0,0.0,0.0,0.0,0.0,0.0,0.0,-0.8031,-0.8038,-0.8038,-0.8038,-0.8038,-0.8038,-0.8038,-0.8038,-0.8038,-0.8038,0.0,0.0,0.0,0.0,0.0,0.0,0.0,0.0,0.0,0.0,-0.2815,0.0,0.0,0.0,0.0,0.0,0.0,0.0,0.0,0.0,0.0,0.0,0.0,0.0,0.0,0.0,0.0,0.0,0.0,0.0,0.0,0.0,0.0,0.0,0.0,0.0,0.0,0.0,0.0,0.0,0.0,0.0,0.0,0.0,0.0,0.0,0.0,0.0,0.0,0.0,0.0,0.0,0.0,0.0,0.0,0.0,0.0,0.0,0.0,0.0,0.0,0.0,0.0,0.0,0.0,0.0,0.0,0.0,0.0,0.0,0.0,0.0,0.0,0.0,0.0,0.0,0.0,0.0,0.0,0.0,0.0,0.0,0.0,0.0,0.0,0.0,0.0,0.0,0.0,0.0,0.0,0.0,0.0,0.0,0.0,0.0,0.0,0.0,0.0,0.0,0.0,0.0,0.0,0.0,0.0,-0.8038,-0.8038,-0.8038,-0.8038,-0.8038,-0.8038,-0.8038,-0.8038,-0.8038,-0.8038,-0.8038,-0.8038,0.0,0.0,0.0,0.0,0.0,0.0,0.0,0.0,0.0,-0.2679,0.0,0.0,0.0,0.0,0.0,0.0,0.0,0.0,0.0,0.0,0.0,0.0,0.0,0.0,0.0,0.0,0.0,0.0,0.0,0.0,0.0,0.0,0.0,0.0,0.0,0.0,0.0,0.0,0.0,0.0,0.0,0.0,0.0,0.0,0.0,0.0,0.0,0.0,0.0,0.0,0.0,0.0,0.0,0.0,0.0,0.0,0.0,0.0,0.0,0.0,0.0,0.0,0.0,0.0,0.0,0.0,0.0,0.0,0.0,0.0,0.0,0.0,0.0,0.0,0.0,0.0,0.0,0.0,0.0,0.0,0.0,0.0,0.0,0.0,0.0,0.0,0.0,0.0,0.0,0.0,0.0,0.0,0.0,0.0,0.0,0.0,0.0,0.0,0.0,0.0,0.0,0.0,0.0,0.0,0.0,-0.8038,-0.8038,-0.8038,-0.8038,-0.8038,-0.8038,-0.8038,-0.8038,-0.8038,-0.8038,-0.8038,0.0,0.0,0.0,0.0,0.0,0.0,0.0,0.0,0.0,-0.2679,0.0,0.0,0.0,0.0,0.0,0.0,0.0,0.0,0.0,0.0,0.0,0.0,0.0,0.0,0.0,0.0,0.0,0.0,0.0,0.0,0.0,0.0,0.0,0.0,0.0,0.0,0.0,0.0,0.0,0.0,0.0,0.0,0.0,0.0,0.0,0.0,0.0,0.0,0.0,0.0,0.0,0.0,0.0,0.0,0.0,0.0,0.0,0.0,0.0,0.0,0.0,0.0,0.0,0.0,0.0,0.0,0.0,0.0,0.0,0.0,0.0,0.0,0.0,0.0,0.0,0.0,0.0,0.0,0.0,0.0,0.0,0.0,0.0,0.0,0.0,0.0,0.0,0.0,0.0,0.0,0.0,0.0,0.0,0.0,0.0,0.0,0.0,0.0,0.0,0.0,0.0,0.0,0.0,0.0,0.0,-0.8038,-0.8038,-0.8038,-0.8038,-0.8038,-0.8038,-0.8038,-0.8038,-0.8038,-0.8038,-0.8038,0.0,0.0,0.0,0.0,0.0,0.0,0.0,0.0,-0.537,-0.2679,0.0,0.0,0.0,0.0,0.0,0.0,0.0,0.0,0.0,0.0,0.0,0.0,0.0,0.0,0.0,0.0,0.0,0.0,0.0,0.0,0.0,0.0,0.0,0.0,0.0,0.0,0.0,0.0,0.0,0.0,0.0,0.0,0.0,0.0,0.0,0.0,0.0,0.0,0.0,0.0,0.0,0.0,0.0,0.0,0.0,0.0,0.0,0.0,0.0,0.0,0.0,0.0,0.0,0.0,0.0,0.0,0.0,0.0,0.0,0.0,0.0,0.0,0.0,0.0,0.0,0.0,0.0,0.0,0.0,0.0,0.0,0.0,0.0,0.0,0.0,0.0,0.0,0.0,0.0,0.0,0.0,0.0,0.0,0.0,0.0,0.0,0.0,0.0,0.0,0.0,0.0,0.0,0.0,0.0,0.0,-0.8038,-0.8038,-0.8038,-0.8038,-0.8038,-0.8038,-0.8038,-0.8038,-0.8038,-0.8038,-0.8038,0.0,0.0,0.0,0.0,0.0,0.0,0.0,-0.7975,-0.5422,-0.2704,0.0,0.0,0.0,0.0,0.0,0.0,0.0,0.0,0.0,0.0,0.0,0.0,0.0,0.0,0.0,0.0,0.0,0.0,0.0,0.0,0.0,0.0,0.0,0.0,0.0,0.0,0.0,0.0,0.0,0.0,0.0,0.0,0.0,0.0,0.0,0.0,0.0,0.0,0.0,0.0,0.0,0.0,0.0,0.0,0.0,0.0,0.0,0.0,0.0,0.0,0.0,0.0,0.0,0.0,0.0,0.0,0.0,0.0,0.0,0.0,0.0,0.0,0.0,0.0,0.0,0.0,0.0,0.0,0.0,0.0,0.0,0.0,0.0,0.0,0.0,0.0,0.0,0.0,0.0,0.0,0.0,0.0,0.0,0.0,0.0,0.0,0.0,0.0,0.0,0.0,0.0,0.0,0.0,0.0,0.0,0.0,-0.8038,-0.8038,-0.8038,-0.8038,-0.8038,-0.8038,-0.8038,-0.8038,-0.8038,-0.8038,0.0,0.0,0.0,0.0,0.0,0.0,0.0,-0.8005,-0.5409,-0.2643,0.0,0.0,0.0,0.0,0.0,0.0,0.0,0.0,0.0,0.0,0.0,0.0,0.0,0.0,0.0,0.0,0.0,0.0,0.0,0.0,0.0,0.0,0.0,0.0,0.0,0.0,0.0,0.0,0.0,0.0,0.0,0.0,0.0,0.0,0.0,0.0,0.0,0.0,0.0,0.0,0.0,0.0,0.0,0.0,0.0,0.0,0.0,0.0,0.0,0.0,0.0,0.0,0.0,0.0,0.0,0.0,0.0,0.0,0.0,0.0,0.0,0.0,0.0,0.0,0.0,0.0,0.0,0.0,0.0,0.0,0.0,0.0,0.0,0.0,0.0,0.0,0.0,0.0,0.0,0.0,0.0,0.0,0.0,0.0,0.0,0.0,0.0,0.0,0.0,0.0,0.0,0.0,0.0,0.0,0.0,0.0,0.0,0.0,0.0,-0.8038,-0.8038,-0.8038,-0.8038,-0.8038,0.0,0.0,0.0,0.0,0.0,0.0,0.0,0.0,0.0,-0.8329,-0.5477,-0.269,0.0,0.0,0.0,0.0,0.0,0.0,0.0,0.0,0.0,0.0,0.0,0.0,0.0,0.0,0.0,0.0,0.0,0.0,0.0,0.0,0.0,0.0,0.0,0.0,0.0,0.0,0.0,0.0,0.0,0.0,0.0,0.0,0.0,0.0,0.0,0.0,0.0,0.0,0.0,0.0,0.0,0.0,0.0,0.0,0.0,0.0,0.0,0.0,0.0,0.0,0.0,0.0,0.0,0.0,0.0,0.0,0.0,0.0,0.0,0.0,0.0,0.0,0.0,0.0,0.0,0.0,0.0,0.0,0.0,0.0,0.0,0.0,0.0,0.0,0.0,0.0,0.0,0.0,0.0,0.0,0.0,0.0,0.0,0.0,0.0,0.0,0.0,0.0,0.0,0.0,0.0,0.0,0.0,0.0,0.0,0.0,0.0,0.0,0.0,-0.8038,-0.8038,-0.8038,-0.8038,-0.8038,0.0,0.0,0.0,0.0,0.0,0.0,0.0,0.0,-0.8381,-0.8534,-0.5695,-0.2849,0.0,0.0,0.0,0.0,0.0,0.0,0.0,0.0,0.0,0.0,0.0,0.0,0.0,0.0,0.0,0.0,0.0,0.0,0.0,0.0,0.0,0.0,0.0,0.0,0.0,0.0,0.0,0.0,0.0,0.0,0.0,0.0,0.0,0.0,0.0,0.0,0.0,0.0,0.0,0.0,0.0,0.0,0.0,0.0,0.0,0.0,0.0,0.0,0.0,0.0,0.0,0.0,0.0,0.0,0.0,0.0,0.0,0.0,0.0,0.0,0.0,0.0,0.0,0.0,0.0,0.0,0.0,0.0,0.0,0.0,0.0,0.0,0.0,0.0,0.0,0.0,0.0,0.0,0.0,0.0,0.0,0.0,0.0,0.0,0.0,0.0,0.0,0.0,0.0,0.0,0.0,0.0,0.0,0.0,0.0,0.0,0.0,0.0,0.0,0.0,0.0,0.0,0.0,0.0,0.0,0.0,0.0,0.0,0.0,0.0,0.0,-0.8418,-0.8535,-0.8542,-0.5925,-0.3014,0.0,0.0,0.0,0.0,0.0,0.0,0.0,0.0,0.0,0.0,0.0,0.0,0.0,0.0,0.0,0.0,0.0,0.0,0.0,0.0,0.0,0.0,0.0,0.0,0.0,0.0,0.0,0.0,0.0,0.0,0.0,0.0,0.0,0.0,0.0,0.0,0.0,0.0,0.0,0.0,0.0,0.0,0.0,0.0,0.0,0.0,0.0,0.0,0.0,0.0,0.0,0.0,0.0,0.0,0.0,0.0,0.0,0.0,0.0,0.0,0.0,0.0,0.0,0.0,0.0,0.0,0.0,0.0,0.0,0.0,0.0,0.0,0.0,0.0,0.0,0.0,0.0,0.0,0.0,0.0,0.0,0.0,0.0,0.0,0.0,0.0,0.0,0.0,0.0,0.0,0.0,0.0,0.0,0.0,0.0,0.0,0.0,0.0,0.0,0.0,0.0,0.0,0.0,0.0,0.0,0.0,0.0,0.0,0.0,0.0,-0.8438,-0.8472,-0.8535,-0.8542,-0.5877,-0.3065,0.0,0.0,0.0,0.0,0.0,0.0,0.0,0.0,0.0,0.0,0.0,0.0,0.0,0.0,0.0,0.0,0.0,0.0,0.0,0.0,0.0,0.0,0.0,0.0,0.0,0.0,0.0,0.0,0.0,0.0,0.0,0.0,0.0,0.0,0.0,0.0,0.0,0.0,0.0,0.0,0.0,0.0,0.0,0.0,0.0,0.0,0.0,0.0,0.0,0.0,0.0,0.0,0.0,0.0,0.0,0.0,0.0,0.0,0.0,0.0,0.0,0.0,0.0,0.0,0.0,0.0,0.0,0.0,0.0,0.0,0.0,0.0,0.0,0.0,0.0,0.0,0.0,0.0,0.0,0.0,0.0,0.0,0.0,0.0,0.0,0.0,0.0,0.0,0.0,0.0,0.0,0.0,0.0,0.0,0.0,0.0,0.0,0.0,0.0,0.0,0.0,0.0,0.0,0.0,0.0,0.0,0.0,0.0,0.0,-0.8174,-0.8472,-0.8479,-0.8608,-0.8768,-0.5946,-0.2971,0.0,0.0,0.0,0.0,0.0,0.0,0.0,0.0,0.0,0.0,0.0,0.0,0.0,0.0,0.0,0.0,0.0,0.0,0.0,0.0,0.0,0.0,0.0,0.0,0.0,0.0,0.0,0.0,0.0,0.0,0.0,0.0,0.0,0.0,0.0,0.0,0.0,0.0,0.0,0.0,0.0,0.0,0.0,0.0,0.0,0.0,0.0,0.0,0.0,0.0,0.0,0.0,0.0,0.0,0.0,0.0,0.0,0.0,0.0,0.0,0.0,0.0,0.0,0.0,0.0,0.0,0.0,0.0,0.0,0.0,0.0,0.0,0.0,0.0,0.0,0.0,0.0,0.0,0.0,0.0,0.0,0.0,0.0,0.0,0.0,0.0,0.0,0.0,0.0,0.0,0.0,0.0,0.0,0.0,0.0,0.0,0.0,0.0,0.0,0.0,0.0,0.0,0.0,0.0,0.0,0.0,0.0,0.0,-0.8038,-0.8174,-0.8472,-0.8486,-0.8567,-0.8838,-0.599,-0.2981,0.0,0.0,0.0,0.0,0.0,0.0,0.0,0.0,0.0,0.0,0.0,0.0,0.0,0.0,0.0,0.0,0.0,0.0,0.0,0.0,0.0,0.0,0.0,0.0,0.0,0.0,0.0,0.0,0.0,0.0,0.0,0.0,0.0,0.0,0.0,0.0,0.0,0.0,0.0,0.0,0.0,0.0,0.0,0.0,0.0,0.0,0.0,0.0,0.0,0.0,0.0,0.0,0.0,0.0,0.0,0.0,0.0,0.0,0.0,0.0,0.0,0.0,0.0,0.0,0.0,0.0,0.0,0.0,0.0,0.0,0.0,0.0,0.0,0.0,0.0,0.0,0.0,0.0,0.0,0.0,0.0,0.0,0.0,0.0,0.0,0.0,0.0,0.0,0.0,0.0,0.0,0.0,0.0,0.0,0.0,0.0,0.0,0.0,0.0,0.0,0.0,0.0,0.0,0.0,0.0,0.0,0.0,0.0,-0.8038,-0.8174,-0.8472,-0.8394,-0.8471,-0.8838,-0.599,-0.2981,0.0,0.0,0.0,0.0,0.0,0.0,0.0,0.0,0.0,0.0,0.0,0.0,0.0,0.0,0.0,0.0,0.0,0.0,0.0,0.0,0.0,0.0,0.0,0.0,0.0,0.0,0.0,0.0,0.0,0.0,0.0,0.0,0.0,0.0,0.0,0.0,0.0,0.0,0.0,0.0,0.0,0.0,0.0,0.0,0.0,0.0,0.0,0.0,0.0,0.0,0.0,0.0,0.0,0.0,0.0,0.0,0.0,0.0,0.0,0.0,0.0,0.0,0.0,0.0,0.0,0.0,0.0,0.0,0.0,0.0,0.0,0.0,0.0,0.0,0.0,0.0,0.0,0.0,0.0,0.0,0.0,0.0,0.0,0.0,0.0,0.0,0.0,0.0,0.0,0.0,0.0,0.0,0.0,0.0,0.0,0.0,0.0,0.0,0.0,0.0,0.0,0.0,0.0,0.0,0.0,0.0,0.0,0.0,-0.8038,-0.8174,-0.8472,-0.8394,-0.7648,-0.624,-0.691,-0.4878,0.0,0.0,0.0,0.0,0.0,0.0,0.0,0.0,0.0,0.0,0.0,0.0,0.0,0.0,0.0,0.0,0.0,0.0,0.0,0.0,0.0,0.0,0.0,0.0,0.0,0.0,0.0,0.0,0.0,0.0,0.0,0.0,0.0,0.0,0.0,0.0,0.0,0.0,0.0,0.0,0.0,0.0,0.0,0.0,0.0,0.0,0.0,0.0,0.0,0.0,0.0,0.0,0.0,0.0,0.0,0.0,0.0,0.0,0.0,0.0,0.0,0.0,0.0,0.0,0.0,0.0,0.0,0.0,0.0,0.0,0.0,0.0,0.0,0.0,0.0,0.0,0.0,0.0,0.0,0.0,0.0,0.0,0.0,0.0,0.0,0.0,0.0,0.0,0.0,0.0,0.0,0.0,0.0,0.0,0.0,0.0,0.0,0.0,0.0,0.0,0.0,0.0,0.0,0.0,0.0,0.0,0.0,-0.8038,-0.8038,-0.8174,-0.8472,-0.8401,-0.7175,-0.4538,-0.7359,-0.5949,0.0,0.0,0.0,0.0,0.0,0.0,0.0,0.0,0.0,0.0,0.0,0.0,0.0,0.0,0.0,0.0,0.0,0.0,0.0,0.0,0.0,0.0,0.0,0.0,0.0,0.0,0.0,0.0,0.0,0.0,0.0,0.0,0.0,0.0,0.0,0.0,0.0,0.0,0.0,0.0,0.0,0.0,0.0,0.0,0.0,0.0,0.0,0.0,0.0,0.0,0.0,0.0,0.0,0.0,0.0,0.0,0.0,0.0,0.0,0.0,0.0,0.0,0.0,0.0,0.0,0.0,0.0,0.0,0.0,0.0,0.0,0.0,0.0,0.0,0.0,0.0,0.0,0.0,0.0,0.0,0.0,0.0,0.0,0.0,0.0,0.0,0.0,0.0,0.0,0.0,0.0,0.0,0.0,0.0,0.0,0.0,0.0,0.0,0.0,0.0,0.0,0.0,0.0,0.0,0.0,0.0,0.0,-0.8038,-0.8038,-0.8174,-0.8465,-0.8526,-0.726,-0.4578,-0.7332,-0.5962,0.0,0.0,0.0,0.0,0.0,0.0,0.0,0.0,0.0,0.0,0.0,0.0,0.0,0.0,0.0,0.0,0.0,0.0,0.0,0.0,0.0,0.0,0.0,0.0,0.0,0.0,0.0,0.0,0.0,0.0,0.0,0.0,0.0,0.0,0.0,0.0,0.0,0.0,0.0,0.0,0.0,0.0,0.0,0.0,0.0,0.0,0.0,0.0,0.0,0.0,0.0,0.0,0.0,0.0,0.0,0.0,0.0,0.0,0.0,0.0,0.0,0.0,0.0,0.0,0.0,0.0,0.0,0.0,0.0,0.0,0.0,0.0,0.0,0.0,0.0,0.0,0.0,0.0,0.0,0.0,0.0,0.0,0.0,0.0,0.0,0.0,0.0,0.0,0.0,0.0,0.0,0.0,0.0,0.0,0.0,0.0,0.0,0.0,0.0,0.0,0.0,0.0,0.0,0.0,0.0,0.0,0.0,-0.8038,-0.8038,-0.8133,-0.8336,-0.8479,-0.8214,-0.7627,-0.4383,-0.1792,0.0,0.0,0.0,0.0,0.0,0.0,0.0,0.0,0.0,0.0,0.0,0.0,0.0,0.0,0.0,0.0,0.0,0.0,0.0,0.0,0.0,0.0,0.0,0.0,0.0,0.0,0.0,0.0,0.0,0.0,0.0,0.0,0.0,0.0,0.0,0.0,0.0,0.0,0.0,0.0,0.0,0.0,0.0,0.0,0.0,0.0,0.0,0.0,0.0,0.0,0.0,0.0,0.0,0.0,0.0,0.0,0.0,0.0,0.0,0.0,0.0,0.0,0.0,0.0,0.0,0.0,0.0,0.0,0.0,0.0,0.0,0.0,0.0,0.0,0.0,0.0,0.0,0.0,0.0,0.0,0.0,0.0,0.0,0.0,0.0,0.0,0.0,0.0,0.0,0.0,0.0,0.0,0.0,0.0,0.0,0.0,0.0,0.0,0.0,-0.8038,-0.8038,0.0,0.0,0.0,0.0,0.0,0.0,-0.8038,-0.8038,-0.8113,-0.8282,-0.7327,-0.6313,-0.5422,-0.1832,0.0,0.0,0.0,0.0,0.0,0.0,0.0,0.0,0.0,0.0,0.0,0.0,0.0,0.0,0.0,0.0,0.0,0.0,0.0,0.0,0.0,0.0,0.0,0.0,0.0,0.0,0.0,0.0,0.0,0.0,0.0,0.0,0.0,0.0,0.0,0.0,0.0,0.0,0.0,0.0,0.0,0.0,0.0,0.0,0.0,0.0,0.0,0.0,0.0,0.0,0.0,0.0,0.0,0.0,0.0,0.0,0.0,0.0,0.0,0.0,0.0,0.0,0.0,0.0,0.0,0.0,0.0,0.0,0.0,0.0,0.0,0.0,0.0,0.0,0.0,0.0,0.0,0.0,0.0,0.0,0.0,0.0,0.0,0.0,0.0,0.0,0.0,0.0,0.0,0.0,0.0,0.0,0.0,0.0,0.0,0.0,0.0,0.0,0.0,-0.8038,-0.8038,-0.8038,0.0,0.0,0.0,-0.8038,-0.8038,-0.8038,-0.8038,-0.8038,-0.8113,-0.8262,-0.5265,-0.2541,-0.0,0.0,0.0,0.0,0.0,0.0,0.0,0.0,0.0,0.0,0.0,0.0,0.0,0.0,0.0,0.0,0.0,0.0,0.0,0.0,0.0,0.0,0.0,0.0,0.0,0.0,0.0,0.0,0.0,0.0,0.0,0.0,0.0,0.0,0.0,0.0,0.0,0.0,0.0,0.0,0.0,0.0,0.0,0.0,0.0,0.0,0.0,0.0,0.0,0.0,0.0,0.0,0.0,0.0,0.0,0.0,0.0,0.0,0.0,0.0,0.0,0.0,0.0,0.0,0.0,0.0,0.0,0.0,0.0,0.0,0.0,0.0,0.0,0.0,0.0,0.0,0.0,0.0,0.0,0.0,0.0,0.0,0.0,0.0,0.0,0.0,0.0,0.0,0.0,0.0,0.0,0.0,0.0,0.0,0.0,0.0,0.0,0.0,0.0,0.0,-0.8038,-0.8038,-0.8038,-0.8038,-0.8038,-0.7952,0.0,-0.8038,-0.7959,-0.7959,-0.8038,-0.7959,-0.7985,-0.8032,-0.3392,-0.0634,-0.0,0.0,0.0,0.0,0.0,0.0,0.0,0.0,0.0,0.0,0.0,0.0,0.0,0.0,0.0,0.0,0.0,0.0,0.0,0.0,0.0,0.0,0.0,0.0,0.0,0.0,0.0,0.0,0.0,0.0,0.0,0.0,0.0,0.0,0.0,0.0,0.0,0.0,0.0,0.0,0.0,0.0,0.0,0.0,0.0,0.0,0.0,0.0,0.0,0.0,0.0,0.0,0.0,0.0,0.0,0.0,0.0,0.0,0.0,0.0,0.0,0.0,0.0,0.0,0.0,0.0,0.0,0.0,0.0,0.0,0.0,0.0,0.0,0.0,0.0,0.0,0.0,0.0,0.0,0.0,0.0,0.0,0.0,0.0,0.0,0.0,0.0,0.0,0.0,0.0,0.0,0.0,0.0,0.0,0.0,0.0,0.0,0.0,0.0,0.0,-0.7952,-0.8038,-0.8052,-0.7952,-0.8038,-0.7959,0.0,0.0,-0.7972,-0.7979,-0.7965,-0.7972,-0.7992,-0.8006,-0.2876,0.0,0.0,0.0,0.0,0.0,0.0,0.0,0.0,0.0,0.0,0.0,0.0,0.0,0.0,0.0,0.0,0.0,0.0,0.0,0.0,0.0,0.0,0.0,0.0,0.0,0.0,0.0,0.0,0.0,0.0,0.0,0.0,0.0,0.0,0.0,0.0,0.0,0.0,0.0,0.0,0.0,0.0,0.0,0.0,0.0,0.0,0.0,0.0,0.0,0.0,0.0,0.0,0.0,0.0,0.0,0.0,0.0,0.0,0.0,0.0,0.0,0.0,0.0,0.0,0.0,0.0,0.0,0.0,0.0,0.0,0.0,0.0,0.0,0.0,0.0,0.0,0.0,0.0,0.0,0.0,0.0,0.0,0.0,0.0,0.0,0.0,0.0,0.0,0.0,0.0,0.0,0.0,0.0,0.0,0.0,0.0,0.0,0.0,0.0,0.0,0.0,0.0,-0.8038,-0.7959,-0.7965,-0.8045,-0.7965,-0.7772,0.0,0.0,0.0,-0.7272,-0.7785,-0.7591,-0.6687,-0.2357,0.0,0.0,0.0,0.0,0.0,0.0,0.0,0.0,0.0,0.0,0.0,0.0,0.0,0.0,0.0,0.0,0.0,0.0,0.0,0.0,0.0,0.0,0.0,0.0,0.0,0.0,0.0,0.0,0.0,0.0,0.0,0.0,0.0,0.0,0.0,0.0,0.0,0.0,0.0,0.0,0.0,0.0,0.0,0.0,0.0,0.0,0.0,0.0,0.0,0.0,0.0,0.0,0.0,0.0,0.0,0.0,0.0,0.0,0.0,0.0,0.0,0.0,0.0,0.0,0.0,0.0,0.0,0.0,0.0,0.0,0.0,0.0,0.0,0.0,0.0,0.0,0.0,0.0,0.0,0.0,0.0,0.0,0.0,0.0,0.0,0.0,0.0,0.0,0.0,0.0,0.0,0.0,0.0,0.0,0.0,0.0,0.0,0.0,0.0,0.0,0.0,0.0,0.0,-0.7959,-0.7972,-0.7972,-0.7999,-0.7083,-0.4722,-0.4529,-0.4533,-0.4522,0.0,0.0,-0.1313,-0.0405,0.0,0.0,0.0,0.0,0.0,0.0,0.0,0.0,0.0,0.0,0.0,0.0,0.0,0.0,0.0,0.0,0.0,0.0,0.0,0.0,0.0,0.0,0.0,0.0,0.0,0.0,0.0,0.0,0.0,0.0,0.0,0.0,0.0,0.0,0.0,0.0,0.0,0.0,0.0,0.0,0.0,0.0,0.0,0.0,0.0,0.0,0.0,0.0,0.0,0.0,0.0,0.0,0.0,0.0,0.0,0.0,0.0,0.0,0.0,0.0,0.0,0.0,0.0,0.0,0.0,0.0,0.0,0.0,0.0,0.0,0.0,0.0,0.0,0.0,0.0,0.0,0.0,0.0,0.0,0.0,0.0,0.0,0.0,0.0,0.0,0.0,0.0,0.0,0.0,0.0,0.0,0.0,0.0,0.0,0.0,0.0,0.0,0.0,0.0,0.0,0.0,0.0,0.0,0.0,-0.7378,-0.5937,-0.7083,-0.7503,-0.6364,-0.3528,-0.1713,-0.1712,-0.2823,-0.2423,-0.0101,0.0,0.0,0.0,0.0,0.0,0.0,0.0,0.0,0.0,0.0,0.0,0.0,0.0,0.0,0.0,0.0,0.0,0.0,0.0,0.0,0.0,0.0,0.0,0.0,0.0,0.0,0.0,0.0,0.0,0.0,0.0,0.0,0.0,0.0,0.0,0.0,0.0,0.0,0.0,0.0,0.0,0.0,0.0,0.0,0.0,0.0,0.0,0.0,0.0,0.0,0.0,0.0,0.0,0.0,0.0,0.0,0.0,0.0,0.0,0.0,0.0,0.0,0.0,0.0,0.0,0.0,0.0,0.0,0.0,0.0,0.0,0.0,0.0,0.0,0.0,0.0,0.0,0.0,0.0,0.0,0.0,0.0,0.0,0.0,0.0,0.0,0.0,0.0,0.0,0.0,0.0,0.0,0.0,0.0,0.0,0.0,0.0,0.0,0.0,0.0,0.0,0.0,0.0,0.0,0.0,-0.7196,-0.5236,0.0,0.0,0.0,-0.2322,0.0,0.0,0.0,0.0,0.0,0.0,0.0,0.0,0.0,0.0,0.0,0.0,0.0,0.0,0.0,0.0,0.0,0.0,0.0,0.0,0.0,0.0,0.0,0.0,0.0,0.0,0.0,0.0,0.0,0.0,0.0,0.0,0.0,0.0,0.0,0.0,0.0,0.0,0.0,0.0,0.0,0.0,0.0,0.0,0.0,0.0,0.0,0.0,0.0,0.0,0.0,0.0,0.0,0.0,0.0,0.0,0.0,0.0,0.0,0.0,0.0,0.0,0.0,0.0,0.0,0.0,0.0,0.0,0.0,0.0,0.0,0.0,0.0,0.0,0.0,0.0,0.0,0.0,0.0,0.0,0.0,0.0,0.0,0.0,0.0,0.0,0.0,0.0,0.0,0.0,0.0,0.0,0.0,0.0,0.0,0.0,0.0,0.0,0.0,0.0,0.0,0.0,0.0,0.0,0.0,0.0,0.0,0.0,0.0,0.0,-0.7925,-0.7818,-0.3332,-0.0404,-0.0404,-0.0202,0.0,0.0,0.0,0.0,0.0,0.0,0.0,0.0,0.0,0.0,0.0,0.0,0.0,0.0,0.0,0.0,0.0,0.0,0.0,0.0,0.0,0.0,0.0,0.0,0.0,0.0,0.0,0.0,0.0,0.0,0.0,0.0,0.0,0.0,0.0,0.0,0.0,0.0,0.0,0.0,0.0,0.0,0.0,0.0,0.0,0.0,0.0,0.0,0.0,0.0,0.0,0.0,0.0,0.0,0.0,0.0,0.0,0.0,0.0,0.0,0.0,0.0,0.0,0.0,0.0,0.0,0.0,0.0,0.0,0.0,0.0,0.0,0.0,0.0,0.0,0.0,0.0,0.0,0.0,0.0,0.0,0.0,0.0,0.0,0.0,0.0,0.0,0.0,0.0,0.0,0.0,0.0,0.0,0.0,0.0,0.0,0.0,0.0,0.0,0.0,0.0,0.0,0.0,0.0,0.0,0.0,0.0,0.0,0.0,0.0,0.0,0.0,-0.1111,0.0,0.0,0.0,0.0,0.0,0.0,0.0,0.0,0.0,0.0,0.0,0.0,0.0,0.0,0.0,0.0,0.0,0.0,0.0,0.0,0.0,0.0,0.0,0.0,0.0,0.0,0.0,0.0,0.0,0.0,0.0,0.0,0.0,0.0,0.0,0.0,0.0,0.0,0.0,0.0,0.0,0.0,0.0,0.0,0.0,0.0,0.0,0.0,0.0,0.0,0.0,0.0,0.0,0.0,0.0,0.0,0.0,0.0,0.0,0.0,0.0,0.0,0.0,0.0,0.0,0.0,0.0,0.0,0.0,0.0,0.0,0.0,0.0,0.0,0.0,0.0,0.0,0.0,0.0,0.0,0.0,0.0,0.0,0.0,0.0,0.0,0.0,0.0,0.0,0.0,0.0,0.0,0.0,0.0,0.0,0.0,0.0,0.0,0.0,0.0,0.0,0.0,0.0,0.0,0.0,0.0,0.0,0.0,0.0,0.0,0.0,0.0,0.0,0.0,0.0,0.0,0.0,0.0,0.0,0.0,0.0,0.0,0.0,0.0,0.0,0.0,0.0,0.0,0.0,0.0,0.0,0.0,0.0,0.0,0.0,0.0,0.0,0.0,0.0,0.0,0.0,0.0,0.0,0.0,0.0,0.0,0.0,0.0,0.0,0.0,0.0,0.0,0.0,0.0,0.0,0.0,0.0,0.0,0.0,0.0,0.0,0.0,0.0,0.0,0.0,0.0,0.0,0.0,0.0,0.0,0.0,0.0,0.0,0.0,0.0,0.0,0.0,0.0,0.0,0.0,0.0,0.0,0.0,0.0,0.0,0.0,0.0,0.0,0.0,0.0,0.0,0.0,0.0,0.0,0.0,0.0,0.0,0.0,0.0,0.0,0.0,0.0,0.0,0.0,0.0,0.0,0.0,0.0,0.0,0.0,0.0,0.0,0.0,0.0,0.0,0.0,0.0,0.0,0.0,0.0,0.0,0.0,0.0,0.0,0.0,0.0,0.0,0.0,0.0,0.0,0.0,0.0,0.0,0.0,0.0,0.0,0.0,0.0,0.0,0.0,0.0,0.0,0.0,0.0,0.0,0.0,0.0,0.0,0.0,0.0,0.0,0.0,0.0,0.0,0.0,0.0,0.0,0.0,0.0,0.0,0.0,0.0,0.0,0.0,0.0,0.0,0.0,0.0,0.0,0.0,0.0,0.0,0.0,0.0,0.0,0.0,0.0,0.0,0.0,0.0,0.0,0.0,0.0,0.0,0.0,0.0,0.0,0.0,0.0,0.0,0.0,0.0,0.0,0.0,0.0,0.0,0.0,0.0,0.0,0.0,0.0,0.0,0.0,0.0,0.0,0.0,0.0,0.0,0.0,0.0,0.0,0.0,0.0,0.0,0.0,0.0,0.0,0.0,0.0,0.0,0.0,0.0,0.0,0.0,0.0,0.0,0.0,0.0,0.0,0.0,0.0,0.0,0.0,0.0,0.0,0.0,0.0,0.0,0.0,0.0,0.0,0.0,0.0,0.0,0.0,0.0,0.0,0.0,0.0,0.0,0.0,0.0,0.0,0.0,0.0,0.0,0.0,0.0,0.0,0.0,0.0,0.0,0.0,0.0,0.0,0.0,0.0,0.0,0.0,0.0,0.0,0.0,0.0,0.0,0.0,0.0,0.0,0.0,0.0,0.0,0.0,0.0,0.0,0.0,0.0,0.0,0.0,0.0,0.0,0.0,0.0,0.0,0.0,0.0,0.0,0.0,0.0,0.0,0.0,0.0,0.0,0.0,0.0,0.0,0.0,0.0,0.0,0.0,0.0,0.0,0.0,0.0,0.0,0.0,0.0,0.0,0.0,0.0,0.0,0.0,0.0,0.0,0.0,0.0,0.0,0.0,0.0,0.0,0.0,0.0,0.0,0.0,0.0,0.0,0.0,0.0,0.0,0.0,0.0,0.0,0.0,0.0,0.0,0.0,0.0,0.0,0.0,0.0,0.0,0.0,0.0,0.0,0.0,0.0,0.0,0.0,0.0,0.0,0.0,0.0,0.0,0.0,0.0,0.0,0.0,0.0,0.0,0.0,0.0,0.0,0.0,0.0,0.0,0.0,0.0,0.0,0.0,0.0,0.0,0.0,0.0,0.0,0.0,0.0,0.0,0.0,0.0,0.0,0.0,0.0,0.0,0.0,0.0,0.0,0.0,0.0,0.0,0.0,0.0,0.0,0.0,0.0,0.0,0.0,0.0,0.0,0.0,0.0,0.0,0.0,0.0,0.0,0.0,0.0,0.0,0.0,0.0,0.0,0.0,0.0,0.0,0.0,0.0,0.0,0.0,0.0,0.0,0.0,0.0,0.0,0.0,0.0,0.0,0.0,0.0,0.0,0.0,0.0,0.0,0.0,0.0,0.0,0.0,0.0,0.0,0.0,0.0,0.0,0.0,0.0,0.0,0.0,0.0,0.0,0.0,0.0,0.0,0.0,0.0,0.0,0.0,0.0,0.0,0.0,0.0,0.0,0.0,0.0,0.0,0.0,0.0,0.0,0.0,0.0,0.0,0.0,0.0,0.0,0.0,0.0,0.0,0.0,0.0,0.0,0.0,0.0,0.0,0.0,0.0,0.0,0.0,0.0,0.0,0.0,0.0,0.0,0.0,0.0,0.0,0.0,0.0,0.0,0.0,0.0,0.0,0.0,0.0,0.0,0.0,0.0,0.0,0.0,0.0,0.0,0.0,0.0,0.0,0.0,0.0,0.0,0.0,0.0,0.0,0.0,0.0,0.0,0.0,0.0,0.0,0.0,0.0,0.0,0.0,0.0,0.0,0.0,0.0,0.0,0.0,0.0,0.0,0.0,0.0,0.0,0.0,0.0,0.0,0.0,0.0,0.0,0.0,0.0,0.0,0.0,0.0,0.0,0.0,0.0,0.0,0.0,0.0,0.0,0.0,0.0,0.0,0.0,0.0,0.0,0.0,0.0,0.0,0.0,0.0,0.0,0.0,0.0,0.0,0.0,0.0,0.0,0.0,0.0,0.0,0.0,0.0,0.0,0.0,0.0,0.0,0.0,0.0,0.0,0.0,0.0,0.0,0.0,0.0,0.0,0.0,0.0,0.0,0.0,0.0,0.0,0.0,0.0,0.0,0.0,0.0,0.0,0.0,0.0,0.0,0.0,0.0,0.0,0.0,0.0,0.0,0.0,0.0,0.0,0.0,0.0,0.0,0.0,0.0,0.0,0.0,0.0,0.0,0.0,0.0,0.0,0.0,0.0,0.0,0.0,0.0,0.0,0.0,0.0,0.0,0.0,0.0,0.0,0.0,0.0,0.0,0.0,0.0,0.0,0.0,0.0,0.0,0.0,0.0,0.0,0.0,0.0,0.0,0.0,0.0,0.0,0.0,0.0,0.0,0.0,0.0,0.0,0.0,0.0,0.0,0.0,0.0,0.0,0.0,0.0,0.0,0.0,0.0,0.0,0.0,0.0,0.0,0.0,0.0,0.0,0.0,0.0,0.0,0.0,0.0,0.0,0.0,0.0,0.0,0.0,0.0,0.0,0.0,0.0,0.0,0.0,0.0,0.0,0.0,0.0,0.0,0.0,0.0,0.0,0.0,0.0,0.0,0.0,0.0,0.0,0.0,0.0,0.0,0.0,0.0,0.0,0.0,0.0,0.0,0.0,0.0,0.0,0.0,0.0,0.0,0.0,0.0,0.0,0.0,0.0,0.0,0.0,0.0,0.0,0.0,0.0,0.0,0.0,0.0,0.0,0.0,0.0,0.0,0.0,0.0,0.0,0.0,0.0,0.0,0.0,0.0,0.0,0.0,0.0,0.0,0.0,0.0,0.0,0.0,0.0,0.0,0.0,0.0,0.0,0.0,0.0,0.0,0.0,0.0,0.0,0.0,0.0,0.0,0.0,0.0,0.0,0.0,0.0,0.0,0.0,0.0,0.0,0.0,0.0,0.0,0.0,0.0,0.0,0.0,0.0,0.0,0.0,0.0,0.0,0.0,0.0,0.0,0.0,0.0,0.0,0.0,0.0,0.0,0.0,0.0,0.0,0.0,0.0,0.0,0.0,0.0,0.0,0.0,0.0,0.0,0.0,0.0,0.0,0.0,0.0,0.0,0.0,0.0,0.0,0.0,0.0,0.0,0.0,0.0,0.0,0.0,0.0,0.0,0.0,0.0,0.0,0.0,0.0,0.0,0.0,0.0,0.0,0.0,0.0,0.0,0.0,0.0,0.0,0.0,0.0,0.0,0.0,0.0,0.0,0.0,0.0,0.0,0.0,0.0,0.0,0.0,0.0,0.0,0.0,0.0,0.0,0.0,0.0,0.0,0.0,0.0,0.0,0.0,0.0,0.0,0.0,0.0,0.0,0.0,0.0,0.0,0.0,0.0,0.0,0.0,0.0,0.0,0.0,0.0,0.0,0.0,0.0,0.0,0.0,0.0,0.0,0.0,0.0,0.0,0.0,0.0,0.0,0.0,0.0,0.0,0.0,0.0,0.0,0.0,0.0,0.0,0.0,0.0,0.0,0.0,0.0,0.0,0.0,0.0,0.0,0.0,0.0,0.0,0.0,0.0,0.0,0.0,0.0,0.0,0.0,0.0,0.0,0.0,0.0,0.0,0.0,0.0,0.0,0.0,0.0,0.0,0.0,0.0,0.0,0.0,0.0,0.0,0.0,0.0,0.0,0.0,0.0,0.0,0.0,0.0,0.0,0.0,0.0,0.0,0.0,0.0,0.0,0.0,0.0,0.0,0.0,0.0,0.0,0.0,0.0,0.0,0.0,0.0,0.0,0.0,0.0,0.0,0.0,0.0,0.0,0.0,0.0,0.0,0.0,0.0,0.0,0.0,0.0,0.0,0.0,0.0,0.0,0.0,0.0,0.0,0.0,0.0,0.0,0.0,0.0,0.0,0.0,0.0,0.0,0.0,0.0,0.0,0.0,0.0,0.0,0.0,0.0,0.0,0.0,0.0,0.0,0.0,0.0,0.0,0.0,0.0,0.0,0.0,0.0,0.0,0.0,0.0,0.0,0.0,0.0,0.0,0.0,0.0,0.0,0.0,0.0,0.0,0.0,0.0,0.0,0.0,0.0,0.0,0.0,0.0,0.0,0.0,0.0,0.0,0.0,0.0,0.0,0.0,0.0,0.0,0.0,0.0,0.0,0.0,0.0,0.0,0.0,0.0,0.0,0.0,0.0,0.0,0.0,0.0,0.0,0.0,0.0,0.0,0.0,0.0,0.0,0.0,0.0,0.0,0.0,0.0,0.0,0.0,0.0,0.0,0.0,0.0,0.0,0.0,0.0,0.0,0.0,0.0,0.0,0.0,0.0,0.0,0.0,0.0,0.0,0.0,0.0,0.0,0.0,0.0,0.0,0.0,0.0,0.0,0.0,0.0,0.0,0.0,0.0,0.0,0.0,0.0,0.0,0.0,0.0,0.0,0.0,0.0,0.0,0.0,0.0,0.0,0.0,0.0,0.0,0.0,0.0,0.0,0.0,0.0,0.0,0.0,0.0,0.0,0.0,0.0,0.0,0.0,0.0,0.0,0.0,0.0,0.0,0.0,0.0,0.0,0.0,0.0,0.0,0.0,0.0,0.0,0.0,0.0,0.0,0.0,0.0,0.0,0.0,0.0,0.0,0.0,0.0,0.0,0.0,0.0,0.0,0.0,0.0,0.0,0.0,0.0,0.0,0.0,0.0,0.0,0.0,0.0,0.0,0.0,0.0,0.0,0.0,0.0,0.0,0.0,0.0,0.0,0.0,0.0,0.0,0.0,0.0,0.0,0.0,0.0,0.0,0.0,0.0,0.0,0.0,0.0,0.0,0.0,0.0,0.0,0.0,0.0,0.0,0.0,0.0,0.0,0.0,0.0,0.0,0.0,0.0,0.0,0.0,0.0,0.0,0.0,0.0,0.0,0.0,0.0,0.0,0.0,0.0,0.0,0.0,0.0,0.0,0.0,0.0,0.0,0.0,0.0,0.0,0.0,0.0,0.0,0.0,0.0,0.0,0.0,0.0,0.0,0.0,0.0,0.0,0.0,0.0,0.0,0.0,0.0,0.0,0.0,0.0,0.0,0.0,0.0,0.0,0.0,0.0,0.0,0.0,0.0,0.0,0.0,0.0,0.0,0.0,0.0,0.0,0.0,0.0,0.0,0.0,0.0,0.0,0.0,0.0,0.0,0.0,0.0,0.0,0.0,0.0,0.0,0.0,0.0,0.0,0.0,0.0,0.0,0.0,0.0,0.0,0.0,0.0,0.0,0.0,0.0,0.0,0.0,0.0,0.0,0.0,0.0,0.0,0.0,0.0,0.0,0.0,0.0,0.0,0.0,0.0,0.0,0.0,0.0,0.0,0.0,0.0,0.0,0.0,0.0,0.0,0.0,0.0,0.0,0.0,0.0,0.0,0.0,0.0,0.0,0.0,0.0,0.0,0.0,0.0,0.0,0.0,0.0,0.0,0.0,0.0,0.0,0.0,0.0,0.0,0.0,0.0,0.0,0.0,0.0,0.0,0.0,0.0,0.0,0.0,0.0,0.0,0.0,0.0,0.0,0.0,0.0,0.0,0.0,0.0,0.0,0.0,0.0,0.0,0.0,0.0,0.0,0.0,0.0,0.0,0.0,0.0,0.0,0.0,0.0,0.0,0.0,0.0,0.0,0.0,0.0,0.0,0.0,0.0,0.0,0.0,0.0,0.0,0.0,0.0,0.0,0.0,0.0,0.0,0.0,0.0,0.0,0.0,0.0,0.0,0.0,0.0,0.0,0.0,0.0,0.0,0.0,0.0,0.0,0.0,0.0,0.0,0.0,0.0,0.0,0.0,0.0,0.0,0.0,0.0,0.0,0.0,0.0,0.0,0.0,0.0,0.0,0.0,0.0,0.0,0.0,0.0,0.0,0.0,0.0,0.0,0.0,0.0,0.0,0.0,0.0,0.0,0.0,0.0,0.0,0.0,0.0,0.0,0.0,0.0,0.0,0.0,0.0,0.0,0.0,0.0,0.0,0.0,0.0,0.0,0.0,0.0,0.0,0.0,0.0,0.0,0.0,0.0,0.0,0.0,0.0,0.0,0.0,0.0,0.0,0.0,0.0,0.0,0.0,0.0,0.0,0.0,0.0,0.0,0.0,0.0,0.0,0.0,0.0,0.0,0.0,0.0,0.0,0.0,0.0,0.0,0.0,0.0,0.0,0.0,0.0,0.0,0.0,0.0,0.0,0.0,0.0,0.0,0.0,0.0,0.0,0.0,0.0,0.0,0.0,0.0,0.0,0.0,0.0,0.0,0.0,0.0,0.0,0.0,0.0,0.0,0.0,0.0,0.0,0.0,0.0,0.0,0.0,0.0,0.0,0.0,0.0,0.0,0.0,0.0,0.0,0.0,0.0,0.0,0.0,0.0,0.0,0.0,0.0,0.0,0.0,0.0,0.0,0.0,0.0,0.0,0.0,0.0,0.0,0.0,0.0,0.0,0.0,0.0,0.0,0.0,0.0,0.0,0.0,0.0,0.0,0.0,0.0,0.0,0.0,0.0,0.0,0.0,0.0,0.0,0.0,0.0,0.0,0.0,0.0,0.0,0.0,0.0,0.0,0.0,0.0,0.0,0.0,0.0,0.0,0.0,0.0,0.0,0.0,0.0,0.0,0.0,0.0,0.0,0.0,0.0,0.0,0.0,0.0,0.0,0.0,0.0,0.0,0.0,0.0,0.0,0.0,0.0,0.0,0.0,0.0,0.0,0.0,0.0,0.0,0.0,0.0,0.0,0.0,0.0,0.0,0.0,0.0,0.0,0.0,0.0,0.0,0.0,0.0,0.0,0.0,0.0,0.0,0.0,0.0,0.0,0.0,0.0,0.0,0.0,0.0,0.0,0.0,0.0,0.0,0.0,0.0,0.0,0.0,0.0,0.0,0.0,0.0,0.0,0.0,0.0,0.0,0.0,0.0,0.0,0.0,0.0,0.0,0.0,0.0,0.0,0.0,0.0,0.0,0.0,0.0,0.0,0.0,0.0,0.0,0.0,0.0,0.0,0.0,0.0,0.0,0.0,0.0,0.0,0.0,0.0,0.0,0.0,0.0,0.0,0.0,0.0,0.0,0.0,0.0,0.0,0.0,0.0,0.0,0.0,0.0,0.0,0.0,0.0,0.0,0.0,0.0,0.0,0.0,0.0,0.0,0.0,0.0,0.0,0.0,0.0,0.0,0.0,0.0,0.0,0.0,0.0,0.0,0.0,0.0,0.0,0.0,0.0,0.0,0.0,0.0,0.0,0.0,0.0,0.0,0.0,0.0,0.0,0.0,0.0,0.0,0.0,0.0,0.0,0.0,0.0,0.0,0.0,0.0,0.0,0.0,0.0,0.0,0.0,0.0,0.0,0.0,0.0,0.0,0.0,0.0,0.0,0.0,0.0,0.0,0.0,0.0,0.0,0.0,0.0,0.0,0.0,0.0,0.0,0.0,0.0,0.0,0.0,0.0,0.0,0.0,0.0,0.0,0.0,0.0,0.0,0.0,0.0,0.0,0.0,0.0,0.0,0.0,0.0,0.0,0.0,0.0,0.0,0.0,0.0,0.0,0.0,0.0,0.0,0.0,0.0,0.0,0.0,0.0,0.0,0.0,0.0,0.0,0.0,0.0,0.0,0.0,0.0,0.0,0.0,0.0,0.0,0.0,0.0,0.0,0.0,0.0,0.0,0.0,0.0,0.0,0.0,0.0,0.0,0.0,0.0,0.0,0.0,0.0,0.0,0.0,0.0,0.0,0.0,0.0,0.0,0.0,0.0,0.0,0.0,0.0,0.0,0.0,0.0,0.0,0.0,0.0,0.0,0.0,0.0,0.0,0.0,0.0,0.0,0.0,0.0,0.0,0.0,0.0,0.0,0.0,0.0,0.0,0.0,0.0,0.0,0.0,0.0,0.0,0.0,0.0,0.0,0.0,0.0,0.0,0.0,0.0,0.0,0.0,0.0,0.0,0.0,0.0,0.0,0.0,0.0,0.0,0.0,0.0,0.0,0.0,0.0,0.0,0.0,0.0,0.0,0.0,0.0,0.0,0.0,0.0,0.0,0.0,0.0,0.0,0.0,0.0,0.0,0.0,0.0,0.0,0.0,0.0,0.0,0.0,0.0,0.0,0.0,0.0,0.0,0.0,0.0,0.0,0.0,0.0,0.0,0.0,0.0,0.0,0.0,0.0,0.0,0.0,0.0,0.0,0.0,0.0,0.0,0.0,0.0,0.0,0.0,0.0,0.0,0.0,0.0,0.0,0.0,0.0,0.0,0.0,0.0,0.0,0.0,0.0,0.0,0.0,0.0,0.0,0.0,0.0,0.0,0.0,0.0,0.0,0.0,0.0,0.0,0.0,0.0,0.0,0.0,0.0,0.0,0.0,0.0,0.0,0.0,0.0,0.0,0.0,0.0,0.0,0.0,0.0,0.0,0.0,0.0,0.0,0.0,0.0,0.0,0.0,0.0,0.0,0.0,0.1253,0.2211,0.221,0.0929,0.0,0.0,0.0,0.0,0.0,0.0,0.0,0.0,0.0,0.0,0.0,0.0,0.0,0.0,0.0,0.0,0.0,0.0,0.0,0.0,0.0,0.0,0.0,0.0,0.0,0.0,0.0,0.0,0.0,0.0,0.0,0.0,0.0,0.0,0.0,0.0,0.0,0.0,0.0,0.0,0.0,0.0,0.0,0.0,0.0,0.0,0.0,0.0,0.0,0.0,0.0,0.0,0.0,0.0,0.0,0.0,0.0,0.0,0.0,0.0,0.0,0.0,0.0,0.0,0.0,0.0,0.0,0.0,0.0,0.0,0.0,0.0,0.0,0.0,0.0,0.0,0.0,0.0,0.0,0.0,0.0,0.0,0.0,0.0,0.0,0.0,0.0,0.0,0.0,0.0,0.0,0.0,0.0,0.0,0.0,0.0,0.0,0.0,0.0,0.0,0.0,0.0,0.0,0.0,0.0,0.0,0.0,0.0,0.0,0.0,0.0,0.0,0.7411,1.3996,1.3974,0.6284,0.0,0.0,0.0,0.0,0.0,0.0,0.0,0.0,0.0,0.0,0.0,0.0,0.0,0.0,0.0,0.0,0.0,0.0,0.0,0.0,0.0,0.0,0.0,0.0,0.0,0.0,0.0,0.0,0.0,0.0,0.0,0.0,0.0,0.0,0.0,0.0,0.0,0.0,0.0,0.0,0.0,0.0,0.0,0.0,0.0,0.0,0.0,0.0,0.0,0.0,0.0,0.0,0.0,0.0,0.0,0.0,0.0,0.0,0.0,0.0,0.0,0.0,0.0,0.0,0.0,0.0,0.0,0.0,0.0,0.0,0.0,0.0,0.0,0.0,0.0,0.0,0.0,0.0,0.0,0.0,0.0,0.0,0.0,0.0,0.0,0.0,0.0,0.0,0.0,0.0,0.0,0.0,0.0,0.0,0.0,0.0,0.0,0.0,0.0,0.0,0.0,0.0,0.0,0.0,0.0,0.0,0.0,0.0,0.0,0.0,0.0,0.0,0.9078,1.7039,1.6996,0.7686,0.0,0.0,0.0,0.0,0.0,0.0,0.0,0.0,0.0,0.0,0.0,0.0,0.0,0.0,0.0,0.0,0.0,0.0,0.0,0.0,0.0,0.0,0.0,0.0,0.0,0.0,0.0,0.0,0.0,0.0,0.0,0.0,0.0,0.0,0.0,0.0,0.0,0.0,0.0,0.0,0.0,0.0,0.0,0.0,0.0,0.0,0.0,0.0,0.0,0.0,0.0,0.0,0.0,0.0,0.0,0.0,0.0,0.0,0.0,0.0,0.0,0.0,0.0,0.0,0.0,0.0,0.0,0.0,0.0,0.0,0.0,0.0,0.0,0.0,0.0,0.0,0.0,0.0,0.0,0.0,0.0,0.0,0.0,0.0,0.0,0.0,0.0,0.0,0.0,0.0,0.0,0.0,0.0,0.0,0.0,0.0,0.0,0.0,0.0,0.0,0.0,0.0,0.0,0.0,0.0,0.0,0.0,0.0,0.0,0.0,0.0,0.0,0.7124,1.4121,1.6612,0.968,0.2832,0.0384,0.0,0.0,0.0,0.0,0.0,0.0,0.0,0.0,0.0,0.0,0.0,0.0,0.0,0.0,0.0,0.0,0.0,0.0,0.0,0.0,0.0,0.0,0.0,0.0,0.0,0.0,0.0,0.0,0.0,0.0,0.0,0.0,0.0,0.0,0.0,0.0,0.0,0.0,0.0,0.0,0.0,0.0,0.0,0.0,0.0,0.0,0.0,0.0,0.0,0.0,0.0,0.0,0.0,0.0,0.0,0.0,0.0,0.0,0.0,0.0,0.0,0.0,0.0,0.0,0.0,0.0,0.0,0.0,0.0,0.0,0.0,0.0,0.0,0.0,0.0,0.0,0.0,0.0,0.0,0.0,0.0,0.0,0.0,0.0,0.0,0.0,0.0,0.0,0.0,0.0,0.0,0.0,0.0,0.0,0.0,0.0,0.0,0.0,0.0,0.0,0.0,0.0,0.0,0.0,0.0,0.0,0.0,0.0,0.0,0.0,0.0835,0.4849,1.5064,1.6112,1.2114,0.1583,0.0,0.0,0.0,0.0,0.0,0.0,0.0,0.0,0.0,0.0,0.0,0.0,0.0,0.0,0.0,0.0,0.0,0.0,0.0,0.0,0.0,0.0,0.0,0.0,0.0,0.0,0.0,0.0,0.0,0.0,0.0,0.0,0.0,0.0,0.0,0.0,0.0,0.0,0.0,0.0,0.0,0.0,0.0,0.5567,1.0096,0.9728,0.972,0.7539,0.0966,0.0,0.0,0.0,0.0,0.0,0.0,0.0,0.0,0.0,0.0,0.0,0.0,0.0,0.0,0.0,0.0,0.0,0.0,0.0,0.0,0.0,0.0,0.0,0.0,0.0,0.0,0.0,0.0,0.0,0.0,0.0,0.0,0.0,0.0,0.0,0.0,0.0,0.0,0.0853,0.8151,0.6029,0.0,0.0,0.0,0.0,0.0,0.0,0.0,0.0,0.0,0.0,0.0,0.0,0.0,0.0,0.509,1.0175,1.0295,0.7527,0.5204,0.5177,0.7886,1.1517,1.6208,1.7093,1.3257,0.1825,0.0,0.0,0.0,0.0,0.0,0.0,0.0,0.0,0.0,0.0,0.0,0.0,0.0,0.0,0.0,0.0,0.0,0.0,0.0,0.0,0.0,0.0,0.0,0.0,0.0,0.0,0.0,0.0,0.0,0.0,0.0,0.0,0.0,0.0,0.0,0.0,0.0,0.0,0.0,0.0,0.0,0.0,0.4744,0.863,1.1963,1.1397,1.1397,0.8727,0.1178,0.0,0.0,0.0,0.0,0.0,0.0,0.0,0.0,0.0,0.2895,0.4749,0.4687,0.1854,0.0827,0.2463,0.411,0.4118,0.2478,0.2262,0.2436,0.2381,0.233,0.2296,0.2274,0.2402,0.1488,0.0,0.0,0.0,0.0,0.0,0.0,0.0,0.0,0.0,0.0,0.0,0.2135,0.6425,1.4932,1.2374,0.4785,0.1092,0.1096,0.2419,0.0657,0.0,0.0,0.0,0.0,0.0,0.0,0.2349,0.4902,0.4902,0.9811,1.4951,1.6584,1.3923,1.1086,1.0996,1.1606,1.2482,1.4104,1.588,1.3716,0.4103,0.103,0.0,0.0,0.0,0.0,0.0,0.0,0.0,0.0,0.0,0.0,0.0,0.0,0.0,0.0,0.0,0.0,0.0,0.0,0.0,0.0,0.0,0.0,0.0,0.0,0.0,0.0,0.0,0.0,0.0,0.0,0.0,0.0,0.0,0.0,0.0,0.0,0.0,0.0,0.0,0.0,0.0,1.5864,0.7343,0.0202,0.0202,0.0202,0.0202,0.0,0.0,0.0,0.0,0.0,0.0,0.0,0.0,0.0,0.0,0.9772,1.5866,1.586,0.6004,0.248,0.8053,1.3727,1.4094,0.7954,0.7812,0.7812,0.7944,0.7922,0.7893,0.786,0.7935,0.5113,0.0,0.0,0.0,0.0,0.0,0.0,0.0,0.0,0.0,0.0,0.0,0.7289,1.7607,1.7829,1.7779,1.5961,0.3972,0.3992,0.7795,0.1758,0.0,0.0,0.0,0.0,0.0,0.0,0.8161,1.6736,1.6736,1.2581,0.9984,1.5792,1.6985,1.6849,1.6948,0.8083,0.1865,0.7524,1.3268,1.5124,0.9408,0.3639,0.0,0.0,0.0,0.0,0.0,0.0,0.0,0.0,0.0,0.0,0.0,0.0,0.0,0.0,0.0,0.0,0.0,0.0,0.0,0.0,0.0,0.0,0.0,0.0,0.0,0.0,0.0,0.0,0.0,0.0,0.0,0.0,0.0,0.0,0.0,0.0,0.0,0.0,0.0,0.0,0.0,1.6152,1.3344,1.0884,1.0893,1.1051,1.1194,1.1536,1.1681,1.1516,1.1507,1.1278,1.1152,1.1585,1.1138,0.9541,0.5745,0.8664,1.2179,1.5962,1.2784,1.012,0.8191,1.3865,1.6008,1.4259,1.3877,1.3632,1.3514,1.3427,1.3614,1.3503,1.3501,1.2705,1.0728,0.7247,0.5773,0.5719,0.5769,0.58,0.5821,0.5854,0.589,0.5712,0.5728,0.8332,1.2307,1.6321,1.782,1.7338,1.3575,1.0702,0.9372,1.1577,0.9325,0.5979,0.6164,0.6141,0.6114,0.5827,0.8382,1.2234,1.606,1.5574,1.4674,1.6617,1.6998,1.6924,1.7051,1.1082,0.6246,0.7886,1.3,1.6359,1.4641,0.617,0.0,0.0,0.0,0.0,0.0,0.0,0.0,0.0,0.0,0.0,0.0,0.0,0.0,0.0,0.0,0.0,0.0,0.0,0.0,0.0,0.0,0.0,0.0,0.0,0.0,0.0,0.0,0.0,0.0,0.0,0.0,0.0,0.0,0.0,0.0,0.0,0.0,0.0,0.0,0.0,0.0,1.6381,1.6497,1.6366,1.6386,1.6366,1.6503,1.6556,1.6578,1.6838,1.7056,1.6524,1.6234,1.6563,1.6413,1.4783,1.1401,1.1024,1.244,1.5777,1.6199,1.4614,1.1208,1.4904,1.6886,1.681,1.6653,1.6406,1.6259,1.6273,1.6185,1.6191,1.6154,1.6234,1.6075,1.28,1.1549,1.1715,1.1611,1.1687,1.1754,1.1792,1.1638,1.1699,1.1741,1.203,1.2561,1.641,1.7889,1.7826,1.7894,1.5424,1.295,1.6818,1.5231,1.226,1.2228,1.2153,1.2069,1.1942,1.1844,1.2621,1.6016,1.7046,1.7012,1.7012,1.6998,1.6971,1.6944,1.241,0.8994,1.1064,1.429,1.6822,1.6946,1.11,0.4812,0.06,0.0,0.0,0.0,0.0,0.0,0.0,0.0,0.0,0.0,0.0,0.0,0.0,0.0,0.0,0.0,0.0,0.0,0.0,0.0,0.0,0.0,0.0,0.0,0.0,0.0,0.0,0.0,0.0,0.0,0.0,0.0,0.0,0.0,0.0,0.0,0.0,0.0,0.0,0.0,1.696,1.6967,1.6974,1.6974,1.7085,1.6707,1.6346,1.6139,1.6217,1.6981,1.6567,1.6204,1.6134,1.622,1.6174,1.6252,1.6178,1.6144,1.6144,1.6071,1.6138,1.6313,1.6625,1.6714,1.6524,1.6673,1.668,1.6537,1.6524,1.6524,1.6524,1.6524,1.6544,1.6379,1.6386,1.6625,1.6879,1.703,1.7092,1.6897,1.7032,1.71,1.7121,1.727,1.7399,1.7521,1.7875,1.7998,1.786,1.7914,1.7894,1.786,1.7914,1.7894,1.786,1.7968,1.7565,1.7344,1.7331,1.7297,1.7039,1.7032,1.7005,1.6978,1.6978,1.6978,1.6992,1.7026,1.287,1.0717,1.592,1.6728,1.6694,1.6998,1.706,1.309,0.2047,0.0209,0.0,0.0,0.0,0.0,0.0,0.0,0.0,0.0,0.0,0.0,0.0,0.0,0.0,0.0,0.0,0.0,0.0,0.0,0.0,0.0,0.0,0.0,0.0,0.0,0.0,0.0,0.0,0.0,0.0,0.0,0.0,0.0,0.0,0.0,0.0,0.0,0.0,0.0,1.6913,1.7003,1.7085,1.7085,1.7016,1.6955,1.6913,1.6333,1.6313,1.6967,1.69,1.6734,1.6756,1.6762,1.6756,1.687,1.6341,1.6065,1.6266,1.63,1.632,1.6307,1.649,1.6571,1.6524,1.6673,1.6734,1.6693,1.6578,1.6524,1.6524,1.6524,1.6524,1.6544,1.6659,1.6714,1.6741,1.689,1.6958,1.6958,1.6992,1.7073,1.7175,1.7209,1.7385,1.7616,1.765,1.7758,1.786,1.788,1.788,1.786,1.788,1.7792,1.7717,1.786,1.7772,1.7602,1.7487,1.7311,1.7127,1.7019,1.6985,1.6978,1.6978,1.6978,1.6992,1.7026,1.5933,1.5246,1.6459,1.6728,1.6951,1.6836,1.6978,1.4575,0.7569,0.267,0.0,0.0,0.0,0.0,0.0,0.0,0.0,0.0,0.0,0.0,0.0,0.0,0.0,0.0,0.0,0.0,0.0,0.0,0.0,0.0,0.0,0.0,0.0,0.0,0.0,0.0,0.0,0.0,0.0,0.0,0.0,0.0,0.0,0.0,0.0,0.0,0.0,0.0,1.7071,1.6924,1.6978,1.6978,1.6917,1.7044,1.6975,1.6809,1.6587,1.6865,1.6975,1.7037,1.6955,1.6948,1.6948,1.6948,1.653,1.6402,1.6408,1.6408,1.6408,1.6408,1.6544,1.6625,1.6625,1.6775,1.6856,1.6856,1.6775,1.6734,1.6734,1.6734,1.6734,1.6734,1.6815,1.6856,1.6863,1.6944,1.6978,1.6985,1.7053,1.7121,1.7209,1.7351,1.7507,1.765,1.7717,1.7792,1.786,1.786,1.786,1.7846,1.7792,1.7717,1.765,1.765,1.7555,1.7419,1.7338,1.7209,1.708,1.6998,1.6978,1.6978,1.6978,1.6978,1.6985,1.7005,1.7019,1.7005,1.691,1.6971,1.7012,1.6958,1.6842,1.4588,0.9239,0.3682,0.0,0.0,0.0,0.0,0.0,0.0,0.0,0.0,0.0,0.0,0.0,0.0,0.0,0.0,0.0,0.0,0.0,0.0,0.0,0.0,0.0,0.0,0.0,0.0,0.0,0.0,0.0,0.0,0.0,0.0,0.0,0.0,0.0,0.0,0.0,0.0,0.0,0.0,1.6978,1.6978,1.6978,1.6978,1.6978,1.6937,1.7016,1.6897,1.6937,1.7016,1.6904,1.6978,1.6978,1.6978,1.6978,1.6978,1.6741,1.6578,1.6558,1.6558,1.6558,1.6558,1.668,1.6748,1.6748,1.6876,1.6958,1.6978,1.6978,1.6978,1.6978,1.6978,1.6978,1.6978,1.6978,1.6978,1.6985,1.7005,1.7012,1.7026,1.7168,1.7243,1.729,1.7548,1.7663,1.7704,1.7826,1.786,1.786,1.7846,1.7826,1.7812,1.767,1.7595,1.7555,1.7426,1.7277,1.7168,1.7188,1.7087,1.6978,1.6978,1.6978,1.6978,1.6978,1.6978,1.6978,1.6978,1.7005,1.7012,1.6985,1.7005,1.7039,1.7087,1.6493,1.4763,1.0283,0.4098,0.0,0.0,0.0,0.0,0.0,0.0,0.0,0.0,0.0,0.0,0.0,0.0,0.0,0.0,0.0,0.0,0.0,0.0,0.0,0.0,0.0,0.0,0.0,0.0,0.0,0.0,0.0,0.0,0.0,0.0,0.0,0.0,0.0,0.0,0.0,0.0,0.0,0.0,1.6978,1.6978,1.6978,1.6978,1.6978,1.6971,1.6951,1.6965,1.6971,1.6951,1.6965,1.6978,1.6978,1.6978,1.6978,1.6978,1.6937,1.6856,1.672,1.6714,1.6714,1.6714,1.6734,1.6748,1.6748,1.6775,1.6849,1.6978,1.6978,1.6978,1.6978,1.6978,1.6978,1.6978,1.6978,1.6978,1.6985,1.7107,1.7161,1.7175,1.7324,1.746,1.7582,1.7629,1.7717,1.7826,1.786,1.786,1.7846,1.7717,1.7684,1.765,1.75,1.7365,1.7256,1.7236,1.7127,1.7039,1.7161,1.7087,1.6978,1.6978,1.6978,1.6978,1.6978,1.6978,1.6978,1.6978,1.6985,1.6985,1.6985,1.6985,1.691,1.6666,1.6585,1.6266,1.5214,0.6333,0.0,0.0,0.0,0.0,0.0,0.0,0.0,0.0,0.0,0.0,0.0,0.0,0.0,0.0,0.0,0.0,0.0,0.0,0.0,0.0,0.0,0.0,0.0,0.0,0.0,0.0,0.0,0.0,0.0,0.0,0.0,0.0,0.0,0.0,0.0,0.0,0.0,0.0,1.6978,1.6978,1.6978,1.6978,1.6978,1.6978,1.6978,1.6978,1.6978,1.6978,1.6978,1.6978,1.6978,1.6978,1.6978,1.6978,1.6978,1.6951,1.6876,1.6876,1.6876,1.6876,1.6876,1.6876,1.6876,1.6876,1.691,1.6978,1.6978,1.6978,1.6978,1.6978,1.6978,1.6985,1.706,1.7093,1.7107,1.7249,1.7317,1.7331,1.748,1.7589,1.765,1.7738,1.7812,1.7846,1.7772,1.7758,1.7717,1.7575,1.7528,1.75,1.7344,1.7249,1.7175,1.71,1.7032,1.6992,1.706,1.7032,1.6978,1.6978,1.6978,1.6978,1.6978,1.6978,1.6978,1.6978,1.6978,1.6978,1.6978,1.7039,1.6998,1.6693,1.6666,1.679,1.6717,1.2164,0.6449,0.0621,0.0,0.0,0.0,0.0,0.0,0.0,0.0,0.0,0.0,0.0,0.0,0.0,0.0,0.0,0.0,0.0,0.0,0.0,0.0,0.0,0.0,0.0,0.0,0.0,0.0,0.0,0.0,0.0,0.0,0.0,0.0,0.0,0.0,0.0,0.0,0.0,1.7032,1.7026,1.7019,1.6985,1.6978,1.6978,1.6978,1.6978,1.6978,1.6978,1.6978,1.6978,1.6978,1.6978,1.6978,1.6978,1.6978,1.6978,1.6978,1.6978,1.6978,1.6978,1.6978,1.6978,1.6978,1.6978,1.6978,1.6978,1.6978,1.6978,1.6978,1.6978,1.6978,1.6985,1.7127,1.7195,1.7202,1.7392,1.7473,1.7487,1.7629,1.7704,1.7704,1.7792,1.7812,1.7792,1.765,1.7595,1.7568,1.7419,1.7365,1.7344,1.7188,1.7141,1.7121,1.7012,1.6978,1.6978,1.6978,1.6978,1.6978,1.6978,1.6978,1.6978,1.6978,1.6978,1.6978,1.6978,1.6978,1.6978,1.6978,1.71,1.7093,1.6795,1.6781,1.6748,1.7002,1.6554,1.2854,0.3149,0.0855,0.0,0.0,0.0,0.0,0.0,0.0,0.0,0.0,0.0,0.0,0.0,0.0,0.0,0.0,0.0,0.0,0.0,0.0,0.0,0.0,0.0,0.0,0.0,0.0,0.0,0.0,0.0,0.0,0.0,0.0,0.0,0.0,0.0,0.0,0.0,1.6982,1.6956,1.6922,1.7005,1.6978,1.6978,1.6978,1.6978,1.6978,1.6978,1.6978,1.6978,1.6978,1.6978,1.6978,1.6978,1.6978,1.6978,1.6978,1.6978,1.6978,1.6978,1.6978,1.6978,1.6978,1.6978,1.6978,1.6978,1.6978,1.6978,1.6978,1.6978,1.6978,1.6985,1.7127,1.7195,1.7209,1.7507,1.7629,1.765,1.7792,1.7846,1.7826,1.7704,1.7663,1.765,1.7494,1.7439,1.7412,1.7263,1.7209,1.7182,1.7039,1.6998,1.6992,1.6985,1.6978,1.6978,1.6978,1.6978,1.6978,1.6978,1.6978,1.6978,1.6978,1.6978,1.6978,1.6978,1.6978,1.6978,1.6978,1.71,1.7093,1.6795,1.687,1.7005,1.7114,1.7066,1.4786,0.8978,0.3273,0.0,0.0,0.0,0.0,0.0,0.0,0.0,0.0,0.0,0.0,0.0,0.0,0.0,0.0,0.0,0.0,0.0,0.0,0.0,0.0,0.0,0.0,0.0,0.0,0.0,0.0,0.0,0.0,0.0,0.0,0.0,0.0,0.0,0.0,0.0,1.7566,1.7331,1.7096,1.7043,1.7029,1.7029,1.7029,1.7029,1.7029,1.7029,1.6956,1.6895,1.6895,1.7032,1.6978,1.6978,1.6978,1.6978,1.6978,1.6978,1.6978,1.6978,1.6978,1.6978,1.6978,1.6978,1.6978,1.6978,1.6978,1.6978,1.6978,1.6978,1.6978,1.6985,1.7127,1.7195,1.7209,1.7419,1.7507,1.7514,1.7568,1.7589,1.7582,1.7528,1.7507,1.7487,1.7331,1.7277,1.7256,1.7114,1.706,1.7053,1.6998,1.6978,1.6978,1.6978,1.6978,1.6978,1.6978,1.6978,1.6978,1.6978,1.6978,1.6978,1.6978,1.6978,1.6978,1.6978,1.7053,1.7114,1.7114,1.7311,1.7351,1.6958,1.7249,1.7453,1.7222,1.7426,1.6737,1.4821,0.5938,0.0,0.0,0.0,0.0,0.0,0.0,0.0,0.0,0.0,0.0,0.0,0.0,0.0,0.0,0.0,0.0,0.0,0.0,0.0,0.0,0.0,0.0,0.0,0.0,0.0,0.0,0.0,0.0,0.0,0.0,0.0,0.0,0.0,0.0,0.0,1.7947,1.7494,1.7257,1.721,1.7203,1.7203,1.7203,1.7203,1.7203,1.7203,1.7331,1.7263,1.7043,1.6962,1.7093,1.7046,1.7046,1.7026,1.6985,1.6978,1.6978,1.6978,1.6978,1.6978,1.6978,1.6978,1.6978,1.6978,1.6978,1.6978,1.6978,1.6978,1.6978,1.6985,1.7127,1.7195,1.7202,1.7358,1.7419,1.7419,1.7419,1.7419,1.7412,1.7365,1.7351,1.7331,1.7182,1.7127,1.7114,1.7012,1.6978,1.6978,1.6978,1.6978,1.6978,1.6978,1.6978,1.6978,1.6978,1.7012,1.7039,1.6992,1.6978,1.6978,1.6978,1.6978,1.6992,1.7039,1.7127,1.7209,1.7256,1.7473,1.7548,1.7243,1.7568,1.7758,1.7446,1.7704,1.7894,1.7846,0.8872,0.1989,0.022,0.0,0.0,0.0,0.0,0.0,0.0,0.0,0.0,0.0,0.0,0.0,0.0,0.0,0.0,0.0,0.0,0.0,0.0,0.0,0.0,0.0,0.0,0.0,0.0,0.0,0.0,0.0,0.0,0.0,0.0,0.0,0.0,0.0,1.7909,1.7875,1.7834,1.7899,1.7871,1.7871,1.7871,1.7871,1.7871,1.7871,1.7871,1.7641,1.6981,1.6975,1.6915,1.6982,1.6969,1.6915,1.6992,1.6978,1.6978,1.6978,1.6978,1.6978,1.6978,1.6978,1.6978,1.6978,1.6978,1.6978,1.6978,1.6978,1.6978,1.6985,1.7127,1.7188,1.7202,1.7351,1.7419,1.7419,1.7419,1.7419,1.7399,1.7249,1.7188,1.7175,1.7032,1.6978,1.6978,1.6978,1.6978,1.6978,1.6978,1.6978,1.6978,1.6978,1.6978,1.6985,1.6985,1.7087,1.7161,1.7019,1.6985,1.6985,1.6985,1.6985,1.7026,1.7168,1.7195,1.7243,1.7392,1.7548,1.765,1.765,1.7772,1.786,1.786,1.786,1.7894,1.7982,1.2534,0.6463,0.0665,0.0,0.0,0.0,0.0,0.0,0.0,0.0,0.0,0.0,0.0,0.0,0.0,0.0,0.0,0.0,0.0,0.0,0.0,0.0,0.0,0.0,0.0,0.0,0.0,0.0,0.0,0.0,0.0,0.0,0.0,0.0,0.0,0.0,1.7812,1.7792,1.7792,1.7964,1.7964,1.7964,1.7964,1.7964,1.793,1.782,1.7806,1.7724,1.7725,1.7697,1.7641,1.7706,1.7264,1.7026,1.6985,1.6978,1.6978,1.6978,1.6978,1.6978,1.6978,1.6978,1.6978,1.6978,1.6978,1.6978,1.6978,1.6978,1.6978,1.6985,1.7026,1.7046,1.7046,1.7093,1.7114,1.7114,1.7114,1.7114,1.7107,1.706,1.7046,1.7039,1.6998,1.6978,1.6978,1.6978,1.6978,1.6978,1.6978,1.6978,1.6978,1.6978,1.7053,1.7127,1.7127,1.7236,1.7317,1.7168,1.7209,1.729,1.729,1.729,1.7304,1.7344,1.7439,1.7528,1.7568,1.7704,1.7792,1.7792,1.7826,1.786,1.786,1.786,1.7894,1.7982,1.2534,0.6476,0.0671,0.0,0.0,0.0,0.0,0.0,0.0,0.0,0.0,0.0,0.0,0.0,0.0,0.0,0.0,0.0,0.0,0.0,0.0,0.0,0.0,0.0,0.0,0.0,0.0,0.0,0.0,0.0,0.0,0.0,0.0,0.0,0.0,0.0,1.786,1.786,1.786,1.786,1.786,1.786,1.786,1.7812,1.7978,1.7895,1.7602,1.771,1.796,1.7725,1.7449,1.7516,1.7229,1.6978,1.6978,1.6978,1.6978,1.6978,1.6978,1.6978,1.6978,1.6978,1.6978,1.6978,1.6978,1.6978,1.6978,1.6978,1.6978,1.6978,1.6978,1.6978,1.6978,1.6978,1.6978,1.6978,1.6978,1.6978,1.6978,1.6978,1.6978,1.6978,1.6978,1.6978,1.6978,1.6978,1.6978,1.6992,1.7046,1.7026,1.7005,1.7121,1.7175,1.7209,1.7263,1.7392,1.7487,1.7399,1.7399,1.7419,1.7419,1.7419,1.7439,1.75,1.7582,1.7663,1.7717,1.7812,1.786,1.786,1.786,1.786,1.786,1.786,1.7894,1.7982,1.2534,0.6476,0.067,0.0,0.0,0.0,0.0,0.0,0.0,0.0,0.0,0.0,0.0,0.0,0.0,0.0,0.0,0.0,0.0,0.0,0.0,0.0,0.0,0.0,0.0,0.0,0.0,0.0,0.0,0.0,0.0,0.0,0.0,0.0,0.0,0.0,1.786,1.786,1.786,1.786,1.786,1.786,1.7846,1.7944,1.7847,1.782,1.725,1.715,1.7787,1.7351,1.7083,1.6949,1.7046,1.6978,1.6978,1.6978,1.6978,1.6978,1.6978,1.6978,1.6978,1.6978,1.6978,1.6978,1.6978,1.6978,1.6978,1.6978,1.6978,1.6978,1.6978,1.6978,1.6978,1.6978,1.6978,1.6978,1.6978,1.6978,1.6978,1.6978,1.6978,1.6978,1.6978,1.6978,1.6978,1.6978,1.6992,1.7026,1.7154,1.7114,1.7073,1.7344,1.7331,1.7263,1.7405,1.7555,1.767,1.767,1.7561,1.746,1.746,1.746,1.75,1.7629,1.767,1.7704,1.7846,1.786,1.786,1.786,1.786,1.786,1.786,1.786,1.7894,1.7968,1.2525,0.6456,0.0664,0.0,0.0,0.0,0.0,0.0,0.0,0.0,0.0,0.0,0.0,0.0,0.0,0.0,0.0,0.0,0.0,0.0,0.0,0.0,0.0,0.0,0.0,0.0,0.0,0.0,0.0,0.0,0.0,0.0,0.0,0.0,0.0,0.0,1.786,1.786,1.786,1.786,1.786,1.7826,1.7944,1.7792,1.7829,1.7161,1.7093,1.6985,1.7169,1.7037,1.7099,1.7065,1.6931,1.6978,1.6978,1.6978,1.6978,1.6978,1.6978,1.6978,1.6978,1.6978,1.6978,1.6978,1.6978,1.6978,1.6978,1.6978,1.6978,1.6978,1.6978,1.6978,1.6978,1.6978,1.6978,1.6978,1.6978,1.6978,1.6978,1.6978,1.6978,1.6978,1.6978,1.6978,1.6978,1.6978,1.7053,1.7154,1.7182,1.7256,1.7338,1.7399,1.748,1.7555,1.7589,1.7704,1.7812,1.7812,1.7792,1.7772,1.7772,1.7772,1.7772,1.7812,1.7812,1.7826,1.786,1.786,1.786,1.786,1.786,1.786,1.786,1.786,1.7846,1.7826,1.2636,0.6619,0.0658,0.0,0.0,0.0,0.0,0.0,0.0,0.0,0.0,0.0,0.0,0.0,0.0,0.0,0.0,0.0,0.0,0.0,0.0,0.0,0.0,0.0,0.0,0.0,0.0,0.0,0.0,0.0,0.0,0.0,0.0,0.0,0.0,0.0,1.7998,1.793,1.7875,1.7875,1.782,1.7961,1.7885,1.7746,1.7346,1.6688,1.6594,1.6487,1.6537,1.6592,1.6646,1.7064,1.6996,1.7085,1.7085,1.6944,1.6978,1.6978,1.6978,1.6978,1.6978,1.6978,1.6978,1.6978,1.6978,1.6978,1.6978,1.6978,1.6978,1.6978,1.6978,1.6978,1.6978,1.6978,1.6978,1.6978,1.6978,1.6978,1.6978,1.6978,1.6978,1.6978,1.6978,1.6978,1.6992,1.706,1.7127,1.7216,1.7365,1.7412,1.7446,1.7589,1.7629,1.7663,1.7738,1.7812,1.786,1.786,1.786,1.786,1.786,1.786,1.786,1.786,1.786,1.786,1.786,1.786,1.786,1.786,1.786,1.786,1.786,1.7812,1.7758,1.7998,1.2563,0.6561,0.0653,0.0,0.0,0.0,0.0,0.0,0.0,0.0,0.0,0.0,0.0,0.0,0.0,0.0,0.0,0.0,0.0,0.0,0.0,0.0,0.0,0.0,0.0,0.0,0.0,0.0,0.0,0.0,0.0,0.0,0.0,0.0,0.0,0.0,1.782,1.7892,1.7787,1.7566,1.7683,1.7798,1.7777,1.7209,1.6634,1.6267,1.6121,1.6029,1.6029,1.6055,1.6272,1.6701,1.6838,1.6927,1.6927,1.7071,1.6944,1.6944,1.6965,1.6978,1.6978,1.6978,1.6978,1.6978,1.6978,1.6978,1.6978,1.6978,1.6978,1.6978,1.6978,1.6978,1.6978,1.6978,1.6978,1.6978,1.6978,1.6978,1.6978,1.6978,1.6978,1.6985,1.7012,1.7032,1.7073,1.7195,1.7249,1.7317,1.7568,1.7582,1.7541,1.7792,1.7772,1.7717,1.7826,1.786,1.786,1.786,1.786,1.786,1.786,1.786,1.786,1.786,1.786,1.786,1.786,1.786,1.786,1.786,1.7846,1.7826,1.7826,1.7704,1.7629,1.769,1.1582,0.5413,0.0431,0.0,0.0,0.0,0.0,0.0,0.0,0.0,0.0,0.0,0.0,0.0,0.0,0.0,0.0,0.0,0.0,0.0,0.0,0.0,0.0,0.0,0.0,0.0,0.0,0.0,0.0,0.0,0.0,0.0,0.0,0.0,0.0,0.0,1.7918,1.7572,1.7039,1.6387,1.6802,1.7181,1.7051,1.668,1.6115,1.6179,1.6031,1.6137,1.6137,1.6051,1.6132,1.6132,1.6259,1.6346,1.6974,1.6913,1.6996,1.6996,1.691,1.6978,1.6978,1.6978,1.6978,1.6978,1.6978,1.6978,1.6978,1.6978,1.6978,1.6978,1.6978,1.6978,1.6978,1.6978,1.6978,1.6978,1.6978,1.6978,1.6978,1.6978,1.6978,1.6998,1.7121,1.7249,1.7365,1.7385,1.748,1.7595,1.7629,1.7717,1.7812,1.7846,1.7846,1.7846,1.786,1.786,1.786,1.786,1.786,1.786,1.786,1.786,1.786,1.786,1.786,1.786,1.786,1.786,1.786,1.786,1.7758,1.7684,1.7684,1.7548,1.7439,1.7399,0.7947,0.0855,0.0,0.0,0.0,0.0,0.0,0.0,0.0,0.0,0.0,0.0,0.0,0.0,0.0,0.0,0.0,0.0,0.0,0.0,0.0,0.0,0.0,0.0,0.0,0.0,0.0,0.0,0.0,0.0,0.0,0.0,0.0,0.0,0.0,0.0,1.6978,1.6614,1.6507,1.6086,1.624,1.6578,1.6517,1.6239,1.6138,1.6198,1.6123,1.6083,1.6083,1.6137,1.6178,1.6178,1.6112,1.6192,1.6408,1.6537,1.6659,1.6962,1.703,1.7106,1.6978,1.6978,1.6978,1.6978,1.6978,1.6978,1.6978,1.6978,1.6978,1.6978,1.6978,1.6978,1.6978,1.6978,1.6978,1.6978,1.6978,1.6978,1.6978,1.6978,1.7032,1.7121,1.7263,1.7365,1.7433,1.7521,1.7595,1.7663,1.7738,1.7812,1.786,1.786,1.786,1.786,1.786,1.786,1.786,1.786,1.786,1.786,1.786,1.786,1.786,1.786,1.786,1.786,1.786,1.786,1.7846,1.7758,1.7684,1.7616,1.7534,1.7392,1.6169,1.2849,0.5117,0.0,0.0,0.0,0.0,0.0,0.0,0.0,0.0,0.0,0.0,0.0,0.0,0.0,0.0,0.0,0.0,0.0,0.0,0.0,0.0,0.0,0.0,0.0,0.0,0.0,0.0,0.0,0.0,0.0,0.0,0.0,0.0,0.0,0.0,0.0]}]]